GFSSE_sfc_thetae_000.txt.gz
Theta_e
340 340 345 345 348 350 351 352 353 353 354 353 352 351 352 351 350 348 348 348 347 345 345 348 350 348 344 344 346 349 350 349 348 349 349 347 345 345 344 348 349 344 349
342 339 343 344 345 349 350 351 353 354 353 354 353 351 349 350 348 344 341 341 342 338 337 344 346 346 348 349 348 348 348 348 348 348 348 346 345 343 344 346 344 343 349
340 341 335 343 343 345 347 350 351 351 350 352 351 351 349 343 344 342 340 336 333 336 334 341 344 346 347 347 347 347 347 347 347 347 347 340 340 345 343 344 344 347 347
341 339 337 344 344 342 343 345 348 350 349 349 350 349 346 343 342 342 339 336 334 337 337 340 343 344 347 343 345 346 345 346 345 346 341 339 341 345 342 342 341 346 348
341 341 340 344 344 343 343 345 346 346 347 347 348 347 346 344 341 340 340 337 336 339 343 342 338 343 342 341 341 343 342 344 344 343 336 332 335 343 343 340 342 343 343
341 342 341 343 343 342 341 343 345 345 345 346 347 347 347 341 338 336 335 334 338 339 340 334 333 335 340 339 339 340 341 341 342 336 336 334 332 345 344 344 343 341 341
340 343 341 342 343 343 342 341 342 343 343 343 345 345 344 344 343 339 338 339 341 334 330 330 330 331 338 339 340 341 341 340 340 335 335 330 335 346 344 343 344 343 342
339 342 342 342 342 341 340 339 339 340 341 342 342 342 342 342 341 339 339 340 339 337 334 332 335 337 337 338 339 338 338 338 338 335 333 330 341 346 345 345 344 342 342
337 339 342 342 341 338 336 335 336 338 338 339 340 340 339 339 336 335 335 334 333 333 334 336 336 336 337 337 337 336 335 336 333 333 334 331 343 345 344 343 343 342 341
338 336 339 340 341 338 333 333 333 336 337 337 338 338 339 336 333 331 331 331 331 332 329 327 325 332 334 334 334 334 332 333 331 330 330 334 341 343 342 343 343 341 340
330 334 340 340 341 340 338 334 335 336 336 335 334 335 333 337 333 330 329 330 329 328 328 326 323 325 328 330 332 332 331 328 327 328 329 333 339 338 339 342 341 341 340
325 326 329 335 338 338 335 332 340 338 336 336 336 335 334 333 330 329 329 329 328 326 325 324 323 322 321 320 323 329 325 323 322 327 330 333 337 336 336 340 341 340 340
322 323 324 331 335 338 336 336 336 335 335 334 334 333 331 329 328 327 327 327 326 323 323 322 321 320 319 319 319 322 325 324 324 321 324 332 336 336 336 338 341 340 339
320 320 322 329 332 332 332 330 331 329 329 328 328 329 329 327 325 324 324 323 323 323 322 321 318 317 317 319 319 318 321 324 325 325 326 327 331 336 335 336 338 339 339
320 320 320 324 328 330 328 328 326 324 322 321 323 323 325 324 324 324 322 322 321 322 321 322 320 318 318 319 320 320 319 320 324 324 324 325 324 327 331 334 336 337 338
316 319 320 321 325 325 326 325 323 321 318 318 319 321 323 323 322 322 319 319 318 318 319 320 321 322 321 321 320 322 321 319 321 323 324 323 323 324 325 329 333 336 338
316 317 317 318 321 321 322 321 320 316 315 315 318 319 319 320 316 315 314 314 315 316 316 315 314 314 316 321 321 322 323 322 322 323 324 324 323 322 323 324 328 330 334
318 314 315 313 316 317 318 315 315 314 315 315 318 317 316 316 315 314 313 312 311 312 310 308 307 308 311 313 315 314 315 319 322 323 323 324 322 323 322 323 324 326 328
315 313 313 312 311 314 314 313 313 313 312 314 316 314 314 312 312 310 310 310 309 307 306 305 304 303 302 303 305 308 308 310 315 321 322 322 323 322 323 322 321 321 324
315 313 313 312 312 313 312 312 311 311 311 311 312 312 312 310 309 308 309 308 307 306 305 305 304 304 303 303 302 301 302 305 311 318 320 323 323 323 323 321 320 317 319
314 311 311 310 311 309 309 308 307 307 309 310 310 311 311 310 309 308 307 306 307 305 304 304 303 302 301 303 300 299 300 301 302 307 315 321 322 323 322 322 322 321 316
312 312 310 310 310 309 308 308 308 309 308 309 309 310 310 310 309 308 307 305 305 304 304 304 303 300 301 302 299 297 294 296 301 303 306 313 317 321 322 322 322 322 321
312 312 311 310 310 310 309 308 308 308 307 305 305 307 309 309 310 309 308 306 305 305 303 303 302 301 298 300 300 298 293 292 295 298 300 301 304 312 317 320 322 321 321
312 314 312 311 310 310 310 306 306 303 301 303 304 305 306 309 308 308 308 307 305 305 303 304 303 303 301 297 300 302 299 298 294 293 297 299 300 300 308 314 317 319 320
312 313 312 312 311 310 310 308 306 304 304 305 305 306 305 306 306 306 306 305 304 304 303 302 302 302 301 299 299 298 298 298 298 296 293 295 298 299 300 310 311 311 313
313 313 314 312 310 311 310 309 307 304 305 304 304 302 303 303 303 304 303 301 301 301 300 299 299 299 299 298 298 298 297 296 295 295 294 295 295 296 298 301 305 307 310

GFSSE_sfc_thetae_003.txt.gz
Theta_e
334 339 343 347 349 350 351 351 351 352 353 352 351 350 349 350 347 344 342 340 339 341 341 340 339 345 347 347 347 350 349 348 348 349 349 346 347 346 346 348 347 344 350
335 337 341 344 347 348 350 350 350 349 352 352 351 349 348 347 344 342 341 341 338 334 335 337 337 344 345 347 345 346 346 346 346 346 348 347 346 345 345 345 344 344 349
335 335 339 342 344 345 347 349 350 351 351 352 351 350 348 345 343 342 340 337 335 335 332 333 335 342 343 344 342 345 344 345 345 346 347 339 339 344 344 342 345 348 347
335 336 340 343 344 345 346 347 348 348 349 349 349 347 346 345 344 342 337 336 334 334 332 334 340 339 341 339 340 342 344 342 343 344 342 342 341 346 343 342 345 348 348
335 338 341 342 341 342 345 346 346 347 347 347 347 347 344 344 344 344 338 335 334 334 335 339 336 337 335 333 338 339 340 340 340 342 337 335 337 344 343 341 343 346 346
334 337 340 341 341 342 344 345 345 344 345 345 346 347 344 343 341 341 339 337 335 336 339 339 337 334 334 334 337 338 338 338 340 338 336 335 335 345 343 343 342 342 342
335 337 339 340 341 342 342 341 342 342 342 344 345 344 344 342 339 335 334 334 336 338 337 335 333 331 330 334 334 336 338 338 339 336 334 331 335 347 345 342 343 341 341
337 337 338 340 339 339 339 338 337 338 340 341 342 342 342 342 341 340 341 339 340 337 333 330 330 330 333 333 333 336 337 337 339 336 334 329 334 346 346 345 343 343 342
337 338 336 337 337 336 334 334 335 335 337 339 339 338 337 335 336 336 335 335 335 335 337 336 336 335 337 336 336 335 335 336 334 334 333 329 339 346 345 345 345 343 342
329 331 336 335 334 330 328 331 332 334 335 336 338 338 333 332 333 333 332 332 333 332 331 330 332 333 333 333 333 332 332 332 330 329 328 329 341 346 343 344 343 344 342
328 330 331 332 334 331 329 331 333 334 334 334 335 335 332 329 327 325 329 330 330 331 330 327 328 331 330 329 329 329 329 326 326 327 327 331 338 340 344 344 342 342 341
317 320 324 326 328 330 333 330 331 334 332 331 330 329 329 325 324 325 327 329 327 326 326 326 325 325 323 319 320 326 324 323 322 320 326 332 337 337 341 343 342 342 341
314 315 319 325 326 326 326 330 330 328 329 327 326 325 322 323 322 323 322 322 320 322 320 321 321 320 319 318 318 318 321 323 322 323 325 330 336 338 338 340 341 342 341
312 313 318 322 323 322 321 320 320 324 322 322 323 324 322 320 319 319 317 318 318 318 317 320 316 315 315 317 316 316 318 319 321 321 323 327 331 336 335 338 340 340 340
309 310 315 319 320 322 319 317 315 314 313 313 316 316 318 319 318 318 318 317 318 318 318 316 316 315 314 316 317 316 317 318 319 320 322 324 326 328 332 334 335 337 339
308 310 311 314 317 318 318 315 313 310 310 311 312 315 317 315 314 314 315 316 314 314 314 312 311 312 315 318 318 317 318 318 318 318 321 322 323 326 328 330 332 335 337
307 308 309 309 314 313 316 315 312 309 310 309 312 313 313 314 310 309 307 308 308 311 312 311 310 309 309 312 313 316 318 321 322 320 320 320 322 322 324 327 329 330 332
306 306 307 309 310 309 311 312 310 306 306 308 312 312 312 312 312 309 308 306 305 305 306 302 302 301 303 303 304 308 311 311 313 317 323 323 323 323 322 324 326 327 328
305 305 305 301 303 306 306 306 306 306 305 307 311 310 310 309 309 305 306 305 304 304 302 302 301 300 298 299 299 300 299 301 305 308 313 321 322 323 322 322 323 324 325
304 304 305 304 303 305 305 304 304 303 304 305 308 308 309 307 306 303 305 305 303 302 302 301 300 301 300 299 302 300 298 300 302 304 310 319 321 322 323 322 322 321 321
303 303 303 303 303 303 301 301 300 300 302 303 303 307 307 306 305 303 302 303 303 301 301 300 300 299 298 299 297 297 297 298 298 300 304 311 317 322 323 324 323 321 318
303 303 302 303 303 302 302 301 301 300 301 302 303 304 306 305 305 304 303 300 301 300 299 299 300 298 298 299 296 295 292 295 297 299 300 304 306 312 312 319 323 323 321
302 303 304 303 303 303 302 301 301 301 301 299 300 302 303 305 305 304 303 302 301 300 299 300 298 297 295 298 298 296 293 291 294 297 298 299 300 303 307 314 320 316 316
304 304 305 305 305 304 303 300 300 299 298 299 300 300 302 304 305 305 304 303 302 300 300 300 302 299 298 295 297 300 298 297 294 293 296 298 300 300 300 308 316 317 320
304 304 305 305 305 306 304 302 300 298 300 301 301 301 300 303 304 304 302 302 301 300 299 297 297 297 298 297 297 296 296 297 297 295 292 296 297 299 301 301 305 309 312
305 304 304 304 305 305 305 304 302 301 301 300 300 299 300 300 299 299 298 297 296 296 296 296 296 294 294 295 296 296 294 294 294 294 292 293 294 294 297 299 300 305 307

GFSSE_sfc_thetae_006.txt.gz
Theta_e
332 337 345 348 349 349 349 348 350 351 351 351 350 350 350 347 345 344 343 344 343 346 343 341 340 341 343 344 344 344 343 345 345 348 349 348 346 347 347 348 347 346 350
332 336 342 345 347 348 350 349 349 351 352 351 350 350 348 345 343 344 344 344 345 343 338 340 340 343 342 342 343 343 341 339 344 345 347 348 347 345 346 345 343 345 349
331 335 338 342 345 348 349 349 350 350 351 351 350 350 347 345 344 344 344 342 335 339 337 337 338 341 342 338 336 340 342 341 340 342 345 338 338 344 344 342 343 348 349
333 337 338 342 344 346 346 347 347 348 348 350 349 349 347 345 344 344 342 335 334 332 337 341 342 338 340 333 332 334 340 342 342 342 339 340 340 344 343 342 345 348 347
334 337 338 339 342 345 345 345 346 345 346 347 346 346 346 345 344 343 338 335 334 334 337 340 342 340 337 335 332 333 340 339 340 340 337 336 334 341 344 343 346 346 344
332 334 337 338 340 344 345 344 344 344 344 345 346 345 344 343 342 342 338 335 334 335 336 339 336 336 336 333 332 338 338 336 337 336 337 336 335 343 345 344 342 344 343
331 335 336 337 340 342 342 342 342 342 343 343 344 344 343 340 338 335 333 336 336 337 337 337 339 337 335 334 335 337 336 333 335 335 335 332 329 344 345 343 343 343 343
333 335 336 339 339 339 339 339 338 339 340 341 341 341 342 341 340 340 339 337 337 339 334 333 332 335 331 334 334 334 332 334 335 336 334 332 334 342 346 344 341 341 342
335 334 334 335 336 336 335 334 334 336 338 339 338 338 337 336 336 336 336 336 336 336 336 333 333 332 332 335 334 333 333 334 334 333 333 331 335 340 346 345 343 342 342
335 334 331 331 331 327 326 332 332 333 335 337 336 335 333 333 333 333 333 334 333 333 333 332 334 334 334 334 333 332 331 331 329 329 329 329 336 343 344 345 344 343 342
330 332 332 331 331 326 324 329 332 334 334 334 336 333 329 327 326 326 328 331 331 330 328 327 327 328 327 326 327 328 328 326 325 325 325 330 336 338 343 342 343 342 342
321 323 325 328 329 328 330 329 328 332 330 329 330 330 328 324 322 324 327 329 327 326 326 326 326 325 322 318 318 321 322 323 322 321 321 328 334 337 339 340 341 341 341
315 318 322 324 324 322 325 327 328 327 327 327 326 325 322 321 321 321 319 320 317 321 317 318 317 317 316 316 316 316 317 318 320 322 324 327 332 336 337 339 340 340 340
311 314 319 321 321 319 318 325 325 324 325 323 323 322 320 318 317 317 316 317 315 315 315 314 314 314 312 313 314 314 314 315 316 318 321 324 327 332 335 337 337 338 338
309 312 316 319 320 319 316 314 313 313 315 314 315 316 320 318 316 317 316 314 315 315 314 313 316 318 317 317 317 315 315 315 316 317 318 322 324 328 330 333 336 337 337
308 310 315 316 318 319 315 313 310 310 309 310 312 314 317 316 315 315 314 315 313 312 311 309 308 307 308 310 313 318 319 318 317 317 318 318 321 324 326 328 331 333 335
306 308 311 313 314 313 315 313 310 308 308 309 310 312 314 312 309 309 308 309 310 310 310 309 307 306 305 307 305 308 311 312 312 314 317 319 320 321 323 326 328 329 330
305 307 307 312 311 310 312 312 311 308 306 307 309 310 311 312 310 307 306 305 304 305 307 300 300 299 298 298 298 299 304 307 305 305 308 313 320 322 323 324 326 328 329
305 304 301 306 306 305 305 306 305 306 303 305 309 309 310 310 309 306 306 304 302 303 301 300 299 298 297 297 298 298 297 297 298 302 303 305 310 320 323 323 323 323 326
302 303 302 300 302 304 303 302 301 302 302 302 307 308 309 308 307 303 304 304 302 301 300 299 298 299 298 297 300 298 297 297 298 297 299 304 308 314 317 322 322 321 321
301 302 302 302 301 301 300 299 298 299 300 301 302 308 308 307 306 302 302 303 303 300 300 299 298 298 296 296 295 296 295 296 296 298 299 301 307 312 316 317 321 322 323
300 301 301 301 301 301 299 299 300 298 299 301 301 302 306 306 304 303 301 301 301 300 299 299 299 297 296 297 295 293 291 294 295 297 299 299 299 302 308 307 310 319 321
300 301 301 301 301 301 301 300 299 298 298 298 299 300 302 305 305 303 301 301 299 299 298 297 297 296 294 296 296 294 290 288 294 296 297 298 298 299 301 303 307 312 314
301 300 301 302 302 302 301 299 298 300 299 301 302 299 301 304 304 303 302 301 299 299 298 298 298 297 296 293 295 298 296 294 290 289 295 297 299 300 300 300 303 306 311
302 302 302 302 303 304 303 301 299 299 300 301 298 297 298 300 302 303 302 301 299 299 297 295 295 293 294 293 293 292 292 293 292 290 288 291 295 298 299 298 298 301 303
302 302 303 303 303 304 303 303 300 299 300 298 299 298 298 296 296 298 298 296 296 295 295 294 294 292 292 293 292 292 292 289 289 289 288 288 289 292 295 296 295 295 297

GFSSE_sfc_thetae_009.txt.gz
Theta_e
330 337 346 348 349 348 347 349 350 349 350 351 351 349 348 347 346 347 347 346 346 347 344 342 344 343 345 342 343 343 344 345 345 348 347 345 344 344 346 348 347 343 347
331 337 343 346 348 349 349 349 350 350 350 350 350 348 347 345 345 345 345 345 347 342 339 339 342 343 344 343 342 343 343 342 342 345 346 347 345 345 344 345 342 344 346
331 336 339 343 347 348 349 349 350 351 352 351 349 348 346 345 345 344 344 340 337 339 337 337 341 344 340 341 340 340 340 342 343 343 345 339 338 344 344 344 342 347 346
333 335 338 343 345 346 346 346 348 348 349 350 350 348 347 345 345 344 341 335 335 336 338 339 340 343 339 340 339 340 339 339 341 343 341 339 339 343 344 343 344 346 346
333 334 336 341 343 344 344 344 345 345 346 346 347 347 346 345 343 342 337 336 334 335 337 338 339 340 337 334 336 335 338 339 339 339 335 337 336 341 343 344 345 346 346
330 331 335 339 341 343 343 342 342 343 343 345 345 344 344 343 343 341 337 335 334 335 336 339 337 337 337 335 335 333 337 335 334 332 334 336 336 338 343 344 343 344 344
329 331 333 336 339 342 341 340 341 342 342 342 343 343 342 341 339 336 337 337 336 336 337 338 340 340 336 335 334 335 335 334 330 332 333 332 332 337 343 343 343 342 343
330 332 333 337 338 338 339 339 339 340 340 340 340 341 341 340 340 339 337 334 335 337 337 335 335 333 335 332 333 333 332 331 331 331 334 330 335 340 341 344 342 342 343
332 331 332 333 335 336 335 335 335 337 338 338 337 337 337 336 337 337 336 337 337 337 336 333 334 332 332 333 333 332 331 333 331 331 332 331 335 337 340 343 343 341 342
329 330 328 329 330 327 326 333 332 334 336 336 335 334 333 333 333 333 332 334 333 333 331 331 331 332 332 331 330 328 328 329 325 327 328 328 333 337 339 342 343 341 341
331 329 328 328 327 324 322 327 332 334 334 335 334 332 327 325 323 323 329 330 330 329 328 327 327 326 324 323 324 325 325 323 322 322 322 326 330 336 338 339 341 340 340
326 328 328 327 327 325 328 326 326 329 328 328 329 327 325 322 320 323 325 328 326 326 325 324 324 323 320 316 316 319 317 318 319 321 321 327 329 334 337 339 339 339 339
325 324 324 327 325 325 325 325 324 325 325 325 324 325 322 321 320 319 318 318 315 320 315 316 315 314 313 312 313 313 314 314 315 317 319 324 326 329 333 336 338 338 338
314 317 320 322 319 317 322 325 325 324 324 323 322 321 319 316 316 316 315 316 314 314 313 313 313 313 313 313 313 313 313 314 313 315 317 322 324 327 328 333 335 337 337
310 314 318 319 318 316 317 315 317 318 322 320 320 320 319 316 314 314 313 313 312 313 312 311 311 312 312 312 313 314 315 315 315 315 315 321 322 324 328 329 332 334 335
309 311 315 316 318 315 313 311 311 311 312 312 312 313 317 317 315 314 314 313 312 311 310 308 306 305 305 306 308 309 312 313 313 314 314 314 318 320 321 326 329 329 330
308 310 314 314 315 315 313 312 309 307 308 308 310 312 314 314 312 312 312 312 311 309 308 307 305 304 301 303 301 302 303 306 308 306 307 311 313 317 321 323 325 328 329
305 308 310 314 312 310 312 311 310 308 306 306 308 309 312 311 308 306 305 307 307 305 308 303 298 297 297 297 296 297 298 302 300 299 301 303 308 311 317 322 324 325 327
304 305 304 308 308 307 309 309 307 306 303 303 306 308 308 310 310 307 305 305 303 302 302 299 298 297 296 296 296 297 296 296 296 300 299 300 302 306 313 320 323 323 324
303 302 300 304 304 303 302 301 300 301 301 302 303 307 309 308 308 304 304 304 301 300 299 298 297 297 297 296 298 298 295 296 296 296 296 300 301 305 307 310 315 317 320
300 301 299 299 299 300 299 299 298 298 299 300 301 305 308 308 307 303 302 303 301 300 299 299 297 296 296 295 294 294 294 295 295 296 297 298 299 301 302 305 305 308 312
299 299 300 300 300 299 298 298 298 297 298 299 300 301 306 308 307 304 301 302 302 300 298 298 297 295 295 295 293 291 289 292 293 296 296 297 298 299 301 302 303 305 307
298 299 300 300 300 300 300 298 298 297 297 297 298 298 301 306 308 305 302 301 301 301 300 298 297 296 294 295 295 293 288 287 290 293 294 295 295 296 298 299 301 303 304
299 299 299 300 300 301 300 299 297 298 298 301 301 300 301 302 304 306 305 301 300 298 296 296 297 295 294 292 292 297 294 292 286 284 290 291 291 294 295 297 297 298 299
299 299 300 301 302 303 302 301 300 298 300 301 301 297 298 298 301 303 304 301 299 299 298 296 294 292 292 292 291 290 289 290 290 288 284 286 290 291 293 295 295 296 297
300 300 300 302 302 303 303 302 300 298 299 298 299 298 299 296 297 299 299 298 296 295 295 293 294 293 292 292 293 293 291 289 287 285 284 286 287 289 292 293 293 293 296

GFSSE_sfc_thetae_012.txt.gz
Theta_e
328 336 346 348 349 348 348 349 348 349 350 351 351 349 348 348 347 348 348 347 347 346 343 343 343 344 342 341 343 345 345 346 345 346 347 345 345 344 346 348 347 344 347
330 334 344 347 349 348 349 348 348 349 351 350 349 347 346 347 346 346 345 341 344 341 341 342 342 342 344 342 343 343 342 343 344 346 348 347 346 345 343 347 345 344 345
331 334 339 345 347 348 349 350 351 351 351 349 348 347 346 345 345 345 341 338 338 338 338 337 341 344 341 342 342 343 342 342 342 343 346 339 339 344 344 345 343 347 345
332 334 338 344 344 345 346 347 348 349 350 350 349 348 346 344 344 343 338 337 336 337 339 339 339 342 341 340 340 339 340 340 340 342 340 339 339 342 343 345 344 345 345
331 332 338 341 342 343 343 344 344 345 346 347 348 347 346 345 343 342 336 337 334 335 337 338 340 340 340 336 336 334 337 338 336 335 334 337 338 340 343 342 344 344 345
327 328 336 339 340 342 342 342 342 342 344 344 344 344 344 344 343 341 339 336 334 336 337 339 339 338 336 336 335 335 336 335 332 328 332 335 338 339 341 341 342 343 344
326 327 332 337 339 341 341 340 341 341 341 342 343 343 342 341 339 337 336 337 337 336 338 339 338 337 336 335 334 334 334 334 332 330 332 333 333 338 340 344 343 342 343
327 328 329 337 338 339 340 338 339 339 339 339 340 341 341 340 339 338 336 334 335 337 338 335 334 334 332 332 334 331 331 332 331 331 332 333 334 339 341 342 342 340 341
328 328 328 329 333 335 334 335 335 336 337 337 336 336 336 336 336 335 336 336 335 335 335 334 333 334 334 333 331 329 329 331 327 328 330 330 334 337 339 340 341 341 341
327 327 326 326 328 326 325 332 333 334 335 335 335 333 332 332 332 332 330 332 332 331 330 329 329 328 327 326 326 326 326 326 323 323 324 326 330 334 338 339 341 341 341
328 327 326 326 325 322 321 326 332 334 334 334 333 332 326 323 321 321 329 330 329 328 327 327 326 325 323 322 322 322 321 319 320 321 321 327 329 333 336 337 340 340 340
325 327 326 326 325 323 325 323 324 327 326 327 328 325 323 320 319 322 324 327 325 325 325 324 323 321 316 313 313 317 314 315 316 317 318 324 326 329 332 334 337 338 338
325 326 328 326 325 324 324 322 322 323 323 323 324 324 322 321 319 317 316 316 314 319 313 315 313 313 313 312 312 313 314 314 314 315 318 323 325 328 329 330 332 335 336
323 326 325 325 324 321 322 323 322 323 322 322 322 321 319 317 315 315 315 314 313 312 312 312 312 312 312 313 313 312 312 313 313 315 317 321 321 322 326 330 330 331 334
319 320 319 319 319 316 319 320 321 321 322 321 320 319 318 315 314 314 313 312 312 312 312 311 309 308 308 308 309 310 311 312 313 313 312 315 316 316 318 321 327 330 330
314 314 316 316 317 314 313 313 315 315 317 316 316 317 317 316 314 313 313 312 311 311 310 308 305 304 302 304 305 304 305 306 309 308 305 306 312 314 317 319 322 325 329
309 311 313 315 315 313 312 310 308 309 309 309 311 311 312 315 314 313 312 312 312 310 308 306 304 303 300 301 299 300 301 302 306 303 301 303 306 310 315 319 321 324 326
306 309 312 315 313 312 311 311 309 307 306 305 307 308 310 313 312 309 309 309 310 308 307 305 299 298 297 297 297 297 298 299 299 299 301 301 303 305 310 316 317 321 319
305 308 309 309 310 309 308 309 308 307 305 304 304 306 308 309 310 306 305 305 306 304 304 304 298 297 295 295 296 296 296 296 297 299 299 300 301 303 307 310 312 313 314
303 305 305 305 307 305 302 301 301 300 301 302 301 303 307 308 308 307 305 304 303 300 299 298 297 297 296 296 297 297 296 296 296 296 297 300 300 302 303 304 306 306 310
301 300 300 301 301 300 299 299 298 299 299 300 300 302 304 307 308 307 305 304 303 301 300 299 297 296 295 295 294 294 294 295 295 295 297 298 300 301 302 303 303 304 306
300 300 299 299 298 298 298 297 297 296 297 298 299 300 301 303 306 307 305 303 302 302 298 298 296 295 295 295 293 291 290 292 293 295 296 297 297 299 299 301 301 303 304
297 298 298 298 298 298 299 298 298 297 298 297 298 298 300 301 303 305 306 304 302 302 301 299 298 295 295 294 295 293 288 287 289 292 293 293 295 293 297 297 299 301 300
297 297 298 300 300 301 300 299 298 296 296 299 299 299 300 300 300 303 305 304 302 300 300 296 297 296 294 292 293 296 293 292 285 284 290 293 292 293 293 295 296 297 298
298 298 299 300 301 301 300 300 299 299 300 300 299 298 299 299 298 299 301 301 299 297 297 298 293 293 294 292 292 291 290 290 290 287 284 287 290 292 292 293 294 295 296
298 298 299 300 300 301 300 300 298 296 296 296 297 297 297 297 295 295 297 296 293 293 292 293 295 295 294 294 293 292 291 289 289 288 287 287 286 290 292 293 293 294 295

GFSSE_sfc_thetae_015.txt.gz
Theta_e
334 343 346 348 348 349 348 349 348 348 349 350 350 350 349 349 349 347 346 346 346 345 343 343 343 344 342 341 341 345 348 347 345 347 347 345 344 347 348 349 348 345 349
338 343 344 347 348 348 349 349 347 349 349 349 349 348 347 347 346 345 343 344 342 341 339 340 342 343 343 342 341 342 343 344 345 346 347 345 344 343 345 346 346 345 348
338 343 345 345 347 348 349 351 351 350 350 349 348 347 346 346 346 343 340 338 338 339 340 339 341 343 341 341 342 342 342 342 342 343 345 340 340 344 343 345 344 345 345
336 341 344 343 344 345 346 347 349 351 350 350 348 347 345 344 344 343 339 338 337 337 339 341 340 343 341 338 337 336 339 339 339 340 342 341 339 342 343 344 343 344 344
334 339 342 341 342 343 343 345 346 346 347 348 348 347 346 345 344 342 338 337 335 335 337 339 340 340 339 337 336 336 336 336 334 336 339 340 339 340 343 342 343 343 344
333 338 339 339 340 341 342 342 342 343 344 344 345 345 345 344 343 340 340 337 334 335 337 339 340 339 337 336 335 334 335 336 335 334 335 336 339 339 340 343 342 342 342
331 335 338 337 339 341 340 340 341 341 341 342 342 342 342 341 339 338 335 336 337 337 339 337 335 335 333 334 332 332 332 333 334 333 334 336 337 338 340 341 342 343 342
329 333 336 338 338 339 339 338 338 339 338 339 340 340 340 339 339 339 338 338 337 337 337 335 335 334 333 334 334 332 332 333 336 335 335 336 336 338 340 340 340 339 339
332 333 334 335 336 335 335 335 335 336 337 336 336 336 336 336 335 335 335 335 335 333 333 332 332 332 330 329 327 327 328 328 333 333 330 333 331 334 337 338 340 340 340
334 334 334 336 335 335 336 333 333 334 335 335 334 333 332 331 331 330 330 332 332 331 330 330 329 327 326 326 325 324 323 325 329 330 331 330 330 334 337 337 338 339 340
333 335 335 335 335 333 332 332 333 334 335 334 334 331 330 335 332 330 329 329 329 328 327 326 325 324 321 320 321 321 321 325 326 326 326 325 327 330 332 334 335 337 340
332 334 335 336 335 333 329 332 335 334 337 338 338 336 335 334 332 329 327 326 326 325 324 323 322 321 320 324 325 322 326 326 326 326 326 324 327 329 331 331 331 335 336
334 335 335 336 336 335 333 333 334 335 336 336 336 336 335 334 334 332 331 329 329 323 325 324 324 326 324 325 325 324 324 324 325 326 323 322 321 325 327 329 330 331 334
334 336 337 336 336 336 335 334 333 333 334 335 335 334 334 332 331 330 328 328 328 327 325 326 326 325 323 322 321 320 320 322 322 321 316 316 316 316 319 322 326 329 331
332 335 337 336 334 333 329 332 333 333 334 335 334 333 332 331 329 327 327 326 326 325 324 325 324 320 317 315 316 315 315 316 318 314 313 312 314 316 319 320 321 325 327
330 332 333 330 329 327 327 329 331 332 333 332 332 332 331 330 329 326 326 325 325 324 324 324 321 316 314 313 313 311 311 313 315 313 312 312 311 314 318 319 321 323 325
326 327 327 326 328 327 324 323 324 325 324 327 328 328 328 327 326 325 325 325 325 325 324 322 317 315 313 310 310 310 310 311 313 311 311 311 312 311 314 315 319 316 318
320 321 323 323 325 325 323 323 322 320 320 319 319 320 322 322 323 324 323 323 324 324 322 320 317 313 310 308 308 308 308 309 309 308 309 310 310 310 312 312 313 313 314
317 319 321 323 323 322 321 321 321 320 319 319 318 317 318 319 321 321 320 320 321 319 320 319 317 313 310 308 307 308 308 307 308 306 307 309 309 310 311 309 309 310 311
316 318 320 319 319 318 317 315 314 314 314 314 314 314 315 316 318 318 318 318 318 316 316 315 314 312 309 308 305 305 308 308 307 308 307 307 308 309 309 308 308 307 308
312 314 316 314 314 314 312 310 311 310 310 311 311 311 312 312 314 315 315 316 316 314 314 314 312 310 308 307 305 305 306 307 307 307 307 306 306 308 307 308 306 304 305
310 311 309 307 307 307 308 309 309 308 309 308 310 311 312 311 311 311 313 313 313 312 313 313 310 308 307 308 304 304 300 303 304 305 306 305 305 306 304 304 302 304 304
307 306 306 306 307 308 308 309 309 310 310 309 309 309 310 310 310 310 310 311 311 311 310 312 311 309 307 307 306 303 299 297 302 303 304 303 303 301 303 301 302 301 302
306 308 309 309 309 309 309 308 307 305 304 306 306 307 308 309 309 308 308 309 310 310 309 309 309 308 307 304 304 303 303 300 298 297 299 300 301 299 299 301 300 300 303
307 307 308 309 308 308 308 306 305 305 305 305 305 305 306 307 307 306 305 306 307 308 307 306 306 305 304 304 301 300 299 298 299 295 294 296 296 298 298 299 299 300 301
308 308 309 308 308 309 308 305 305 304 303 303 304 303 304 304 304 302 302 303 303 302 301 301 301 300 300 299 299 298 297 294 294 294 291 291 292 296 297 297 298 299 299

GFSSE_sfc_thetae_021.txt.gz
Theta_e
342 346 349 349 349 350 349 348 347 349 351 352 350 350 350 351 350 350 349 348 347 344 342 342 343 344 345 343 343 343 344 345 344 344 344 342 343 345 347 347 348 343 347
344 347 348 349 350 350 349 349 348 350 350 349 349 348 349 348 347 345 343 341 343 342 342 341 343 344 343 344 342 342 342 342 342 342 343 342 343 345 344 344 347 344 346
343 346 347 347 349 351 350 350 349 349 349 348 348 347 347 346 344 342 340 339 340 341 342 343 343 345 342 340 338 339 340 340 340 341 343 335 339 345 344 342 344 344 344
341 344 346 345 346 347 348 349 350 350 349 348 347 346 346 345 343 341 340 339 339 339 339 341 342 342 339 337 336 336 336 337 337 338 336 340 337 342 344 343 342 343 343
338 342 344 343 343 345 345 345 346 347 348 347 347 346 344 343 342 342 341 339 337 338 340 340 341 340 338 337 335 334 335 336 337 335 336 338 339 340 342 340 343 343 344
334 338 339 340 341 342 341 342 343 343 344 344 345 346 345 344 343 341 339 339 339 339 340 338 337 335 334 335 333 332 332 334 335 335 336 337 336 341 339 339 341 341 342
329 332 334 338 341 340 340 340 340 340 341 342 342 342 341 341 340 339 337 337 338 339 338 337 337 334 333 334 334 334 334 334 333 334 335 335 337 338 339 339 342 341 341
329 332 332 337 340 340 339 339 339 339 339 339 340 340 340 339 338 338 338 338 337 336 335 335 336 335 334 332 330 330 330 331 335 334 335 335 335 336 337 338 339 339 340
330 332 333 335 336 337 337 337 338 338 337 336 336 336 336 336 335 336 335 335 334 333 333 332 331 330 329 327 326 326 326 329 332 331 331 332 333 335 337 337 337 338 338
331 333 335 336 336 338 337 335 336 337 336 335 334 333 333 334 333 332 334 332 332 331 330 329 328 327 327 326 325 325 325 327 331 330 332 327 330 332 333 335 336 337 336
331 336 336 335 335 335 333 334 333 336 336 335 335 333 332 337 336 334 330 330 328 328 327 326 325 325 325 325 325 324 325 327 328 327 328 328 328 329 331 331 332 334 336
331 333 337 339 337 334 330 334 335 333 336 336 337 337 335 336 336 332 331 329 328 327 327 326 325 325 324 325 324 325 326 325 324 324 327 325 324 326 329 330 331 331 332
331 332 335 342 340 337 334 331 333 333 334 335 337 337 336 335 336 333 333 332 333 328 329 326 326 326 326 325 323 323 322 323 321 321 320 318 317 319 322 325 326 329 331
328 330 335 343 342 338 334 332 331 331 333 333 335 335 334 332 332 332 328 328 327 325 326 326 325 326 327 325 323 321 320 319 317 319 317 315 313 316 319 321 323 325 328
327 330 334 341 345 338 336 333 333 333 333 334 334 332 332 330 330 328 327 326 325 324 324 324 323 323 323 323 321 318 317 317 317 316 317 315 313 317 319 319 321 323 325
328 330 334 338 344 339 331 333 332 334 333 332 331 329 330 330 331 328 326 324 324 323 323 323 323 322 322 321 319 319 317 315 315 317 316 314 315 315 317 318 321 321 320
328 330 333 338 342 338 331 330 329 329 327 328 328 329 328 328 327 327 324 324 323 325 329 325 323 323 321 321 319 318 316 317 315 315 316 314 313 314 316 317 315 315 316
328 327 331 336 339 336 330 329 328 328 326 325 326 326 326 326 326 326 323 323 325 325 323 322 321 320 320 319 319 317 316 315 315 315 315 314 314 313 314 315 314 314 314
326 327 329 336 336 333 330 327 328 327 325 325 326 324 323 324 324 323 322 322 326 323 324 323 321 322 319 319 317 319 318 315 316 313 314 315 315 314 313 315 314 313 312
326 326 329 333 333 329 328 327 323 322 321 322 321 321 322 322 322 321 321 321 322 320 321 321 322 321 321 320 316 316 319 317 316 316 314 313 314 315 314 313 310 308 312
326 327 329 328 325 324 322 319 318 318 319 319 320 321 321 320 319 319 317 318 319 316 319 321 320 319 318 321 318 317 318 319 318 316 317 315 314 314 315 313 313 312 308
320 321 320 319 318 318 319 318 319 318 318 319 320 319 318 317 316 315 316 314 316 314 317 318 318 315 316 319 315 314 310 312 316 317 316 315 316 315 313 314 314 312 311
318 318 318 318 318 318 318 318 318 318 318 316 316 316 316 316 315 314 314 313 314 314 313 315 315 314 311 314 317 312 307 305 310 314 315 314 315 315 315 313 313 311 309
318 319 318 317 317 317 318 315 315 313 312 314 315 316 315 315 314 312 311 311 311 312 313 313 311 312 311 308 311 311 311 311 303 303 311 311 312 310 312 313 312 309 309
318 319 318 317 316 316 316 315 314 313 314 314 313 312 312 311 310 309 309 310 310 310 310 310 310 308 308 306 304 302 303 305 306 298 298 304 307 309 309 308 311 308 307
318 318 317 316 315 316 316 316 314 312 311 309 309 308 307 308 308 308 307 308 309 309 308 307 304 302 300 300 298 296 293 292 291 290 290 292 290 299 301 304 304 305 306

GFSSE_sfc_thetae_024.txt.gz
Theta_e
341 345 350 351 352 351 350 350 350 351 351 352 352 352 352 351 350 348 347 347 346 345 343 343 347 346 345 344 344 344 345 345 345 346 346 344 344 345 347 347 346 342 349
344 345 348 351 351 351 351 351 350 350 351 351 351 351 349 348 346 343 345 346 345 344 344 344 345 345 344 341 341 341 342 343 343 343 345 345 345 343 344 347 347 345 348
342 344 346 348 350 351 351 352 351 351 350 350 350 349 347 345 343 343 342 342 342 342 342 343 344 344 341 340 338 338 338 340 340 341 342 336 338 340 343 345 346 347 347
343 343 343 345 347 349 349 350 351 350 350 349 348 348 347 344 343 342 341 340 340 340 341 343 343 341 340 338 337 337 337 338 338 339 333 332 338 339 338 341 344 344 345
340 341 341 342 344 345 346 347 348 347 348 349 348 347 346 344 343 343 341 340 340 340 341 341 340 339 338 337 336 335 334 336 338 335 329 333 334 338 340 341 343 344 344
336 337 337 339 341 343 343 344 344 344 345 346 346 346 345 344 342 340 339 339 339 340 339 338 336 334 334 334 334 334 335 335 335 327 329 335 333 339 341 340 342 341 341
330 332 334 338 341 342 342 341 342 342 343 343 343 342 342 341 340 339 339 339 339 338 337 337 336 335 335 335 334 334 334 334 332 329 330 334 335 329 337 338 341 341 341
327 329 331 339 340 340 340 340 340 340 340 341 341 340 339 339 339 338 337 337 336 335 335 335 335 334 332 331 330 330 330 331 329 328 330 332 337 337 337 338 340 340 340
328 329 331 333 336 338 337 337 337 337 337 337 337 337 337 337 337 337 336 335 334 333 333 332 331 330 329 328 328 328 328 329 326 327 330 329 337 336 336 337 339 339 338
329 330 332 333 334 334 334 335 336 336 336 335 335 335 335 334 335 336 334 333 331 330 329 328 328 328 329 329 329 328 327 327 323 325 328 327 335 334 332 333 334 335 338
328 334 334 332 334 336 334 334 335 336 335 335 334 333 331 334 333 334 331 332 330 329 329 328 327 327 327 327 328 328 327 321 321 320 325 330 330 330 330 331 332 333 335
329 331 335 335 334 332 328 332 336 335 335 336 336 335 335 333 333 331 332 331 331 330 330 329 328 327 326 320 322 326 322 321 318 318 323 327 325 325 326 330 331 332 332
329 330 335 340 337 337 334 330 333 332 334 337 338 333 335 332 335 332 331 328 328 329 327 326 324 322 324 322 321 320 319 317 316 317 320 323 322 320 321 325 327 329 331
328 330 337 340 340 336 334 332 331 331 332 332 332 333 331 330 330 327 326 324 323 322 322 321 321 323 321 323 322 319 317 315 313 313 314 319 319 316 318 322 325 326 328
325 329 333 340 342 339 334 334 332 331 333 331 331 331 330 328 327 327 325 324 322 321 319 320 318 319 319 320 319 317 315 314 314 312 312 316 317 316 318 321 323 325 327
327 330 334 338 343 339 333 331 331 332 332 332 329 328 328 327 327 325 323 323 321 321 320 319 318 319 318 318 317 317 314 313 312 312 311 310 316 319 320 319 321 324 326
326 330 334 334 341 339 332 330 328 328 325 325 327 326 325 325 324 323 322 321 321 322 321 320 319 318 318 318 316 316 316 314 312 312 312 312 310 317 319 320 321 320 320
327 325 329 333 340 338 333 329 326 326 325 324 324 324 324 324 324 322 321 321 322 322 320 319 318 316 315 315 314 315 313 313 312 311 311 311 310 309 315 319 320 318 318
327 327 328 334 336 336 332 328 326 326 323 323 325 322 324 322 323 320 319 320 321 319 318 318 316 316 314 314 314 313 314 313 312 312 310 310 311 310 309 315 318 318 318
328 328 329 332 332 330 328 325 323 322 321 322 321 320 321 319 320 319 317 317 318 315 314 314 314 314 314 314 315 314 313 314 314 311 310 312 310 310 310 309 311 311 316
327 326 326 324 324 322 321 318 317 317 318 318 319 321 319 319 316 315 314 313 313 312 312 312 311 309 310 311 311 310 311 313 314 314 312 309 309 310 310 310 308 306 308
319 320 319 319 319 318 317 317 317 317 318 318 319 316 318 316 315 313 312 310 310 309 309 309 308 308 308 309 307 306 302 306 309 311 313 311 309 310 309 310 309 308 306
318 318 317 317 318 318 318 317 316 316 316 314 314 314 316 315 314 314 313 311 309 308 306 306 306 305 304 306 307 304 299 298 302 306 308 309 311 311 311 310 310 309 308
318 319 318 318 317 317 317 315 315 313 311 312 313 312 312 314 312 309 308 308 307 307 305 306 307 305 303 300 302 302 299 299 297 297 301 304 306 306 306 307 307 309 309
319 319 318 317 316 317 316 316 314 311 311 311 310 310 308 309 308 307 306 305 306 306 306 304 302 300 299 297 296 295 295 295 295 293 291 294 296 297 298 301 304 305 307
319 318 318 316 315 317 315 314 312 310 309 308 308 306 306 305 305 305 305 304 305 305 305 303 302 299 299 297 296 294 292 291 290 288 288 287 288 293 295 298 299 302 304

GFSSE_sfc_thetae_030.txt.gz
Theta_e
342 346 348 349 348 348 348 348 349 349 350 352 351 350 349 348 348 348 348 348 348 346 346 346 345 344 343 342 341 341 341 340 341 341 341 341 343 342 343 346 347 344 346
343 346 346 348 349 349 349 349 349 350 351 351 349 348 347 346 346 345 344 344 345 344 344 345 344 343 341 340 339 339 338 339 339 339 338 338 343 340 340 344 345 343 345
344 346 347 347 350 350 350 350 350 351 349 349 347 346 345 344 343 342 342 342 343 343 344 344 343 341 340 338 337 337 336 337 338 338 336 327 336 338 339 342 343 345 345
344 345 345 346 348 349 349 349 348 349 348 348 346 345 344 343 342 342 341 343 343 342 341 341 340 338 337 337 336 336 336 336 336 336 326 328 335 335 336 337 341 342 341
339 342 343 343 345 347 347 347 348 348 347 347 346 345 345 343 342 341 340 342 341 340 340 338 337 335 335 334 334 334 334 335 335 330 324 330 333 337 338 335 337 341 341
331 334 338 340 343 345 345 346 346 346 345 345 345 345 343 341 340 339 339 340 339 338 337 336 336 336 334 334 333 332 332 332 332 324 324 331 333 332 337 337 339 340 340
326 331 334 338 340 342 342 342 343 343 342 343 343 343 341 340 339 339 338 337 336 335 335 335 334 333 332 332 331 331 330 330 324 319 324 329 331 339 338 339 339 339 339
327 330 334 338 339 340 340 340 339 340 340 340 341 341 340 339 338 337 336 335 334 333 332 331 330 330 330 331 331 330 329 329 325 319 324 328 331 337 338 338 338 338 338
327 328 330 333 335 336 335 335 335 336 337 337 337 337 337 336 336 337 335 334 333 332 330 329 329 329 329 329 329 328 327 328 321 317 321 327 336 337 334 336 336 336 337
323 327 326 328 329 328 329 333 333 333 333 334 334 334 333 334 334 335 334 334 333 331 330 329 329 328 328 327 327 326 326 327 318 316 321 324 336 336 335 334 334 333 333
322 323 325 326 326 327 328 331 333 333 333 332 332 332 329 329 330 332 330 331 332 331 330 330 329 328 326 326 326 325 327 319 317 315 320 326 333 335 334 333 332 331 332
320 323 324 324 325 326 330 329 328 330 329 328 328 328 327 326 326 330 329 330 331 330 330 330 329 329 326 319 317 321 318 318 315 311 317 326 331 332 331 330 331 331 332
322 325 324 326 326 324 325 325 325 327 327 327 328 327 325 326 326 325 322 324 322 326 322 323 322 321 320 318 317 316 316 315 311 310 314 326 328 327 327 326 326 327 329
322 324 324 323 325 323 322 324 325 325 327 327 327 324 321 321 317 318 321 319 318 317 319 318 318 317 316 317 316 316 316 313 310 310 311 323 325 325 325 324 324 325 326
322 324 324 324 323 322 321 320 321 322 325 326 323 322 321 318 316 316 316 315 314 314 313 312 312 312 312 313 314 313 313 313 311 310 308 317 322 323 323 323 323 323 324
324 325 326 325 325 326 322 321 321 323 321 322 321 320 321 319 317 317 314 315 314 314 314 313 312 312 313 313 314 314 314 312 311 309 308 308 318 321 322 322 322 322 322
324 329 328 330 330 328 327 323 319 321 320 320 319 319 320 318 316 314 313 313 313 314 313 312 311 312 311 313 311 312 312 312 312 310 309 308 309 318 319 322 324 323 322
327 330 330 329 327 324 326 324 320 316 314 315 316 316 317 317 315 313 311 311 312 311 310 309 309 308 307 307 307 309 309 310 310 310 309 308 308 309 314 319 322 324 324
322 327 325 325 323 321 324 321 317 315 313 313 313 314 314 316 315 311 309 308 308 307 306 307 305 305 304 304 306 306 306 307 308 311 309 309 307 308 307 312 319 320 322
317 320 320 321 321 323 318 315 312 311 310 311 311 310 311 310 310 308 308 307 306 305 305 303 302 302 302 302 305 305 304 306 307 307 307 310 308 306 306 306 307 313 318
311 312 313 313 311 310 309 309 308 307 308 309 309 310 309 309 309 306 305 304 304 303 302 302 301 300 300 301 300 301 301 303 303 302 304 305 306 307 307 308 306 307 309
310 309 309 309 308 308 308 307 307 306 308 307 307 307 306 305 305 303 301 301 301 302 301 300 299 299 299 298 296 296 295 298 298 299 300 303 298 300 300 302 305 307 305
306 307 308 308 308 307 308 307 307 306 305 304 304 303 303 303 302 302 301 300 299 300 299 299 298 297 295 295 297 296 291 289 291 295 295 297 296 295 296 298 301 306 307
305 306 307 307 308 308 308 307 305 303 302 302 302 301 301 301 301 301 300 299 298 299 299 298 298 295 297 295 297 298 297 295 289 286 292 293 292 293 292 294 297 301 306
307 305 306 308 308 308 308 306 305 303 303 302 301 299 299 299 300 299 300 299 299 299 298 297 296 296 295 293 293 294 289 289 288 288 283 286 289 290 291 292 295 297 302
306 305 305 306 306 307 306 305 303 302 301 299 298 296 297 297 297 297 299 298 298 297 297 296 295 294 293 292 292 290 289 287 286 288 286 285 284 287 289 290 291 295 298

GFSSE_sfc_thetae_033.txt.gz
Theta_e
342 345 347 348 349 348 348 348 348 349 350 351 350 349 348 348 347 347 347 347 348 345 345 345 344 343 342 341 340 340 339 338 338 339 339 339 342 339 343 347 346 343 345
343 345 345 348 348 348 348 348 349 351 350 348 347 346 346 345 344 343 343 343 344 344 344 344 343 342 340 339 338 337 337 337 337 337 338 335 341 339 341 344 343 343 343
343 344 345 346 348 348 349 350 350 350 348 347 345 344 344 343 342 341 342 343 343 344 342 341 341 340 339 338 337 337 337 336 336 336 333 327 333 337 337 341 342 344 343
344 344 346 347 348 348 348 349 349 348 347 346 345 344 343 342 342 341 341 341 340 340 340 338 337 336 335 334 335 335 335 335 335 334 325 327 335 337 334 337 340 341 341
342 343 345 345 346 347 347 347 348 347 347 346 345 344 343 342 341 339 340 340 339 338 336 336 336 335 334 334 333 333 332 332 332 326 323 326 331 336 337 334 335 340 341
334 337 340 342 343 345 346 347 346 346 345 345 345 344 342 340 338 338 339 338 337 335 335 335 334 333 332 331 331 330 330 330 327 319 322 326 333 334 335 339 339 339 339
329 333 337 339 342 344 344 345 344 344 344 343 343 342 339 338 338 338 338 336 334 334 333 332 331 331 330 331 330 330 329 329 322 317 321 326 329 337 338 339 341 339 338
328 330 333 339 340 341 342 341 340 340 340 340 341 341 340 339 338 336 335 334 333 331 330 329 329 329 329 329 329 328 327 328 322 316 317 323 331 335 336 339 339 337 337
327 327 329 332 335 337 336 336 336 337 337 338 338 338 337 336 336 336 335 333 331 330 329 329 328 328 328 328 327 327 326 327 317 316 318 320 331 336 336 335 336 337 337
323 326 325 327 327 327 328 333 333 334 334 334 335 334 333 333 334 334 333 334 332 330 330 329 328 327 327 327 326 326 326 324 315 314 316 321 332 335 336 334 333 334 335
322 323 324 325 325 325 325 330 332 333 333 332 332 332 329 327 328 330 330 331 332 331 330 330 329 328 327 326 325 325 325 316 315 313 311 323 330 334 335 334 332 332 333
318 321 323 323 323 325 329 327 326 329 328 327 327 327 326 324 324 329 329 331 331 331 331 330 330 329 327 319 317 320 315 315 314 311 310 322 327 331 332 331 330 330 331
319 321 323 322 322 323 324 325 324 326 326 326 326 324 324 325 324 324 322 321 320 323 320 321 320 319 318 316 316 315 315 314 312 311 311 320 327 328 327 328 327 326 328
319 321 322 323 323 321 322 324 323 324 325 325 326 326 323 321 319 318 320 318 315 313 313 314 313 313 312 312 313 313 313 313 312 311 310 319 325 326 325 326 325 325 327
320 322 322 323 323 322 320 321 322 323 326 326 326 323 320 317 315 315 314 313 313 312 312 312 311 311 311 312 312 312 312 312 311 311 309 316 319 324 326 326 326 325 325
321 322 321 322 323 322 319 319 320 321 323 324 323 320 320 317 315 315 312 313 312 312 312 310 309 309 308 309 309 310 310 311 311 310 309 308 316 319 322 325 325 325 325
322 323 322 323 324 323 321 320 318 320 319 320 320 318 318 317 315 313 312 310 311 310 308 308 307 306 305 306 305 307 307 308 309 309 309 308 309 313 319 321 323 325 325
323 324 325 329 324 323 323 321 317 314 312 315 315 315 315 315 313 311 309 308 307 306 306 305 304 303 302 302 302 302 304 305 307 307 308 308 307 308 310 316 320 322 325
326 325 324 325 322 324 319 315 313 310 310 310 311 310 311 310 309 307 306 305 305 304 304 303 302 302 300 300 302 302 301 302 304 307 306 307 307 307 307 309 313 316 321
316 319 320 321 323 321 314 312 309 309 308 308 307 307 306 306 305 303 303 303 305 303 302 301 300 300 299 299 302 302 300 302 302 300 301 305 303 302 302 304 305 306 311
312 314 316 315 311 310 310 312 309 305 305 305 305 305 304 304 305 303 302 300 301 300 300 300 299 298 298 297 296 297 298 299 297 295 298 300 298 299 298 298 300 304 307
311 308 307 307 307 307 307 306 306 305 304 303 302 302 303 303 302 300 299 298 299 300 298 297 298 298 297 296 293 293 290 292 293 295 295 297 294 296 295 296 297 301 304
305 305 306 306 306 307 307 306 305 304 304 302 301 300 300 300 300 299 298 298 298 298 297 297 296 295 294 294 294 291 287 285 288 291 292 292 291 292 292 294 295 298 300
304 304 305 306 306 306 306 305 304 302 301 301 299 299 298 299 298 299 299 299 298 298 297 296 297 294 293 291 293 295 292 293 285 284 289 289 290 291 291 292 292 295 297
304 303 304 305 306 306 306 305 303 302 302 301 299 297 297 297 298 299 299 298 297 297 296 295 293 293 293 291 290 291 288 289 288 287 284 287 289 288 289 290 290 292 296
304 303 303 304 305 305 304 304 303 301 299 297 296 297 296 295 295 297 297 296 296 295 295 294 293 292 291 290 290 289 288 288 285 287 287 286 286 287 288 289 288 290 294

GFSSE_sfc_thetae_036.txt.gz
Theta_e
340 342 347 349 349 349 347 347 348 349 349 350 349 349 348 347 346 346 347 347 347 345 344 344 343 342 341 340 340 339 338 338 338 338 339 339 342 339 343 344 345 341 345
342 343 345 347 348 348 348 348 350 350 349 347 346 346 346 345 344 343 343 344 345 343 342 342 341 341 340 339 338 338 337 337 336 337 335 335 340 339 340 343 343 342 344
343 342 344 346 348 349 350 350 350 349 347 346 344 345 344 343 342 342 343 343 343 341 340 339 338 337 336 336 336 336 335 335 335 335 333 327 333 339 338 341 341 343 342
342 342 343 346 347 349 349 349 349 348 346 345 345 344 342 342 342 342 341 340 340 339 337 336 335 335 335 334 333 332 332 332 331 330 324 327 332 338 337 338 340 340 339
343 344 344 344 345 347 348 348 348 347 346 345 345 343 342 342 340 339 339 339 338 335 334 334 334 333 332 331 331 330 329 330 327 322 322 325 331 336 338 337 336 338 339
340 343 341 342 344 346 347 347 346 346 345 344 344 343 342 339 338 339 339 337 335 334 333 332 331 331 330 330 329 329 329 329 324 316 319 327 330 338 339 341 340 339 338
336 338 338 340 343 346 346 345 345 344 344 344 344 342 339 338 338 338 336 334 334 332 331 330 329 329 329 330 330 328 328 329 319 315 316 322 327 337 338 339 341 339 338
331 332 335 341 342 343 344 343 342 342 342 341 341 340 339 338 338 335 334 333 332 330 329 329 329 329 329 329 329 328 327 328 318 315 317 320 328 337 338 338 339 338 338
326 327 329 332 336 338 338 338 337 338 338 338 338 338 337 336 336 335 334 332 331 330 330 330 329 329 330 329 328 327 326 327 315 315 316 321 333 335 336 335 336 337 337
323 325 324 326 328 328 330 334 334 335 335 335 335 334 333 333 333 333 332 332 331 331 331 332 330 330 329 328 327 326 326 322 315 314 311 314 329 331 334 335 334 333 334
322 322 322 323 324 324 325 330 333 334 333 333 333 332 329 326 326 327 330 330 332 331 331 331 331 330 328 325 325 325 323 316 315 314 311 318 325 327 330 333 334 332 332
318 321 322 321 322 323 327 327 325 328 327 327 327 326 325 323 323 327 328 330 331 330 329 328 327 326 322 317 316 319 315 315 315 314 312 320 324 326 327 329 333 331 331
317 320 322 322 321 321 324 324 323 324 324 324 324 324 324 324 323 323 321 320 319 322 316 318 316 316 314 313 313 313 313 313 313 313 313 320 322 326 327 327 331 330 330
316 319 321 321 320 320 321 322 322 323 324 323 324 325 322 321 319 319 319 317 313 312 312 311 311 311 311 312 312 311 311 311 312 312 312 319 320 323 326 327 328 330 330
315 318 320 321 320 320 320 320 320 322 323 324 324 324 321 319 316 314 313 312 311 312 311 310 309 309 308 308 308 308 308 309 310 310 310 316 318 320 323 326 327 327 329
317 319 321 321 322 321 318 319 319 320 321 323 323 320 319 316 314 313 311 310 310 309 308 307 307 305 304 305 305 305 306 307 307 308 309 309 315 316 318 321 324 326 326
318 320 320 322 322 322 319 318 318 319 319 319 318 317 316 315 312 310 308 307 306 306 305 305 304 303 302 303 302 303 305 304 305 306 307 308 308 311 313 315 318 320 322
319 321 324 324 323 322 318 318 316 313 312 313 313 312 310 310 308 306 304 303 304 304 304 303 302 302 301 300 300 301 301 303 304 305 305 306 306 306 307 309 311 314 316
322 323 322 322 323 320 315 313 314 311 308 309 308 306 305 306 305 303 302 302 302 302 303 302 301 300 299 300 300 301 300 300 302 301 302 303 302 301 300 302 305 306 310
319 321 322 323 321 316 315 313 309 308 305 305 303 303 304 305 305 304 301 301 301 300 299 299 298 299 298 298 300 301 299 300 297 296 298 300 299 298 298 297 297 300 305
314 318 320 320 320 315 312 308 305 304 302 302 301 302 303 302 301 299 298 298 298 298 297 298 298 297 297 296 295 295 296 298 294 294 297 298 295 296 296 296 295 296 301
312 312 310 307 307 307 306 304 304 302 301 301 300 300 300 300 299 299 297 297 297 297 298 297 296 295 296 294 292 291 288 290 292 294 293 295 292 293 294 295 295 295 298
303 303 304 305 305 306 306 304 303 303 301 300 299 298 298 299 298 298 298 298 298 298 297 296 294 293 292 293 293 291 286 284 288 291 291 291 291 291 292 292 294 294 297
303 303 304 305 305 305 305 303 301 300 299 299 298 297 296 297 297 299 298 298 297 297 295 295 296 293 292 290 291 294 292 290 285 284 289 290 290 291 290 291 292 293 296
302 302 302 304 305 305 305 303 302 300 299 298 297 296 296 296 297 298 298 297 296 296 295 294 293 292 292 290 290 289 288 288 287 287 285 288 290 290 290 290 291 291 295
302 301 302 304 303 304 303 303 302 300 297 296 295 295 295 294 294 296 296 295 295 294 294 293 292 292 291 290 290 289 288 289 288 288 286 287 287 290 290 290 290 290 291

GFSSE_sfc_thetae_039.txt.gz
Theta_e
341 346 347 348 349 348 348 348 349 349 349 350 350 349 349 348 348 348 348 348 347 344 344 343 342 341 341 340 339 339 338 338 338 338 338 339 342 341 343 344 344 340 343
344 346 345 347 348 347 348 349 349 349 349 348 347 347 347 346 345 344 344 346 345 342 342 341 340 339 338 337 336 336 336 336 335 336 336 338 340 341 340 342 343 340 342
343 345 347 345 348 348 350 350 349 349 347 346 345 345 344 343 343 344 344 343 341 340 338 337 336 337 336 334 333 333 332 332 331 331 332 337 340 341 339 343 342 342 341
343 345 346 346 348 349 349 349 348 348 346 346 345 344 342 343 343 342 341 342 339 337 335 334 334 332 332 331 331 330 330 330 328 330 335 336 337 339 340 339 338 339 340
344 345 346 345 346 348 348 348 347 347 346 346 344 343 343 342 340 340 340 340 337 334 333 332 332 331 330 330 330 330 330 329 326 330 333 337 339 338 338 340 339 340 340
342 345 344 342 345 347 348 347 347 346 345 344 344 343 341 339 339 339 337 337 334 332 331 330 329 329 329 331 331 329 329 328 327 327 329 332 337 339 339 340 340 340 339
341 344 346 340 344 346 347 346 345 344 344 344 344 342 339 338 338 336 335 334 333 331 330 330 329 329 330 331 329 329 329 328 324 324 326 330 335 338 338 338 340 339 339
340 343 345 343 343 343 344 343 342 342 342 342 341 340 339 338 337 334 334 333 332 331 330 330 329 329 330 329 329 328 328 328 324 323 323 324 333 335 336 336 337 337 337
340 341 342 343 343 341 339 339 339 339 339 339 338 338 337 336 335 335 334 333 331 332 332 331 331 331 330 329 328 327 327 325 325 324 321 321 328 330 332 335 337 336 335
334 336 337 338 340 341 341 336 335 336 335 336 336 335 333 333 333 333 331 333 333 332 332 332 332 331 330 327 327 326 325 324 326 325 323 322 326 328 328 331 334 335 333
327 330 332 333 334 335 335 335 335 335 334 333 333 332 330 334 334 333 330 331 332 332 331 331 330 328 326 324 324 324 323 325 324 324 324 322 325 328 328 330 334 335 333
324 326 329 331 330 331 330 335 335 334 334 334 333 334 334 334 335 334 332 329 329 327 325 326 325 324 324 324 323 323 322 323 322 323 323 322 325 328 329 330 332 333 333
323 325 328 329 329 329 330 332 331 332 333 333 333 333 333 334 335 335 335 333 330 322 324 323 323 322 322 321 319 318 318 318 319 319 319 320 322 325 327 328 329 332 332
321 325 327 328 328 328 329 330 331 331 331 332 333 333 335 333 334 333 331 325 324 323 323 322 321 320 318 317 316 314 315 313 313 313 316 318 318 322 324 326 327 328 331
320 324 327 328 327 327 327 329 330 330 331 333 333 334 333 332 328 325 323 322 321 321 319 318 317 316 315 314 313 312 312 312 312 312 314 316 316 318 321 323 325 326 326
321 324 327 328 329 328 326 326 326 328 329 331 332 329 328 326 325 322 320 317 316 316 316 316 314 314 312 312 311 312 311 311 311 313 313 315 313 313 316 318 319 322 323
321 325 326 329 328 325 323 322 321 319 323 326 325 325 323 322 321 318 316 315 314 315 315 314 313 313 311 310 309 309 309 310 311 311 311 312 312 309 308 309 311 313 316
324 327 328 327 324 324 322 322 317 316 318 318 320 319 317 316 315 314 312 312 312 312 311 310 309 308 308 307 308 308 309 309 311 307 308 309 308 306 306 305 306 307 309
327 326 326 326 324 323 318 314 314 314 314 313 312 311 312 311 312 311 310 310 310 309 308 308 307 307 305 306 306 306 307 307 309 305 306 305 305 304 303 302 302 303 304
325 324 325 324 321 316 313 313 314 311 310 310 310 309 311 310 310 309 308 308 308 307 307 307 307 307 307 306 303 304 303 306 307 304 303 303 303 302 302 302 301 301 301
327 327 322 322 321 317 313 312 309 310 308 308 309 309 309 308 308 309 307 307 307 305 306 306 305 304 303 304 302 300 301 306 304 303 302 302 301 301 302 301 300 300 301
324 325 325 320 319 317 315 314 314 311 310 309 308 308 308 307 307 306 307 306 306 304 304 304 304 301 302 303 298 297 294 296 302 301 301 300 300 300 300 300 300 300 300
318 319 322 320 317 317 315 313 311 311 309 307 307 307 306 306 306 306 306 307 306 305 302 303 303 301 298 301 301 297 291 290 294 298 298 299 299 299 299 299 300 300 300
311 312 313 313 313 313 313 313 312 312 310 309 308 306 306 305 305 306 306 306 306 305 303 302 303 302 301 297 298 299 299 297 288 287 295 295 297 297 299 299 298 299 300
311 311 312 312 312 312 313 313 312 309 308 307 306 305 306 306 304 305 305 305 305 304 304 303 302 302 302 298 297 296 296 295 295 290 287 290 294 295 297 296 297 298 299
310 311 312 311 310 311 312 311 311 309 307 306 306 306 305 304 303 304 304 304 304 304 303 302 302 301 300 299 298 296 294 291 290 289 287 288 289 292 294 295 295 296 298

GFSSE_sfc_thetae_042.txt.gz
Theta_e
343 347 349 349 349 349 349 349 349 349 350 350 350 350 349 348 348 348 348 347 346 344 342 342 341 340 340 339 339 338 337 337 337 338 339 340 342 342 341 342 344 339 343
346 347 346 349 349 349 349 349 349 349 350 348 347 346 346 346 345 345 346 345 343 341 340 339 338 338 337 336 334 333 333 333 333 335 337 339 343 341 340 341 343 340 342
345 346 347 346 348 349 349 350 350 349 347 346 346 345 344 344 345 345 343 342 340 338 337 336 335 333 332 331 331 331 331 330 331 333 336 336 339 342 339 341 342 341 340
344 346 347 345 347 349 349 349 349 348 347 346 345 344 343 344 343 341 341 341 338 335 334 332 331 330 330 331 331 331 331 330 329 333 336 336 337 340 340 339 341 339 339
344 347 348 345 346 348 348 347 348 347 347 346 345 343 343 341 340 340 338 339 337 334 332 331 330 329 330 330 330 330 331 329 331 332 332 338 337 339 340 338 338 340 339
344 347 345 343 345 347 347 348 347 347 345 345 344 343 340 339 339 337 337 337 333 332 331 330 329 328 330 331 330 330 330 328 330 327 329 333 337 338 338 338 340 339 340
343 346 347 341 343 346 348 347 346 345 344 344 344 342 339 339 337 335 335 334 333 331 331 330 330 330 330 330 330 329 329 328 325 325 326 329 329 334 337 337 336 336 336
343 344 345 344 344 345 346 344 343 343 343 342 341 341 339 338 336 334 333 332 331 331 331 330 330 331 331 330 329 328 328 328 324 323 322 323 330 330 331 335 337 336 335
344 344 345 345 344 341 340 340 340 341 340 339 339 338 337 336 335 335 334 332 332 332 331 331 331 331 330 328 328 326 326 326 327 325 323 324 328 330 330 330 333 335 334
344 341 339 339 340 341 342 338 338 337 336 336 336 335 333 333 333 332 333 333 332 332 331 331 330 329 327 326 325 325 325 328 325 325 325 326 327 330 331 330 330 332 334
336 337 336 335 337 337 337 338 335 336 335 334 334 333 331 334 334 333 331 332 332 330 329 329 327 326 327 326 325 324 326 324 324 324 324 324 326 329 330 331 332 334 334
327 329 332 333 333 334 330 335 335 333 334 336 335 336 336 338 337 334 332 329 328 325 326 325 325 326 326 326 325 324 322 323 322 322 322 321 322 325 327 328 329 330 333
325 326 329 332 334 332 332 332 332 334 336 338 339 339 339 339 340 339 338 336 335 326 330 329 329 327 325 324 322 321 320 320 319 318 319 319 320 323 325 326 327 328 330
324 326 329 331 333 333 331 332 334 335 337 338 339 340 341 338 341 339 336 334 333 331 330 328 327 325 323 320 319 319 319 318 318 317 319 317 317 321 323 324 325 326 326
325 327 329 330 331 332 333 334 335 338 338 339 340 339 338 338 337 335 334 332 329 328 326 324 323 321 320 319 319 318 317 317 317 316 317 316 315 316 318 319 321 322 323
327 329 332 332 332 333 333 334 332 332 333 337 337 335 331 332 331 332 331 328 326 323 322 321 319 318 317 317 317 317 316 316 316 316 315 317 312 309 311 313 315 316 317
328 331 332 333 333 332 331 330 328 327 329 328 331 331 330 331 331 329 325 322 319 318 318 317 316 317 315 315 314 314 314 314 313 314 312 313 314 310 306 307 309 310 311
327 331 332 332 331 330 327 323 322 322 324 326 327 327 325 324 322 319 318 316 316 316 315 315 314 313 312 311 311 310 310 311 310 312 310 311 310 309 311 305 305 306 306
329 332 330 332 330 328 326 321 321 318 319 319 318 317 316 315 316 315 315 316 316 314 313 311 309 309 307 307 306 305 307 307 307 307 308 309 309 307 306 307 304 304 303
332 332 331 331 322 319 321 320 317 315 313 313 313 314 314 314 315 316 315 315 313 310 308 308 307 307 307 307 304 304 306 306 307 308 307 306 306 306 306 305 305 305 303
329 330 330 328 325 323 326 320 315 312 314 315 316 315 315 315 315 315 312 310 309 307 307 307 306 305 304 306 303 302 303 305 308 307 306 305 304 304 304 304 304 304 304
328 329 329 330 331 329 325 322 320 318 318 317 316 315 314 314 312 310 310 308 308 306 307 306 306 303 303 304 301 300 295 298 301 305 303 303 304 303 302 303 304 303 304
329 330 329 328 327 324 322 320 319 318 316 314 314 313 313 312 311 309 309 308 308 307 305 306 305 304 300 302 303 299 294 292 296 300 300 300 302 301 302 302 302 302 302
326 326 323 323 322 321 321 319 318 317 315 316 318 315 314 311 309 308 308 308 308 307 306 306 304 304 303 299 300 300 300 298 290 290 297 298 298 298 300 300 300 300 301
319 320 321 320 319 319 319 318 319 317 316 316 315 312 313 312 309 307 307 308 308 307 307 306 305 304 303 300 299 296 296 295 295 292 289 292 295 297 298 297 298 298 299
318 319 319 318 317 318 319 318 317 315 313 312 312 309 309 308 308 307 307 307 307 307 306 305 305 303 302 301 299 297 294 291 291 290 290 290 291 293 295 296 295 296 297

GFSSE_sfc_thetae_048.txt.gz
Theta_e
337 343 349 350 351 351 350 350 349 350 350 350 350 350 349 348 348 347 346 345 344 341 340 338 336 333 333 332 332 333 333 334 336 337 342 343 342 342 341 343 341 337 345
339 342 347 349 350 350 350 350 350 349 349 349 349 348 348 348 347 346 344 343 341 337 335 333 332 333 333 333 334 334 334 336 337 338 341 343 342 341 342 342 342 341 343
340 342 344 347 349 350 350 350 350 349 348 347 347 347 347 346 344 343 342 340 339 334 333 332 333 334 333 333 333 333 334 336 336 337 339 336 337 341 340 343 341 342 342
341 340 342 347 348 349 349 349 348 348 347 346 346 346 344 343 342 339 340 338 337 333 332 333 333 333 332 332 332 332 333 335 335 336 332 335 334 341 339 340 341 337 339
341 342 344 346 347 348 348 348 348 348 346 346 345 343 341 340 338 337 338 337 336 332 331 333 333 332 332 332 333 333 334 333 333 330 325 327 329 336 339 338 336 337 338
342 343 342 344 346 347 347 347 347 346 345 345 343 342 340 337 337 336 337 337 334 333 333 333 332 332 332 333 333 332 332 332 332 320 322 327 326 334 334 337 339 338 337
339 340 344 340 344 346 347 346 345 345 344 342 342 341 339 336 335 336 336 336 334 333 332 332 332 332 332 332 331 331 330 330 326 318 321 323 327 334 332 332 337 338 337
336 341 342 343 344 344 344 344 343 343 342 341 341 339 338 337 336 336 335 335 334 333 332 332 332 331 331 330 329 329 329 330 324 320 323 325 332 333 333 333 335 334 335
339 340 341 343 343 341 340 340 340 340 339 339 339 337 336 336 335 335 335 335 334 334 332 332 331 330 329 327 327 327 327 329 322 320 322 322 332 331 331 332 332 334 335
337 338 340 341 341 340 339 338 337 336 336 336 335 334 332 332 333 334 334 334 333 332 331 330 330 330 328 327 325 324 326 327 317 318 319 322 329 327 328 329 330 330 333
334 337 337 336 338 338 338 337 336 336 336 334 333 333 329 328 329 331 332 333 332 330 330 329 329 328 329 328 327 323 326 318 317 317 317 325 325 324 324 325 327 328 330
329 330 333 334 334 335 333 334 332 332 331 331 331 330 330 334 332 330 331 332 331 330 330 329 328 328 327 322 320 325 318 319 318 317 315 324 324 323 323 324 325 326 327
327 328 330 332 333 331 328 332 329 330 334 336 335 335 335 334 332 330 331 330 328 328 327 324 325 325 323 321 319 319 318 317 316 316 318 322 320 321 321 321 321 322 322
323 326 329 332 334 332 329 329 330 332 335 334 336 336 335 334 333 332 332 330 328 325 325 324 323 322 321 320 320 319 318 317 315 315 317 320 319 319 318 318 318 318 318
322 325 327 331 332 331 334 335 334 334 334 334 335 335 334 334 332 332 329 329 326 324 321 319 318 317 316 316 316 317 316 314 314 313 312 318 317 315 315 315 315 315 315
323 324 327 329 333 336 333 333 330 330 333 334 334 333 333 333 330 330 327 322 319 318 317 315 313 314 314 314 312 312 312 312 310 310 310 311 316 314 312 312 311 312 312
325 326 328 331 334 332 328 326 325 326 327 328 329 329 327 326 325 323 321 317 316 316 315 314 312 309 308 308 306 306 307 305 304 305 306 306 310 314 311 308 308 309 310
327 327 330 332 331 327 325 324 324 323 322 325 325 324 322 323 322 319 316 315 315 314 313 310 308 305 304 304 303 303 305 303 303 305 305 305 305 306 310 309 308 308 309
329 329 330 332 328 327 325 324 322 323 321 321 320 319 317 318 318 316 315 314 313 311 309 307 306 304 302 301 301 300 302 302 303 304 303 304 305 304 303 309 311 311 306
332 331 332 329 327 325 325 326 324 322 318 317 316 315 316 316 317 316 315 312 310 308 306 305 304 304 303 301 302 301 301 302 301 301 302 306 304 304 302 302 301 301 309
332 331 330 326 326 325 327 323 320 318 316 316 316 316 317 316 316 313 312 309 308 307 305 305 303 301 301 301 298 298 298 299 300 299 299 300 301 302 301 301 299 299 299
330 329 329 328 327 327 329 324 323 318 317 316 317 317 317 316 313 312 309 308 308 305 305 304 303 301 300 300 296 296 292 294 297 298 297 297 296 298 298 298 297 299 297
329 328 327 328 327 329 326 323 321 319 317 315 315 314 315 314 312 310 309 308 306 305 303 303 302 301 297 298 299 295 291 288 292 295 295 295 295 295 296 297 297 297 297
326 328 329 329 329 326 322 319 317 314 312 314 314 314 313 313 311 309 308 306 305 305 303 302 302 301 299 296 297 299 296 294 289 288 292 293 294 294 293 294 294 296 296
328 328 329 328 323 321 321 320 318 317 314 316 315 314 313 313 312 308 307 306 304 304 303 302 301 299 298 296 295 294 293 293 292 289 286 288 291 292 293 293 293 293 294
329 327 323 320 319 320 320 320 319 318 314 313 311 311 310 310 308 307 307 305 304 303 302 300 299 299 298 297 296 295 293 291 290 290 286 286 287 289 291 292 291 291 292

GFSSE_sfc_thetae_051.txt.gz
Theta_e
339 346 349 351 351 350 349 349 348 349 349 350 350 349 349 348 346 346 345 343 341 336 334 333 333 334 334 334 334 335 335 336 338 340 343 342 342 341 341 343 342 340 344
342 347 348 349 349 349 349 349 349 349 349 349 349 348 347 346 344 343 342 340 338 334 334 335 334 334 334 334 334 334 335 338 338 339 342 340 341 341 340 342 341 340 344
342 346 348 347 348 349 349 349 349 349 348 348 348 346 345 343 342 341 339 338 337 334 335 335 334 333 333 332 333 333 336 337 336 336 340 336 335 339 339 341 340 341 339
342 345 346 346 347 348 348 348 348 348 347 347 346 345 343 341 340 337 337 337 336 334 335 334 334 333 332 332 332 334 335 335 336 338 333 331 333 339 339 337 337 336 335
339 343 346 345 346 347 347 347 347 346 346 344 343 342 341 339 336 335 337 337 336 334 334 334 333 332 332 332 333 333 334 334 333 327 321 323 325 332 335 337 336 336 336
339 343 342 343 345 346 347 346 346 345 343 342 342 341 339 336 336 336 337 336 335 334 333 333 332 331 332 332 332 332 332 332 327 317 321 329 326 334 333 333 338 337 337
339 340 341 340 344 345 346 345 344 343 342 341 340 339 338 335 335 335 337 336 334 333 333 332 332 331 331 330 330 330 329 330 318 316 321 324 328 334 333 334 334 335 334
336 338 340 342 342 343 344 343 341 340 340 339 338 338 337 337 336 336 335 335 334 333 333 332 332 330 329 328 329 328 327 328 320 319 322 323 333 332 332 331 333 334 335
337 336 339 340 341 340 339 339 338 338 338 337 336 335 335 334 334 335 335 335 334 334 334 332 330 329 327 327 327 328 326 328 315 317 320 321 332 330 329 329 329 330 331
335 336 337 337 339 338 337 336 335 335 334 334 333 332 332 332 333 333 333 334 334 333 332 331 330 329 328 327 327 327 326 323 313 315 317 320 330 327 327 327 327 328 328
332 334 336 336 336 336 335 335 334 335 333 332 331 331 328 327 328 330 330 332 332 331 330 330 329 328 327 326 327 328 323 316 315 314 315 326 327 325 325 325 324 325 325
330 331 332 335 334 334 334 331 330 332 328 328 327 327 325 324 325 329 330 331 331 331 329 329 329 327 325 318 317 321 315 315 314 313 314 325 324 324 323 322 322 322 322
328 329 332 333 332 329 330 328 327 326 326 326 326 326 326 329 326 328 326 328 325 328 323 325 322 320 318 317 317 315 315 315 312 312 317 322 321 320 320 320 319 319 318
325 325 326 328 328 325 329 326 324 326 329 328 330 332 330 329 328 328 326 326 327 323 317 316 314 313 313 313 313 313 313 312 311 311 315 320 320 318 319 317 316 315 314
322 323 323 325 324 323 328 330 330 330 330 330 331 331 330 329 326 325 322 319 317 314 312 311 310 311 311 311 309 308 308 309 306 306 308 318 318 317 316 314 313 313 313
322 322 323 324 326 330 327 325 325 328 329 329 328 328 327 326 323 319 317 315 312 312 311 310 308 306 304 305 304 305 304 303 301 301 304 307 317 316 313 311 311 311 311
322 323 323 325 326 323 322 323 322 324 325 326 324 322 321 322 318 316 313 312 311 311 309 306 303 303 302 303 301 302 303 301 301 302 302 302 310 314 313 309 309 309 310
321 322 324 329 322 320 319 319 319 319 321 321 318 317 317 317 315 312 311 310 310 308 305 304 302 301 300 299 298 297 300 300 301 300 300 300 301 306 311 312 309 308 307
322 324 325 323 321 320 319 318 318 317 316 316 314 313 313 313 313 311 309 307 307 305 304 303 301 300 298 298 299 297 297 298 299 301 300 301 302 301 301 310 310 309 307
324 327 324 324 321 319 319 319 318 316 313 311 310 310 311 312 313 311 308 305 305 303 302 301 300 300 299 298 301 298 296 297 297 297 297 299 299 298 298 299 298 300 307
326 326 324 322 321 321 319 317 315 312 310 309 309 311 311 312 310 307 306 305 303 302 301 301 299 298 297 297 294 294 294 296 295 295 295 295 296 297 296 296 295 296 296
325 325 323 322 321 321 323 319 315 312 309 310 310 311 311 309 308 307 304 303 302 301 300 299 298 297 296 297 293 292 289 292 293 296 294 294 292 294 295 297 297 296 294
323 323 323 323 322 322 325 319 315 311 310 308 308 309 309 309 308 306 305 303 301 301 299 298 297 296 294 295 295 292 288 285 289 292 293 292 292 291 291 293 294 294 294
322 324 325 324 322 323 324 317 312 307 307 307 308 308 308 308 307 305 304 302 301 301 299 298 300 297 295 292 294 296 292 291 286 287 289 291 291 292 291 290 291 292 293
324 324 322 323 323 323 317 314 310 308 308 309 310 310 308 307 306 305 303 301 300 300 299 297 295 295 295 293 292 291 291 290 290 286 285 286 289 290 290 291 290 289 291
322 321 321 322 321 314 313 312 311 309 310 310 309 309 307 307 304 303 302 300 299 298 296 295 294 294 293 293 293 292 291 289 290 289 287 285 285 287 289 289 288 288 289

GFSSE_sfc_thetae_054.txt.gz
Theta_e
341 346 349 350 350 349 349 348 348 348 349 349 348 347 347 345 344 343 341 339 337 334 335 335 334 334 334 335 336 335 335 337 342 343 343 342 342 340 340 341 342 339 342
344 347 347 349 350 349 349 348 348 348 348 347 348 346 344 343 342 340 339 338 337 335 335 335 334 333 333 333 334 334 335 336 339 341 342 341 340 340 339 339 341 337 340
344 347 347 347 348 349 348 348 348 348 348 345 344 344 343 341 340 339 338 338 338 335 334 333 332 332 332 332 335 337 338 337 338 341 340 333 333 338 337 338 338 335 335
343 346 346 346 347 348 348 347 347 347 346 345 343 341 341 339 338 335 335 337 338 334 333 333 332 331 331 333 335 337 338 339 338 332 326 328 329 335 336 335 335 335 334
343 345 346 344 345 347 347 346 346 346 345 344 341 341 340 337 335 335 337 337 337 334 333 332 331 331 331 333 333 333 333 332 331 326 321 322 324 332 334 333 333 333 333
343 345 343 343 344 346 346 346 345 344 342 341 340 339 338 336 336 335 337 337 335 333 332 332 331 330 332 332 332 331 332 329 324 319 322 329 326 333 334 334 334 334 334
339 341 341 340 343 344 345 345 343 342 341 339 339 338 338 336 335 336 337 336 335 333 332 331 330 331 330 331 330 330 330 327 318 319 322 325 327 333 333 332 332 332 333
334 336 338 340 341 341 343 342 341 340 339 338 338 337 337 337 335 335 335 335 335 334 333 332 331 330 330 331 330 329 328 326 319 318 321 322 332 331 330 329 330 330 331
335 335 336 336 338 338 339 338 337 338 337 336 336 335 335 334 334 335 335 335 334 334 333 331 330 328 328 329 329 327 325 323 314 316 321 320 332 329 328 328 328 328 328
331 332 335 337 337 336 335 335 335 335 334 333 333 332 332 332 333 333 333 334 334 332 331 330 329 327 327 327 328 326 324 321 312 313 315 320 330 327 326 326 326 325 324
331 330 334 333 334 335 333 334 334 334 332 331 331 331 328 326 327 329 329 332 332 330 329 329 328 326 325 326 327 325 321 313 312 312 314 325 326 325 324 323 323 322 321
327 330 333 332 333 333 332 330 329 329 327 326 325 324 323 324 324 328 328 330 330 329 329 328 327 325 320 315 315 318 313 313 312 311 313 324 323 322 322 321 320 319 318
328 328 331 332 332 330 328 326 326 324 324 323 324 323 324 325 325 324 324 325 323 325 321 319 315 314 312 311 311 309 310 310 309 309 316 322 320 320 320 319 317 315 314
325 327 331 332 329 326 325 324 324 324 325 324 324 326 325 326 324 324 324 322 319 315 312 311 310 310 308 308 306 305 305 303 303 303 311 319 320 317 317 317 315 314 314
324 325 329 330 324 325 325 324 325 327 328 328 328 329 328 325 322 318 316 315 313 311 310 307 306 304 304 303 303 302 303 301 300 300 302 317 317 316 315 314 313 312 312
323 322 325 326 324 327 325 326 326 328 327 326 325 325 326 322 316 315 313 311 310 309 307 304 302 301 300 301 301 300 301 300 299 299 299 300 314 317 314 312 311 310 312
322 323 322 325 326 324 324 324 323 324 324 322 320 320 319 319 316 313 311 310 309 307 304 302 301 300 300 300 299 298 300 299 300 299 299 299 306 315 314 310 309 309 308
322 321 326 326 323 320 319 320 321 321 320 319 317 316 317 315 312 310 309 308 306 303 302 301 300 299 298 297 296 296 296 297 298 298 298 299 300 304 306 311 308 307 306
321 321 322 321 319 319 317 317 316 317 315 314 312 311 312 312 311 308 305 304 304 302 301 301 299 298 296 297 297 296 296 295 296 298 296 297 297 298 297 303 305 308 305
321 324 321 320 318 317 316 316 314 313 312 311 309 309 310 310 311 308 304 303 302 301 300 299 297 298 297 296 299 297 295 294 294 294 294 296 296 295 295 297 297 298 305
321 322 321 319 317 317 316 316 314 310 309 308 308 310 310 310 310 305 303 302 301 300 299 299 297 297 296 296 293 293 293 294 293 293 293 293 294 294 294 295 294 294 296
322 321 320 319 318 318 319 316 314 311 308 307 308 309 310 308 306 304 302 301 300 299 298 297 297 296 295 295 292 290 288 290 292 295 292 293 290 292 293 294 293 293 293
321 321 320 320 319 319 320 318 312 309 307 306 306 306 306 307 307 304 302 301 300 299 297 297 296 294 293 293 293 291 287 284 287 290 291 291 290 290 290 291 292 292 291
321 322 321 321 320 320 322 318 310 307 306 306 306 307 306 307 306 304 303 301 300 299 297 297 297 294 293 290 292 295 291 290 286 284 288 291 290 291 289 289 289 290 290
322 322 322 322 322 321 322 317 311 306 307 306 307 306 306 305 304 303 301 300 299 298 296 294 293 293 292 291 290 290 289 289 288 285 284 285 288 289 289 289 288 287 289
322 322 322 322 321 320 320 314 311 308 307 306 306 305 305 305 302 302 300 298 297 295 294 293 292 291 290 290 290 290 290 288 287 287 286 288 288 287 288 288 287 287 288

GFSSE_sfc_thetae_057.txt.gz
Theta_e
341 346 348 349 349 348 348 348 347 347 347 348 347 346 344 343 341 339 339 339 338 335 335 335 334 334 334 334 335 336 341 341 341 342 342 340 340 339 338 338 338 335 341
344 346 346 348 348 348 348 347 348 347 347 344 344 344 343 341 340 339 339 339 337 335 334 334 333 333 335 337 336 336 337 341 340 341 339 339 338 338 337 336 337 332 335
343 346 346 346 347 347 348 348 348 347 345 342 341 341 341 339 339 339 339 339 338 333 333 333 333 335 338 340 341 337 338 340 339 339 336 329 329 335 335 335 335 334 335
345 346 345 346 346 347 347 347 347 347 344 342 340 339 338 338 337 337 338 338 337 334 333 332 333 333 334 337 338 339 338 335 333 330 322 323 327 334 333 333 332 332 332
344 344 345 344 345 346 346 346 346 346 343 341 340 339 337 337 335 336 338 337 336 333 332 332 331 331 332 333 333 333 334 332 331 327 323 323 325 331 334 334 333 334 333
343 344 341 341 343 345 346 346 345 344 341 340 339 338 337 335 335 336 337 336 336 333 332 332 331 332 332 332 332 331 330 329 326 322 323 328 325 333 332 331 332 332 333
341 342 339 338 342 344 345 345 343 342 340 339 338 338 338 337 337 337 337 336 335 333 331 331 333 332 331 330 331 330 329 327 319 319 321 323 325 331 331 330 330 330 331
335 337 339 340 340 341 341 342 341 340 339 338 337 337 338 337 337 336 336 336 335 334 333 331 332 332 331 330 328 328 327 324 318 317 319 320 330 329 329 328 328 327 327
333 333 335 335 336 336 336 338 337 338 337 337 336 336 335 335 334 335 335 335 334 333 333 332 331 331 331 330 328 325 324 323 314 316 320 319 330 328 327 327 326 324 324
332 333 332 332 334 335 335 335 335 335 335 335 335 334 332 332 333 334 333 334 334 333 332 331 330 329 330 328 327 324 322 320 311 313 315 320 328 326 325 324 324 323 322
328 328 329 332 333 331 332 334 334 334 333 332 332 331 327 325 326 326 330 331 332 331 331 330 329 325 323 323 323 322 319 311 311 311 312 325 325 324 323 322 321 320 319
323 325 327 330 331 331 332 330 328 329 326 325 325 324 322 322 324 326 329 330 330 330 329 326 323 320 315 310 309 312 309 308 307 309 312 323 322 322 321 320 319 317 316
324 328 330 330 331 329 328 327 326 324 323 323 322 322 322 323 324 323 323 322 319 321 314 313 310 308 307 306 305 304 303 302 301 303 314 321 320 318 318 317 316 315 314
323 326 329 330 330 327 325 324 323 322 321 322 322 323 323 322 322 322 320 318 313 311 309 307 306 305 303 303 302 302 300 299 298 299 303 318 318 316 316 315 314 314 313
323 325 327 329 326 324 322 320 321 323 323 326 327 327 326 323 320 317 313 311 310 308 305 303 304 302 301 300 300 300 299 298 298 298 298 308 315 317 314 314 312 312 311
324 324 329 328 322 323 322 322 324 325 326 326 325 325 324 318 315 313 310 309 307 305 303 302 301 299 298 299 298 299 298 298 297 297 297 298 311 316 314 312 311 310 310
324 323 326 323 324 324 324 324 323 324 323 321 321 321 318 316 313 311 309 307 305 303 302 301 299 299 298 299 297 297 297 296 297 297 297 299 305 313 313 309 309 307 306
320 321 324 326 324 322 322 321 322 321 320 318 318 317 316 314 312 309 308 306 304 302 301 299 298 297 296 296 295 295 295 295 296 296 296 296 297 298 302 307 307 306 306
320 321 322 322 320 319 317 317 317 317 316 314 313 313 312 311 310 306 305 303 302 300 300 300 298 297 295 295 296 295 294 294 295 296 295 295 295 295 295 301 304 307 305
319 322 321 319 317 316 316 315 313 312 311 310 309 310 310 309 308 304 303 302 301 300 299 298 296 296 296 295 298 296 292 293 293 293 293 295 294 294 293 294 293 294 303
319 319 318 317 315 316 314 312 310 309 308 307 308 309 310 309 307 303 301 300 300 299 298 297 296 295 294 294 292 292 292 292 292 292 292 291 292 293 292 293 292 291 293
319 319 318 318 316 316 315 314 313 309 308 307 307 308 309 308 305 303 301 299 300 299 297 296 296 294 293 293 291 289 286 289 291 293 291 292 290 291 292 292 291 292 290
318 318 319 318 317 316 317 314 309 307 306 305 305 305 306 306 305 303 301 300 298 298 296 295 294 294 292 292 292 290 285 283 286 289 290 290 290 289 289 290 291 291 289
319 320 320 319 317 317 318 314 309 307 304 305 305 305 305 305 304 303 301 300 298 298 296 295 296 294 292 290 291 294 290 289 285 284 288 289 288 290 289 289 289 289 289
319 319 319 319 318 319 319 317 311 306 305 305 305 305 304 303 303 302 300 299 298 297 294 293 292 291 292 291 289 289 288 287 286 285 282 285 288 289 289 289 288 287 288
319 320 318 319 319 319 319 316 311 307 305 305 304 303 303 302 300 300 299 298 297 294 293 292 291 291 289 289 289 288 288 287 287 285 283 284 284 287 288 288 286 286 287

GFSSE_sfc_thetae_060.txt.gz
Theta_e
341 345 346 348 347 347 346 346 346 347 347 347 346 345 344 342 340 340 339 339 339 336 335 336 336 335 336 338 342 341 342 342 342 342 339 339 338 338 337 336 335 331 336
344 345 345 347 347 347 347 347 347 347 346 345 344 342 341 340 340 340 340 339 338 335 336 336 337 339 338 337 339 342 341 341 340 339 337 336 335 335 335 335 337 332 334
344 345 345 345 347 347 348 347 347 346 344 341 339 340 340 340 340 340 339 338 338 336 336 340 341 342 341 338 340 341 338 337 336 335 333 326 327 333 333 332 333 332 333
344 344 344 345 346 347 347 347 346 345 343 342 340 339 339 339 340 339 338 337 338 338 335 338 339 341 340 341 340 337 335 333 333 330 324 325 328 333 334 333 334 334 333
343 344 343 344 345 346 346 346 345 343 342 340 339 338 338 339 339 336 338 336 337 337 333 334 335 335 336 335 335 335 334 333 331 327 324 325 326 330 332 332 332 333 332
342 343 341 341 343 345 346 346 344 342 340 339 339 339 338 339 338 338 337 336 337 336 332 333 333 333 333 332 333 333 331 330 327 322 323 327 325 331 331 330 330 330 330
340 340 340 339 342 345 346 344 342 341 339 339 338 338 338 339 338 338 337 336 336 336 333 332 332 333 333 331 331 331 329 327 319 320 321 323 325 330 330 328 327 327 328
336 337 338 340 340 340 340 341 340 339 339 338 338 338 338 338 337 337 336 335 335 334 334 333 332 331 330 331 330 327 326 324 319 318 320 321 329 328 328 327 325 325 325
334 334 335 336 337 335 337 338 337 337 337 337 337 337 336 336 335 335 335 334 334 333 333 333 332 331 330 328 327 326 324 323 314 316 320 321 328 327 326 325 323 323 322
332 332 332 333 333 333 334 335 335 335 335 335 335 334 332 333 333 333 333 334 333 333 332 330 330 329 328 327 324 322 321 318 311 312 315 322 326 325 324 323 322 321 320
328 328 329 330 331 331 331 335 334 335 334 333 332 331 327 326 326 325 331 332 332 332 330 327 324 321 319 320 321 319 314 308 310 311 313 326 325 324 323 322 319 318 317
320 321 323 327 329 330 332 330 328 330 326 326 325 323 322 322 321 326 328 330 331 327 325 322 318 316 310 305 305 307 303 302 304 311 313 324 322 321 320 319 317 317 316
320 322 325 327 329 330 328 327 325 323 323 323 322 321 321 324 322 322 321 320 317 316 309 308 306 304 303 303 302 301 300 300 299 301 313 320 319 317 318 316 316 315 315
321 322 324 327 329 328 326 325 323 321 321 321 320 322 322 321 320 320 318 312 310 308 305 304 303 302 302 302 301 300 299 298 298 299 301 312 317 316 317 315 315 314 313
322 323 324 328 327 325 324 322 321 321 321 321 321 323 324 321 320 315 311 309 306 304 303 302 303 302 301 299 299 298 298 298 298 298 298 308 313 316 314 314 312 314 311
323 322 325 326 325 323 320 319 320 322 324 324 325 325 324 320 315 312 309 306 303 302 302 303 302 300 297 298 297 298 297 297 297 297 299 304 316 317 314 312 311 311 309
323 324 325 325 322 322 320 320 322 324 324 323 323 322 319 316 314 310 308 303 302 301 301 302 299 298 297 298 296 296 296 297 296 296 297 300 301 310 310 309 309 308 307
321 321 326 327 323 322 321 321 321 321 321 320 319 318 316 314 312 308 306 303 302 301 301 299 298 297 296 296 295 295 294 296 295 295 295 296 296 296 299 306 307 308 308
320 320 321 322 320 320 318 318 319 318 317 316 316 316 312 310 310 308 305 302 301 300 299 299 297 297 295 295 296 295 293 294 294 296 295 295 296 295 295 300 303 303 305
317 320 321 319 317 315 315 314 313 313 313 313 313 311 310 308 307 306 303 301 300 299 298 297 296 296 295 295 297 295 293 293 293 293 294 295 294 294 294 295 294 294 301
317 318 318 316 315 316 315 312 310 309 309 309 309 309 309 308 305 303 301 300 299 298 297 296 296 295 294 294 292 291 292 292 293 292 293 293 293 294 294 294 293 293 293
317 319 317 317 315 317 317 312 312 309 308 307 307 308 308 306 303 302 300 299 299 297 297 296 296 294 293 293 290 289 286 289 291 293 292 293 292 292 293 293 293 293 292
316 318 318 318 316 317 316 313 308 307 307 305 305 305 306 307 304 302 300 299 298 297 296 295 294 293 291 292 292 289 284 283 286 290 291 291 291 291 292 292 292 292 291
315 317 318 318 316 315 316 312 309 308 305 305 305 305 305 305 303 301 300 299 297 297 295 295 295 293 291 289 290 294 290 289 286 284 289 290 290 291 291 291 291 291 290
315 316 317 317 316 316 316 314 311 308 308 307 305 305 304 302 302 301 299 298 297 296 295 295 294 293 292 290 289 288 288 288 287 286 283 286 289 290 291 291 291 289 289
314 315 316 316 316 317 317 315 313 312 308 307 304 304 302 300 299 298 298 297 295 295 296 294 292 292 290 290 290 289 289 287 287 285 283 284 284 288 290 290 289 288 288

GFSSE_sfc_thetae_063.txt.gz
Theta_e
341 344 346 349 348 347 347 347 347 347 348 348 347 345 343 341 341 341 341 340 340 339 339 339 340 343 344 342 342 342 342 342 340 340 338 337 337 337 337 336 336 332 335
344 344 345 347 347 347 347 347 347 347 347 346 344 342 341 341 341 341 341 339 341 339 339 339 339 340 343 341 341 341 339 339 338 337 337 334 334 334 334 333 336 333 334
343 343 345 345 347 347 347 347 348 347 345 342 341 341 341 342 341 340 340 340 341 341 343 343 341 339 342 341 340 338 336 337 336 335 335 330 332 334 335 334 334 333 333
343 343 344 344 346 347 347 346 346 345 343 341 341 341 342 341 340 340 339 339 342 344 344 343 341 340 341 339 338 337 335 334 333 334 330 329 329 333 334 334 333 334 333
343 343 344 344 345 345 345 344 343 343 341 340 340 341 341 341 339 339 339 338 339 341 341 342 342 341 338 337 336 336 334 333 333 330 330 330 330 331 332 331 330 331 332
343 343 342 341 343 345 345 344 342 341 339 339 339 340 340 340 339 338 337 336 338 339 337 339 338 335 335 334 335 334 332 330 330 328 329 331 330 331 330 328 328 329 329
341 342 344 339 342 345 345 343 341 340 339 338 339 340 340 340 339 338 337 336 336 337 336 335 334 334 333 333 332 331 329 328 326 326 327 328 330 329 328 327 326 326 327
341 340 341 340 341 340 341 341 339 338 338 338 338 339 339 339 338 337 336 336 335 334 334 334 333 333 332 331 330 328 327 326 325 326 326 326 329 327 326 324 323 324 324
336 335 336 337 337 337 338 337 336 337 337 337 338 338 337 336 336 335 335 334 335 334 333 332 332 330 330 329 327 326 324 323 324 325 324 325 326 326 324 322 321 321 321
333 334 333 332 329 331 335 335 335 335 335 335 335 334 333 333 334 334 333 334 334 334 334 331 330 329 326 325 323 322 321 321 321 323 324 325 326 325 323 321 320 320 319
329 331 331 327 330 329 331 334 334 335 334 333 333 332 329 330 329 329 331 333 332 330 328 324 322 321 321 320 316 314 317 319 320 321 322 327 324 323 322 320 318 318 318
321 324 327 327 326 327 332 332 334 333 332 332 330 330 328 329 330 328 330 330 328 326 324 320 317 315 314 311 311 312 310 312 315 319 320 323 322 321 320 318 317 317 316
320 320 320 322 328 327 328 330 329 329 329 329 329 327 328 328 330 329 329 325 321 318 313 311 311 312 311 311 310 310 310 309 310 310 313 316 320 317 319 317 316 315 315
319 321 320 321 321 331 330 329 327 326 326 326 326 328 329 328 329 328 326 320 316 313 313 311 311 311 310 310 309 309 309 308 308 309 309 312 316 318 318 316 315 314 312
319 320 319 323 329 331 330 329 326 326 326 328 328 329 331 329 329 325 319 315 312 312 311 310 309 308 309 308 307 307 306 307 308 309 311 318 318 316 316 314 313 313 311
320 322 323 327 331 330 329 328 326 326 327 327 329 329 331 329 325 318 315 312 311 311 311 310 308 307 307 307 306 306 306 306 308 312 313 314 314 314 314 313 311 311 309
322 323 323 329 332 330 328 327 326 326 327 327 328 330 330 327 322 318 315 312 310 311 310 306 308 308 307 306 306 305 305 305 305 307 308 309 310 308 309 308 308 308 308
324 325 327 328 330 329 327 326 326 327 330 331 332 329 327 324 321 317 313 311 311 311 309 308 308 307 306 306 306 304 304 304 305 305 305 305 306 305 303 306 306 307 308
326 326 327 330 330 330 328 327 328 330 330 329 328 327 323 321 319 315 312 311 311 310 310 308 307 307 306 306 305 305 305 304 304 303 304 304 304 304 304 301 302 302 304
327 327 329 330 329 328 327 326 327 328 327 327 327 325 321 319 317 315 312 311 311 309 308 308 307 307 306 306 303 303 305 303 304 305 304 303 304 304 304 303 303 302 300
326 326 327 327 327 325 323 321 321 323 323 322 323 321 319 317 316 312 311 310 310 309 308 308 307 306 305 306 303 302 303 302 302 303 304 304 303 303 303 303 302 302 301
323 325 325 326 324 325 325 324 324 323 321 321 320 319 318 316 313 311 311 309 309 307 307 307 307 305 305 305 300 299 296 298 301 302 302 302 302 303 301 301 302 301 301
321 323 324 325 325 325 326 323 319 318 317 316 316 315 314 312 310 311 310 309 309 308 307 307 307 304 302 302 301 298 293 292 294 300 300 301 301 302 301 301 300 301 301
322 325 325 325 324 324 324 323 320 321 317 317 316 313 311 311 310 310 309 309 308 307 307 306 305 304 302 298 300 300 300 297 292 291 298 299 300 300 301 301 300 300 300
323 324 325 325 324 324 323 323 322 320 319 316 314 312 311 311 311 309 309 308 307 307 306 305 303 300 299 298 298 298 297 298 297 293 290 294 298 299 300 300 300 299 297
322 323 324 323 323 323 322 322 321 319 315 313 313 311 311 311 310 308 307 307 307 305 303 300 302 298 298 297 298 298 296 294 294 294 292 293 293 295 298 298 298 298 297

GFSSE_sfc_thetae_066.txt.gz
Theta_e
345 345 347 349 349 349 349 348 348 348 348 348 347 344 343 342 342 342 342 343 343 345 345 345 346 344 343 343 342 341 341 341 339 339 337 335 335 336 336 337 338 333 335
345 345 346 348 349 348 348 348 348 348 348 347 344 342 342 342 342 341 342 343 343 342 342 345 344 342 342 340 339 338 337 338 337 338 338 336 335 336 336 335 336 334 335
344 343 347 346 347 348 348 349 348 348 346 344 342 342 342 342 342 341 342 342 343 342 341 342 344 342 339 338 338 337 336 336 336 336 338 331 333 335 335 334 335 335 334
344 342 344 345 346 347 347 347 346 346 344 343 342 342 342 342 341 342 343 344 346 346 342 342 344 340 337 337 337 336 335 334 336 336 330 329 329 332 332 332 333 334 335
343 340 344 344 345 346 346 345 344 343 341 341 342 342 341 341 342 342 343 344 345 346 344 344 343 337 337 338 337 336 334 334 335 331 329 331 330 330 330 329 331 331 331
345 341 343 342 344 345 345 344 342 341 340 340 341 341 341 341 341 340 340 341 343 345 345 343 338 336 336 336 335 334 333 333 332 329 329 331 329 329 328 327 327 328 328
342 344 346 340 342 344 345 343 341 340 339 340 340 339 340 340 340 339 338 339 340 342 341 336 334 335 335 334 332 331 330 329 327 327 328 329 329 327 326 324 325 326 326
339 342 345 341 342 342 342 340 338 338 338 339 339 339 339 339 338 338 337 337 338 337 336 335 334 333 333 331 329 328 327 328 327 325 326 327 327 326 324 323 323 323 323
340 341 339 339 340 338 337 337 336 337 337 338 338 337 336 335 335 336 336 335 335 335 334 334 333 332 330 328 326 325 324 325 326 325 324 326 326 325 323 321 321 321 321
337 336 331 330 330 326 327 332 335 335 336 336 335 334 333 333 334 334 334 335 335 334 332 330 329 329 326 325 323 321 322 323 323 323 324 325 325 323 321 320 320 319 319
331 326 326 327 326 327 329 333 335 335 335 333 332 331 328 327 327 328 332 333 333 331 329 327 325 323 321 318 316 317 318 322 322 321 322 327 324 323 321 319 318 318 318
324 323 326 326 326 326 326 326 332 332 331 330 328 329 328 330 330 329 330 330 328 326 323 320 319 320 321 319 316 317 316 316 317 319 320 321 321 322 320 318 317 317 317
324 326 325 325 326 324 324 328 329 328 331 330 330 328 331 331 330 331 328 326 324 323 318 318 319 320 320 318 316 315 314 314 313 313 313 316 320 319 319 318 316 315 315
319 321 323 324 324 324 325 329 331 328 329 328 328 331 330 329 330 331 329 327 325 323 321 321 319 318 316 315 314 313 313 311 311 311 312 318 316 318 318 317 316 313 312
318 319 320 323 322 324 325 328 327 328 327 327 329 330 329 329 330 330 329 326 323 322 320 318 317 315 314 313 312 311 310 311 311 312 316 318 319 316 317 314 314 313 311
319 318 318 320 321 323 330 330 327 327 329 328 329 331 333 331 331 329 326 323 320 320 319 317 316 315 313 311 311 310 309 310 311 313 314 315 314 315 314 313 311 311 310
322 323 319 323 329 330 332 330 327 327 327 326 327 333 335 334 331 329 323 319 320 320 319 315 314 313 311 310 309 309 310 309 310 311 312 313 312 309 309 309 309 310 311
322 320 324 326 332 334 333 330 327 327 327 327 330 333 336 334 331 326 324 321 320 318 316 314 314 311 311 311 310 311 311 309 310 310 309 311 312 309 306 306 305 305 306
322 322 325 331 333 334 333 330 329 329 328 332 335 334 335 333 330 327 323 320 319 317 316 314 313 312 310 311 310 312 311 309 309 308 308 308 309 306 305 303 301 301 302
327 328 330 331 333 335 335 332 329 328 329 334 335 334 332 331 328 326 322 320 319 317 315 313 312 312 312 313 308 309 310 309 309 308 307 306 307 306 306 305 306 305 301
327 328 329 330 333 334 332 327 325 326 330 333 333 334 332 330 328 325 321 319 319 316 315 315 312 311 310 313 311 310 308 308 307 307 307 305 305 305 306 305 304 304 303
328 330 330 331 333 334 331 328 326 327 329 331 332 331 330 327 325 322 321 318 318 315 314 313 312 310 311 311 307 305 304 305 306 306 306 304 305 305 304 304 304 303 303
326 328 330 332 333 333 331 328 328 330 330 329 328 328 328 324 324 320 318 319 317 315 313 314 313 311 308 308 306 302 296 298 300 304 303 303 304 304 304 304 304 303 303
327 328 331 332 332 333 332 328 326 325 324 327 328 328 322 322 319 317 318 318 316 315 314 313 312 311 308 304 305 300 301 299 296 295 301 302 303 302 303 303 303 303 303
328 329 329 330 332 333 333 332 329 327 328 330 328 326 323 319 317 316 317 317 316 315 315 313 311 308 304 305 301 299 299 301 301 297 295 298 300 301 302 302 302 302 302
331 331 331 329 329 332 333 333 331 330 329 326 325 322 317 317 313 315 315 316 316 315 313 311 309 306 304 302 300 300 300 298 297 297 295 296 296 298 300 301 301 301 301

GFSSE_sfc_thetae_069.txt.gz
Theta_e
340 345 348 351 350 350 349 349 348 348 348 348 347 345 345 344 344 344 345 345 347 349 347 345 345 343 341 341 340 339 340 340 338 339 337 336 336 336 336 338 336 333 336
341 345 347 349 350 349 349 349 348 348 348 347 345 344 343 343 343 344 345 346 348 348 346 344 342 340 339 339 338 338 336 338 339 339 339 337 336 336 336 336 337 333 335
341 345 349 347 349 349 349 349 349 348 347 345 344 343 343 343 343 344 344 345 346 347 345 343 339 338 337 336 338 336 336 336 336 339 340 328 330 334 334 334 336 335 334
342 344 349 346 348 348 348 348 348 347 345 343 343 343 343 343 343 344 344 344 344 346 344 342 338 337 337 337 337 335 334 334 334 335 330 327 326 331 332 332 332 332 334
341 342 348 345 345 347 347 346 345 344 342 342 342 343 342 343 344 346 346 346 345 345 345 339 337 336 337 338 337 335 334 333 335 331 328 328 325 327 328 328 329 329 329
338 342 343 342 344 346 346 345 343 342 341 341 341 341 343 343 345 345 345 345 345 345 343 337 336 336 336 336 335 333 332 332 332 328 328 328 325 327 327 327 327 327 327
339 343 346 341 343 345 345 343 341 341 341 340 340 341 341 341 342 342 342 344 344 344 339 336 335 334 335 333 331 330 330 331 326 326 326 326 326 325 325 325 325 325 325
337 341 343 343 343 343 342 340 339 339 340 339 339 339 340 339 339 339 340 340 340 338 337 336 335 333 332 330 328 328 328 330 326 325 327 325 326 324 323 323 322 322 323
339 339 338 340 340 337 336 336 337 338 338 338 338 338 337 336 336 336 337 337 336 335 335 334 332 331 329 327 326 324 324 327 325 325 324 324 325 323 322 321 321 321 321
337 335 333 330 333 331 333 335 335 336 336 336 335 334 333 334 334 335 334 335 334 334 333 330 330 329 326 324 323 323 322 326 322 323 324 324 324 322 321 320 320 320 319
328 328 324 324 325 328 328 332 335 335 334 333 333 332 329 327 328 329 333 333 333 331 330 328 327 324 322 320 319 319 321 320 320 321 323 326 324 323 320 319 319 319 318
323 324 322 321 320 321 325 327 332 334 331 330 329 329 326 331 330 329 330 330 329 328 326 326 325 323 323 319 318 318 316 316 315 317 320 322 322 323 320 319 317 317 316
324 322 322 320 320 320 324 328 327 329 328 329 331 331 330 331 332 330 328 325 325 325 321 319 318 322 323 321 318 316 314 314 313 313 313 316 320 321 320 318 316 315 315
322 321 323 322 322 322 326 325 327 325 326 328 330 335 333 331 331 329 326 326 325 324 322 324 323 322 320 317 315 314 313 312 311 312 316 317 316 319 319 318 316 313 312
320 321 321 321 321 320 322 321 322 325 328 330 330 333 331 331 333 330 329 327 326 325 324 323 321 318 317 315 314 312 311 312 312 313 316 318 319 316 319 315 315 314 312
318 318 319 320 322 321 320 318 319 326 325 328 330 330 335 333 334 330 329 327 326 325 324 323 320 318 316 314 312 311 310 311 312 313 315 315 316 316 315 314 312 312 311
318 320 319 320 320 320 321 324 326 327 328 326 327 333 332 333 332 331 329 326 325 325 325 322 320 318 316 312 310 310 310 311 311 311 312 314 312 313 311 309 310 310 309
316 317 318 319 321 323 326 328 328 326 328 328 328 330 333 334 334 332 327 324 325 324 322 320 318 316 313 312 312 312 312 311 310 310 310 310 311 309 309 308 305 303 304
322 320 319 321 324 329 330 331 329 331 326 325 329 332 335 335 333 331 328 327 325 322 320 319 317 316 312 312 311 312 312 310 310 308 308 308 309 307 306 306 305 304 302
323 323 325 328 330 332 334 331 327 327 327 328 331 333 335 334 332 330 329 327 323 321 320 319 317 314 314 313 309 310 312 311 311 310 308 307 308 307 307 306 306 306 304
323 322 325 328 331 332 330 327 324 322 324 327 332 333 334 333 332 331 327 324 323 321 321 318 315 314 312 313 311 312 311 311 311 310 309 308 307 307 307 306 305 305 305
324 327 327 328 330 331 329 327 325 324 325 327 334 333 334 332 331 329 327 324 323 321 320 317 316 313 314 313 310 309 306 308 308 309 309 308 308 306 306 306 305 305 304
325 327 327 328 329 331 331 328 326 326 326 326 330 330 331 331 331 329 327 325 323 322 318 317 315 315 311 312 310 308 303 302 304 308 308 306 306 305 306 306 305 305 304
328 330 330 330 330 332 332 329 326 322 322 325 329 329 328 330 329 326 325 324 324 322 319 317 316 316 314 310 309 307 307 303 299 299 304 304 305 304 305 305 305 305 304
328 329 331 330 331 331 333 331 327 326 326 328 330 329 329 327 326 324 323 323 323 320 320 320 317 315 312 309 305 305 303 304 305 300 297 300 304 303 303 304 304 303 303
331 331 330 330 330 332 333 333 331 328 328 326 330 327 327 325 323 320 320 322 322 317 319 317 316 314 310 308 305 303 303 302 301 300 297 298 298 300 302 302 302 302 302

GFSSE_sfc_thetae_072.txt.gz
Theta_e
340 345 350 350 350 350 349 348 348 347 348 348 347 347 347 347 347 347 347 347 348 348 346 343 343 340 339 337 337 339 340 340 339 339 338 336 337 337 337 338 336 332 336
342 347 348 349 350 349 349 348 348 348 348 347 346 345 345 345 345 345 347 348 347 347 344 340 339 338 337 337 337 338 339 340 339 338 337 334 335 335 338 337 337 332 335
329 347 349 348 349 349 349 349 349 348 347 346 345 344 344 345 345 347 347 347 346 345 341 339 338 336 336 336 337 337 337 338 339 339 334 323 326 334 333 333 335 335 335
341 346 349 346 348 348 348 348 348 347 346 345 344 344 344 345 345 346 346 345 346 344 339 338 337 337 335 336 336 336 336 336 337 338 323 321 322 330 331 331 331 332 333
340 345 348 345 346 347 347 347 346 345 343 343 342 343 344 344 345 345 344 344 345 343 338 338 337 336 335 336 335 335 334 335 333 327 321 320 320 326 329 329 328 329 329
340 345 343 343 345 346 346 346 344 342 341 341 341 343 344 346 347 346 344 344 345 341 337 337 336 335 335 333 332 332 333 333 332 323 321 323 320 326 327 326 326 326 326
338 343 344 340 344 345 345 344 342 341 341 341 342 342 344 345 346 345 344 343 342 339 338 336 334 333 333 331 331 330 331 330 323 321 320 320 319 325 325 324 324 325 325
336 336 340 341 342 342 342 341 340 340 340 339 340 340 341 342 342 343 343 341 339 338 338 336 334 332 332 330 328 327 327 329 324 322 321 319 324 324 324 323 323 322 323
336 329 329 334 339 338 337 337 338 338 338 338 338 337 337 337 338 339 339 338 338 337 336 334 332 331 329 327 325 324 325 327 319 321 321 319 324 323 323 322 322 322 322
336 334 330 334 332 333 335 335 335 336 336 336 335 334 334 334 335 336 335 335 335 334 333 332 330 329 327 324 323 322 324 325 317 320 320 321 324 322 321 321 321 320 321
325 329 332 330 329 330 330 334 335 335 334 333 332 331 329 329 330 330 332 333 333 332 331 330 328 326 323 321 321 320 321 313 316 319 320 327 324 322 321 320 319 319 320
320 322 325 323 323 325 328 329 331 333 331 330 328 328 325 326 328 329 330 331 331 331 330 328 327 324 321 313 313 318 311 311 314 318 318 325 324 322 321 319 318 317 317
320 320 321 321 321 320 320 320 322 327 327 328 329 326 329 327 327 326 324 323 322 324 319 321 320 317 319 316 313 311 311 310 310 310 316 321 323 322 321 318 317 316 315
319 318 319 320 322 321 321 324 326 325 325 325 327 328 329 327 326 324 323 322 321 320 317 317 320 319 315 313 311 310 309 308 307 310 315 318 320 322 321 319 316 314 313
318 318 319 321 321 322 321 322 324 324 323 325 326 329 329 328 326 326 324 323 321 321 320 321 318 315 313 311 310 309 308 307 308 312 312 320 320 320 320 317 317 315 313
317 318 319 318 319 318 317 318 320 322 323 326 327 327 330 329 328 327 326 324 323 322 322 320 317 315 313 310 308 307 307 307 308 311 311 312 318 319 318 315 313 313 312
316 317 316 316 317 316 316 317 319 320 321 322 325 327 329 329 328 328 327 325 323 322 322 320 317 316 311 310 307 307 307 306 307 306 310 310 311 316 316 314 313 310 308
316 316 317 317 315 316 317 317 318 321 322 323 326 327 329 330 329 328 326 323 323 322 320 317 315 312 311 308 306 305 306 306 306 305 305 306 309 308 312 311 309 307 305
318 317 317 317 316 317 319 319 321 324 324 325 326 327 329 330 330 327 324 322 322 321 318 317 315 312 308 308 308 307 306 305 305 306 305 304 304 302 304 310 309 308 305
318 319 317 317 319 320 321 324 325 325 324 325 328 329 331 331 331 328 325 323 322 319 317 315 314 312 309 309 308 307 306 306 306 305 304 304 304 303 302 302 302 303 308
319 318 317 318 319 323 323 322 322 321 322 323 326 329 331 331 331 327 327 324 320 318 316 317 313 310 307 308 306 306 306 306 305 304 305 303 304 304 302 301 300 300 301
318 318 318 320 325 327 327 325 323 322 323 323 327 330 331 331 331 329 327 322 320 318 319 314 311 308 309 310 304 304 300 303 305 306 304 305 303 302 302 303 302 300 300
318 319 321 324 327 328 328 326 324 323 322 321 328 329 330 331 330 327 326 323 320 320 316 314 312 310 307 307 306 302 297 297 297 302 303 303 301 300 300 302 302 302 301
318 322 324 326 327 329 328 325 322 319 317 321 327 329 328 329 329 328 326 324 322 320 317 314 315 311 310 305 304 305 304 301 296 294 300 300 301 301 300 300 300 301 301
323 325 326 327 327 326 328 327 324 321 321 322 324 327 326 327 327 326 324 322 321 320 318 315 313 312 310 304 303 302 300 299 301 295 292 296 299 300 300 300 299 299 299
325 326 328 328 327 328 329 327 327 323 323 323 326 325 325 325 324 324 322 321 319 319 316 315 314 313 305 303 302 300 300 299 299 296 293 293 293 295 298 297 296 297 297

GFSSE_sfc_thetae_075.txt.gz
Theta_e
327 342 348 350 350 349 348 348 348 347 348 348 348 348 348 348 348 348 349 348 348 345 342 340 342 341 339 338 338 341 341 339 338 339 336 336 338 338 336 335 336 331 336
329 333 339 349 350 349 349 348 348 347 347 348 348 347 347 347 347 349 348 347 346 343 340 338 339 339 339 339 340 341 340 337 335 335 334 334 335 336 337 336 337 332 335
331 331 339 346 349 349 349 349 348 348 348 347 346 346 346 347 348 348 347 345 343 342 339 337 337 337 337 337 339 339 339 337 336 332 329 323 326 333 333 333 333 333 333
330 334 336 344 347 348 348 348 347 347 347 346 345 345 346 347 347 347 345 343 342 341 337 336 335 336 336 336 336 336 336 334 330 327 320 320 324 330 331 330 331 332 333
327 330 330 343 345 347 347 347 345 345 344 344 344 345 346 347 347 347 344 341 341 341 337 336 335 335 334 334 334 334 334 332 329 323 317 317 321 326 329 328 328 329 331
331 339 340 342 344 346 347 346 344 343 342 342 343 344 346 346 346 346 343 340 341 340 336 335 334 332 333 332 332 332 332 329 325 318 317 321 319 326 327 327 326 327 327
336 339 342 340 344 346 346 345 343 342 341 341 342 343 345 345 344 344 342 340 339 339 336 334 332 332 331 330 330 330 330 327 319 317 315 315 318 325 326 325 324 325 325
332 335 335 339 340 343 343 341 340 340 340 341 342 344 344 344 343 343 340 339 339 338 337 335 333 331 329 329 329 327 328 327 321 317 316 315 323 324 324 323 324 324 324
332 333 332 330 333 338 338 338 337 338 339 340 340 340 341 341 341 340 339 339 338 337 335 333 331 329 328 327 326 325 325 326 318 318 318 315 323 323 324 323 323 323 322
329 328 330 332 332 334 336 336 336 336 336 336 336 336 336 336 337 337 336 337 336 335 333 331 330 327 325 324 323 321 323 324 318 318 318 320 323 322 323 322 322 322 321
330 329 330 329 330 330 332 334 334 335 334 333 333 332 331 332 331 331 333 334 334 333 332 330 328 326 323 321 319 319 318 316 317 318 318 326 323 322 321 321 321 320 320
324 325 327 328 328 328 330 331 330 330 328 327 326 324 325 327 328 330 331 332 332 331 330 329 327 325 318 310 311 314 307 315 317 316 319 326 323 322 320 319 318 318 318
322 322 322 323 325 326 326 326 328 327 325 325 324 324 326 326 326 325 324 323 323 326 321 322 318 314 314 311 307 306 306 307 307 311 320 325 323 322 320 319 317 317 315
317 319 319 319 320 321 322 322 324 325 324 324 325 326 325 323 321 320 319 318 316 316 314 313 314 311 309 308 307 305 305 305 306 308 313 321 324 322 321 318 317 316 315
315 318 318 318 318 318 318 319 319 324 323 324 326 327 326 323 320 321 319 319 317 314 313 315 312 311 308 307 306 305 304 304 308 309 310 317 319 323 321 320 317 315 313
316 317 318 319 320 321 320 320 321 322 322 324 325 326 326 325 322 321 320 318 317 315 316 314 312 310 308 305 304 304 304 304 308 308 309 314 320 323 321 317 315 315 313
317 317 316 316 318 318 318 317 317 318 320 321 323 324 326 326 323 323 320 319 319 317 317 314 312 310 307 306 303 304 303 304 304 308 309 309 313 318 318 316 315 313 310
315 315 317 317 315 315 315 315 315 315 317 317 321 322 324 326 325 324 322 321 319 319 316 314 312 309 306 303 302 301 302 303 303 302 307 308 308 309 314 315 312 309 307
316 316 315 314 314 314 315 314 314 315 317 315 318 321 324 326 325 323 321 319 318 316 315 314 311 309 305 304 303 303 302 302 302 304 301 304 305 304 303 312 312 310 307
315 315 314 313 313 313 313 313 314 316 317 317 320 321 324 324 325 323 320 318 318 315 315 313 310 309 306 305 307 305 302 302 301 301 300 302 301 302 302 302 303 303 310
314 315 313 312 313 314 314 314 315 317 318 319 321 323 325 328 327 324 321 319 318 316 314 312 311 307 305 305 303 302 302 301 302 301 301 300 301 300 299 299 298 298 302
314 314 314 313 314 315 316 317 317 318 319 319 321 325 326 326 327 324 323 320 318 316 313 312 308 305 304 305 301 300 297 299 301 302 302 302 299 301 301 300 299 298 298
313 313 313 314 315 317 319 320 320 317 317 316 317 321 325 327 327 326 323 320 317 316 314 311 308 305 303 304 304 301 295 294 296 299 301 301 300 299 298 299 301 299 298
314 315 314 315 316 318 323 322 320 316 315 317 319 323 325 326 327 327 325 322 317 317 314 312 311 308 306 304 302 303 300 297 294 294 297 298 299 298 297 298 299 299 299
314 314 315 316 318 324 324 323 321 316 316 316 322 324 325 326 326 326 326 322 318 317 316 313 311 309 310 306 303 300 299 297 296 294 293 295 296 297 297 297 298 298 298
315 316 317 318 321 324 324 324 321 316 316 315 318 322 323 324 325 325 324 321 319 318 317 315 313 311 308 305 303 300 299 297 296 297 295 292 292 294 296 296 295 296 296

GFSSE_sfc_thetae_078.txt.gz
Theta_e
332 340 348 350 350 349 348 347 347 347 348 349 349 349 348 348 348 347 346 345 345 344 340 341 344 343 339 339 338 338 339 338 338 338 337 337 337 336 335 335 335 330 335
331 338 345 349 349 348 348 347 347 347 348 348 348 347 347 348 347 347 345 344 343 342 340 341 340 340 340 338 339 337 335 335 335 334 334 334 334 335 335 335 334 332 334
330 338 343 347 348 348 348 348 348 348 348 347 347 347 348 348 347 346 344 343 342 341 339 340 340 339 339 339 338 336 334 333 332 331 330 324 325 332 333 332 332 334 336
332 333 341 343 343 347 347 347 347 348 347 346 346 346 347 347 346 344 343 341 340 341 339 339 338 337 335 335 336 334 332 329 328 326 321 322 324 330 331 331 332 335 335
331 333 341 341 339 345 347 347 346 346 345 344 345 347 347 346 345 343 341 340 340 340 337 337 336 333 333 334 335 333 331 328 327 321 315 317 321 326 329 328 330 330 331
328 331 337 341 343 345 347 346 345 344 343 343 344 346 347 346 344 342 340 340 340 339 335 335 333 332 332 333 334 331 328 326 322 315 316 321 319 327 327 327 326 326 326
333 335 332 339 342 344 347 346 344 342 342 342 344 344 346 344 342 341 339 339 338 337 334 332 332 332 331 331 332 329 327 325 316 313 314 315 319 325 326 326 325 325 324
334 335 334 336 338 341 344 343 341 341 341 341 343 343 344 343 340 340 339 338 337 336 335 333 332 331 330 329 330 328 326 323 318 315 315 315 323 325 325 325 324 323 322
333 333 333 333 332 332 340 339 338 339 339 340 341 341 341 340 338 338 338 338 337 335 333 332 330 329 328 327 327 328 325 324 315 315 316 315 324 324 325 325 323 322 321
329 330 330 329 327 328 337 336 336 338 338 339 339 338 338 337 337 337 336 336 335 333 332 330 328 327 326 324 327 326 325 323 314 315 315 318 324 323 324 323 322 321 320
328 329 329 327 327 328 330 334 334 336 336 336 336 336 334 335 334 332 333 334 333 332 331 329 328 324 320 322 324 324 322 317 316 317 316 324 323 323 322 322 321 320 319
324 325 327 327 327 326 326 326 327 328 332 332 332 329 329 328 329 330 331 332 332 331 330 328 326 322 317 308 308 317 315 316 316 317 318 325 322 322 321 320 319 319 319
323 325 326 326 326 324 322 323 327 325 325 325 325 327 328 328 327 327 327 325 324 325 320 319 313 312 310 305 304 306 309 311 311 314 322 325 323 322 320 319 318 317 316
320 321 325 326 325 324 322 321 325 324 324 323 325 325 324 323 320 320 320 319 318 316 314 311 312 308 306 305 304 304 305 305 306 308 318 324 324 322 321 319 317 316 315
316 317 319 322 323 323 322 323 324 323 323 324 324 324 323 319 317 316 316 315 314 312 311 312 309 307 305 305 303 303 303 304 304 306 307 321 324 323 321 319 318 316 313
317 316 317 318 319 321 321 320 321 323 323 325 325 324 322 319 319 316 315 314 314 312 313 312 309 307 305 303 301 302 304 305 305 306 308 311 319 323 322 319 316 316 313
316 317 317 318 319 318 317 319 321 322 325 324 324 325 322 321 319 317 314 315 314 312 314 311 309 308 305 304 302 302 303 306 306 306 309 310 315 320 320 318 316 316 313
316 316 318 319 318 318 317 318 317 319 322 322 323 324 324 323 321 318 316 316 316 314 314 311 310 308 305 303 301 301 301 302 305 306 307 308 309 311 316 318 315 311 309
316 316 316 317 316 315 315 315 314 315 316 316 320 321 322 323 322 321 318 317 317 316 314 313 310 308 304 301 301 300 300 301 300 306 306 306 306 306 305 315 314 312 309
316 315 315 315 315 314 315 315 314 315 316 315 315 318 320 321 322 321 319 317 316 314 312 310 309 308 305 303 304 303 300 300 300 299 300 305 304 304 302 303 305 304 311
315 314 312 312 313 314 313 312 311 311 313 313 314 317 320 321 322 320 318 315 315 313 313 311 309 307 305 303 301 300 300 300 299 299 298 298 299 301 301 300 299 298 302
313 312 311 310 311 312 312 312 311 312 315 315 315 317 320 322 323 321 319 316 316 313 312 310 309 305 304 304 301 299 297 300 301 301 299 299 297 299 299 299 298 297 297
312 312 311 311 311 312 313 312 314 314 314 314 315 316 320 323 325 323 321 320 317 315 312 310 308 306 304 304 303 302 296 295 296 298 300 300 300 298 299 299 299 299 298
311 313 313 313 311 313 314 313 313 313 312 315 315 317 321 323 324 324 323 321 317 317 313 311 309 307 307 305 304 304 300 298 294 293 297 297 298 299 298 297 298 298 297
313 312 312 313 313 313 315 315 315 314 316 316 315 316 321 323 324 324 324 322 318 315 315 313 311 310 310 307 304 302 300 299 297 295 293 295 298 298 298 297 296 296 297
314 313 312 312 313 314 315 317 318 317 317 314 314 316 319 322 323 324 324 322 321 317 315 313 311 311 310 306 304 301 301 300 298 297 295 296 295 297 296 295 295 295 295

GFSSE_sfc_thetae_081.txt.gz
Theta_e
339 346 348 350 349 348 348 348 347 347 347 347 347 348 348 348 348 347 346 345 343 344 342 341 342 339 338 338 337 337 337 338 338 336 335 335 335 336 335 334 335 330 336
335 344 347 348 348 347 348 348 347 347 347 347 347 347 347 346 346 345 344 342 344 344 341 340 339 338 338 336 335 335 335 335 336 335 334 334 335 334 334 333 334 330 333
332 337 346 346 347 348 348 348 348 349 349 348 348 347 347 346 345 344 342 343 343 343 341 340 340 339 338 338 332 332 332 332 333 330 330 323 326 334 334 336 338 336 335
331 334 344 345 346 346 347 347 347 349 348 347 347 347 346 345 344 343 342 341 343 343 341 340 339 337 336 337 333 330 329 329 328 326 320 321 325 331 334 334 333 334 334
330 331 341 343 343 344 345 346 347 346 346 346 346 347 346 344 344 342 340 340 342 342 339 337 334 334 335 334 332 329 328 327 326 321 316 318 321 327 331 329 328 330 330
329 330 338 340 340 341 342 344 346 345 344 345 345 346 345 344 343 341 339 339 341 341 336 333 333 334 335 332 330 329 326 325 322 315 316 322 320 328 328 327 326 326 326
326 329 331 338 337 341 343 345 344 344 343 344 344 344 343 342 341 340 338 338 338 338 335 331 333 336 333 330 329 327 325 323 314 313 314 315 320 327 327 326 325 324 324
329 330 333 336 338 339 343 342 341 342 342 343 343 343 341 341 340 339 338 337 336 335 333 332 332 333 331 329 328 326 325 323 316 314 314 317 324 327 327 325 323 322 322
333 329 328 331 331 332 336 337 338 339 340 341 341 340 339 338 338 338 337 336 334 333 331 330 328 331 331 329 327 325 323 321 313 314 316 316 325 326 325 324 322 322 321
329 328 327 329 328 328 329 335 335 337 338 339 340 338 336 336 336 336 334 333 333 332 330 328 327 328 330 329 326 325 323 320 312 313 314 319 325 325 325 323 322 321 320
328 328 329 327 326 326 327 328 333 337 337 337 338 336 333 334 333 331 331 332 332 331 330 327 325 328 328 327 326 324 320 314 314 314 316 325 324 325 324 322 321 320 319
324 326 326 326 323 324 325 330 329 332 335 336 336 334 332 331 329 330 330 331 331 330 328 326 323 320 317 314 320 320 314 315 315 315 316 324 323 323 322 322 320 319 318
324 325 325 324 324 323 321 323 325 326 328 331 331 331 328 328 329 327 326 325 323 322 316 313 312 307 304 307 309 311 313 313 313 315 320 324 323 322 321 319 319 318 317
322 323 325 324 323 321 321 320 323 323 325 328 328 327 326 324 321 321 320 318 317 315 312 310 307 305 303 305 308 309 309 309 310 313 319 324 323 322 321 320 318 317 316
318 322 324 323 321 320 319 319 322 324 324 325 326 326 324 322 319 317 316 314 315 312 312 308 306 304 303 302 304 305 305 305 307 309 312 323 323 322 321 320 318 316 315
317 317 321 323 322 320 319 321 321 324 325 325 324 323 321 320 317 316 313 312 312 311 313 309 306 303 302 301 301 302 303 302 303 304 307 315 322 323 322 320 319 317 314
317 317 318 320 322 321 319 320 322 322 324 324 324 321 320 318 315 314 312 311 310 311 312 309 306 304 301 301 300 302 304 303 303 304 306 308 313 321 322 320 317 316 315
317 317 319 320 319 319 318 321 321 323 323 323 323 321 319 319 317 315 313 312 312 312 312 309 307 304 302 300 299 299 302 304 303 304 306 308 310 313 317 319 318 315 311
317 317 318 317 316 316 316 315 317 320 322 323 323 320 320 320 319 316 314 314 314 312 312 310 308 306 303 301 300 299 299 301 303 306 305 307 307 308 308 318 317 314 311
316 317 317 316 315 315 315 314 314 314 315 318 319 321 322 321 320 318 316 314 314 312 311 309 308 306 304 301 302 300 298 299 298 301 303 305 305 306 305 306 307 306 312
315 314 315 314 314 314 313 312 314 316 313 314 316 319 321 321 320 319 317 315 315 313 312 310 307 306 303 301 300 299 299 298 298 297 298 300 302 303 302 301 301 299 303
314 313 313 313 313 314 314 313 315 315 315 315 314 317 317 318 320 319 317 315 314 312 310 309 308 305 305 302 299 298 295 298 299 299 297 297 297 298 300 300 299 298 296
311 311 311 313 313 314 314 312 313 313 314 313 312 311 315 318 320 320 318 316 314 313 311 310 308 306 304 302 303 301 296 295 298 300 298 297 297 296 297 297 298 298 297
311 313 310 310 312 314 313 310 309 310 309 307 308 311 313 318 319 321 320 317 315 314 311 310 311 307 308 303 304 304 302 299 297 296 299 299 300 300 298 297 297 297 298
312 312 311 310 310 311 312 311 310 309 308 309 311 312 312 315 318 320 320 319 317 315 315 312 309 308 308 307 306 301 300 299 299 297 295 297 299 299 300 300 299 298 298
311 311 311 310 310 310 311 311 310 310 311 312 311 312 313 314 317 319 321 321 320 318 316 313 313 310 308 308 306 303 302 301 300 299 297 297 297 300 299 298 297 297 297

GFSSE_sfc_thetae_084.txt.gz
Theta_e
338 344 347 349 349 349 347 348 349 349 349 349 349 349 349 349 348 347 347 346 346 345 342 341 340 339 339 339 339 338 339 338 336 338 336 336 336 336 335 334 336 332 338
342 345 346 348 348 348 348 347 348 349 350 349 349 349 348 348 347 346 345 344 344 344 341 339 338 338 337 337 337 336 335 335 336 337 336 337 335 334 335 337 333 331 336
338 345 344 345 348 347 348 348 348 349 349 349 349 348 348 347 346 344 344 344 344 343 340 339 338 336 336 335 335 334 333 332 334 333 332 326 330 338 338 337 337 335 334
334 342 344 345 346 348 347 347 347 348 348 348 348 347 347 346 344 344 344 343 343 344 340 340 340 338 334 333 332 332 331 330 329 327 321 325 329 336 335 334 333 332 332
331 334 343 344 345 346 346 347 347 346 346 346 346 346 346 344 343 344 343 342 342 343 341 340 339 336 333 332 331 329 329 328 327 321 318 320 325 328 330 330 329 328 327
329 331 336 341 344 345 347 347 347 346 345 344 344 344 345 344 343 343 342 341 342 341 337 338 337 334 333 331 330 328 327 326 322 316 319 324 322 329 328 327 326 326 325
328 328 331 337 340 344 346 346 345 344 344 343 343 343 343 343 342 341 340 340 338 337 336 337 335 332 331 330 328 327 326 323 314 314 315 318 322 328 328 327 325 325 324
328 329 331 334 338 339 342 344 343 343 342 343 342 341 341 340 340 339 339 338 335 335 337 337 334 332 330 329 326 326 325 323 316 314 316 320 326 327 326 325 324 323 323
330 329 329 331 332 336 334 338 339 341 341 341 340 339 338 338 337 338 337 335 334 334 336 334 331 330 329 328 327 325 323 321 313 315 317 320 326 326 325 324 323 322 321
329 327 326 328 329 330 330 334 335 337 339 339 338 337 336 336 336 336 333 333 332 331 334 334 331 329 328 327 325 324 323 320 312 314 315 322 326 326 325 324 322 321 320
327 324 326 327 327 326 328 331 335 336 337 336 337 335 333 333 331 329 330 330 330 329 330 332 331 329 326 326 325 323 319 313 314 314 317 326 326 326 324 322 322 321 320
324 325 326 325 324 324 327 327 331 330 332 335 334 333 332 330 326 327 330 330 328 327 328 331 330 328 324 320 320 319 313 314 314 315 318 326 325 325 324 322 321 320 319
325 325 325 323 323 322 323 324 327 329 330 333 333 331 330 327 326 324 324 323 320 321 316 316 314 313 314 314 312 313 313 313 314 315 321 325 324 324 323 322 320 319 318
323 324 324 323 322 321 323 327 327 328 329 331 330 329 327 326 322 320 319 317 314 311 309 306 306 307 309 311 312 312 312 312 313 314 320 324 324 322 322 320 319 318 317
321 323 323 322 320 319 321 323 324 326 328 327 329 327 326 323 321 319 316 314 313 311 308 305 304 305 307 308 309 310 310 310 312 314 315 322 323 323 321 320 319 317 316
318 322 322 320 319 318 319 321 323 324 325 326 326 325 324 322 319 317 313 313 312 312 308 306 304 304 304 305 305 306 307 307 309 311 313 318 322 323 322 320 319 317 315
318 319 321 320 319 319 318 318 321 325 325 324 324 323 321 320 318 316 313 312 311 312 308 306 304 303 302 302 302 303 304 303 305 307 309 313 318 321 322 322 320 317 316
317 318 320 321 320 319 319 319 320 323 324 324 323 322 320 318 317 314 313 312 311 312 309 306 304 302 301 300 300 302 304 304 304 304 307 310 312 316 320 319 320 317 314
317 318 318 319 318 317 318 319 321 321 322 322 321 320 319 318 317 315 314 313 312 313 310 308 306 304 302 300 300 300 302 304 304 305 305 308 310 312 311 318 318 317 314
317 318 316 316 316 316 315 316 318 318 318 322 320 319 319 318 317 315 314 314 313 312 310 308 307 306 303 302 302 300 299 300 301 302 304 306 308 309 309 311 312 311 314
316 316 315 314 315 315 315 315 316 316 316 318 319 319 319 319 318 316 315 315 314 311 311 309 307 306 304 301 300 300 300 299 299 298 300 303 304 306 306 306 306 305 306
314 315 315 314 314 316 316 316 317 316 314 315 316 319 320 319 319 318 317 314 313 312 310 309 308 306 305 302 299 298 297 299 300 300 298 300 302 303 304 304 302 302 300
312 313 314 313 314 315 316 313 312 313 314 313 313 314 317 319 320 320 318 316 314 313 311 310 307 306 304 302 302 300 296 295 298 300 299 299 299 298 300 301 301 301 301
312 313 313 314 313 314 315 313 310 313 312 314 311 313 315 318 318 319 318 316 314 314 311 311 310 307 306 303 302 303 302 302 299 297 299 300 300 300 299 299 299 300 300
312 312 311 312 312 312 313 313 309 312 313 306 308 309 310 313 316 318 318 316 314 314 313 311 309 306 306 305 303 301 301 299 300 299 298 297 299 301 302 301 301 300 299
312 312 312 309 310 312 312 310 308 307 307 307 307 308 309 311 313 315 318 318 317 316 314 312 311 309 310 309 306 304 303 301 301 299 298 299 299 301 301 300 298 299 299

GFSSE_sfc_thetae_087.txt.gz
Theta_e
341 347 346 349 349 349 350 349 348 348 349 350 349 349 349 349 349 349 349 348 347 347 345 343 344 342 340 339 338 340 339 339 339 339 339 339 338 338 337 339 340 338 340
344 348 346 348 349 349 350 349 348 349 350 350 349 348 348 348 348 348 347 347 346 345 342 341 340 339 339 338 338 338 338 338 337 337 338 336 336 336 335 336 338 336 337
345 348 347 347 348 348 350 350 350 350 350 350 349 349 348 348 347 346 345 344 344 343 340 339 338 338 339 338 336 336 336 336 336 335 337 334 335 337 337 338 336 334 334
345 348 347 345 346 348 348 349 349 350 349 348 349 348 347 346 345 345 344 343 343 342 339 338 338 337 336 335 334 333 333 332 330 332 334 334 333 336 335 334 333 332 332
340 344 347 344 344 347 347 349 349 348 348 347 347 347 346 345 345 345 343 342 342 343 341 338 336 334 333 334 333 332 331 329 331 331 329 329 328 331 332 330 329 328 329
338 335 334 340 342 346 347 348 348 347 346 345 346 346 345 345 345 344 342 342 342 342 341 339 335 332 333 332 331 330 328 327 329 329 328 329 327 330 329 328 327 327 326
336 335 334 335 340 342 347 347 346 345 344 344 344 343 343 344 344 342 341 341 341 341 341 337 333 331 331 330 329 328 327 327 326 326 326 326 327 328 328 327 326 325 325
335 335 333 335 338 338 341 344 343 343 343 342 342 341 342 342 342 341 340 339 338 339 338 335 333 331 330 329 327 327 326 326 326 325 326 326 328 327 327 326 325 324 323
332 335 335 334 335 332 335 338 339 340 341 340 340 339 339 339 339 339 338 336 337 337 336 334 332 330 329 328 327 325 324 326 325 325 324 325 326 327 326 325 324 323 322
331 332 334 335 337 334 332 333 334 337 338 339 338 337 336 336 337 336 334 335 337 337 335 332 331 329 328 327 326 324 324 324 325 325 324 325 326 326 326 324 323 323 321
330 330 330 331 333 335 332 334 335 337 337 337 337 335 334 338 336 333 331 333 336 335 332 331 330 328 327 326 325 324 323 323 324 324 324 327 326 326 325 324 322 321 321
325 328 329 328 329 328 333 332 334 336 337 337 336 337 336 337 334 331 330 330 333 333 331 330 329 327 324 323 322 321 321 323 323 324 324 327 326 326 324 323 322 321 320
327 327 328 327 327 325 326 328 333 332 333 334 334 336 334 332 331 329 329 326 330 331 329 328 326 324 323 322 320 321 322 322 323 323 324 326 325 325 324 322 321 320 319
326 327 326 324 324 324 324 325 328 330 331 331 331 332 332 329 327 326 325 323 324 327 329 328 324 324 323 321 321 321 321 321 322 322 324 324 326 324 324 322 320 319 318
323 323 323 322 323 322 323 325 327 327 330 330 330 332 330 326 324 324 323 320 319 319 321 321 321 321 321 320 320 320 320 321 322 321 322 323 324 323 322 321 320 318 317
320 323 321 320 321 320 323 326 327 327 329 328 329 331 328 326 324 321 320 318 317 316 318 319 320 320 320 319 319 319 320 321 321 322 321 322 322 323 322 321 319 318 317
319 321 320 319 320 319 320 324 326 327 328 326 327 328 325 323 322 320 318 318 317 315 315 313 315 317 317 317 316 317 318 319 320 321 321 321 321 321 322 323 320 318 317
319 320 320 320 319 320 320 322 324 325 325 325 325 325 324 323 321 320 318 318 319 316 313 313 312 313 313 313 311 312 313 315 318 320 321 321 322 321 321 323 323 320 317
319 319 319 320 319 320 320 323 323 323 324 324 323 323 322 321 320 319 318 318 319 317 315 313 311 311 309 309 309 311 312 311 311 311 315 319 322 322 321 320 320 319 318
319 318 318 319 318 318 319 320 321 322 323 322 321 322 322 321 321 321 320 318 318 317 316 314 313 312 310 309 305 307 310 311 312 311 311 312 318 321 322 321 318 316 316
319 317 316 316 317 317 319 318 318 317 320 320 321 321 322 322 321 322 319 318 319 318 317 317 314 313 311 310 308 308 308 309 310 311 312 312 313 316 320 319 319 317 313
316 316 316 315 316 317 319 319 318 317 319 319 320 320 320 320 320 321 321 319 318 318 319 317 317 314 315 311 310 309 307 308 308 309 309 310 313 313 312 312 314 316 312
315 315 316 315 316 317 318 317 315 316 316 316 318 318 320 321 322 321 321 321 321 320 318 319 319 317 315 312 312 313 306 306 308 310 309 305 306 310 310 307 309 310 308
315 316 316 316 316 317 318 317 315 314 315 317 317 318 319 321 323 322 322 322 322 321 321 321 320 319 318 314 310 310 312 312 309 308 304 305 309 303 308 303 303 304 306
315 315 317 315 315 317 318 318 317 316 318 317 317 318 319 323 324 324 324 325 324 324 323 322 320 319 318 319 315 312 311 310 310 308 307 306 304 308 308 308 304 302 303
314 315 314 315 315 316 317 318 316 319 318 314 317 316 317 319 321 323 325 325 325 324 323 323 322 321 320 319 318 317 313 312 309 307 305 306 305 305 309 306 309 306 304

GFSSE_sfc_thetae_090.txt.gz
Theta_e
346 347 347 350 350 351 351 349 348 349 350 350 350 349 349 350 350 349 349 348 348 348 346 344 345 344 342 342 340 342 342 341 342 342 341 341 341 341 342 343 342 340 342
347 349 345 349 350 351 351 349 349 349 350 350 349 349 349 349 349 349 348 348 348 347 344 342 342 340 340 339 339 339 339 339 339 340 340 338 337 339 339 340 340 338 338
346 349 348 347 349 350 350 350 350 350 351 350 348 348 349 349 349 348 347 346 346 345 342 341 341 340 339 338 338 339 338 338 338 338 339 334 336 337 337 336 337 335 335
343 348 349 346 347 347 348 349 350 351 351 349 348 349 349 349 348 347 346 344 344 343 340 339 341 339 338 337 336 335 334 334 335 338 332 332 333 336 335 334 333 333 333
338 347 348 345 344 346 348 349 348 349 348 347 347 349 348 348 347 345 343 342 342 342 338 338 337 337 336 336 335 334 333 333 335 335 334 331 332 332 332 330 331 331 332
339 345 342 338 342 345 347 347 345 346 346 346 346 347 347 346 346 344 342 341 341 341 338 337 335 334 334 334 333 332 332 332 333 331 331 332 330 330 330 330 328 327 327
339 344 342 333 339 340 341 344 345 346 345 345 345 345 345 345 344 342 341 341 341 341 337 334 333 332 332 332 331 330 329 329 328 328 328 329 329 329 329 328 327 326 326
341 342 343 335 340 338 337 335 342 344 344 343 343 343 344 343 342 341 341 341 341 339 336 333 332 331 330 330 328 328 327 329 327 327 328 328 329 329 328 327 325 325 324
338 339 340 342 341 334 330 329 330 342 342 342 341 341 340 340 339 340 340 340 339 337 334 333 331 330 329 328 328 327 327 330 327 327 326 326 327 327 327 326 324 324 323
334 336 338 339 337 339 337 334 335 338 338 339 339 339 337 338 338 337 337 338 337 335 334 332 331 330 328 327 326 325 325 327 326 326 326 327 327 327 326 325 324 323 322
333 333 333 337 335 334 335 337 334 336 337 337 338 336 335 340 338 337 335 336 336 334 332 331 330 328 327 326 326 325 325 326 326 325 325 327 327 327 326 325 323 323 322
332 333 333 334 337 334 335 336 336 335 337 340 341 340 339 339 338 335 335 335 334 332 331 330 329 327 324 323 324 323 324 326 325 325 326 328 327 326 325 323 322 322 321
331 332 332 331 333 331 335 336 338 333 334 335 337 338 338 337 337 333 335 336 335 330 328 327 326 325 325 323 322 323 324 325 325 325 325 327 326 326 325 323 322 321 320
329 331 330 329 330 330 328 330 332 331 332 331 331 333 339 333 333 331 332 333 332 330 328 328 325 328 326 324 323 324 324 323 324 325 325 325 326 325 325 323 321 320 319
326 328 328 326 327 327 324 326 328 330 332 331 330 331 332 333 331 328 330 331 331 331 330 328 328 327 325 323 323 323 323 323 324 324 325 325 325 325 324 323 322 320 318
325 324 325 323 324 326 324 325 326 328 331 330 330 329 329 331 330 327 327 327 329 331 331 329 327 325 323 322 322 322 322 323 323 325 324 324 323 325 324 322 321 320 318
324 322 322 321 322 322 323 324 328 326 330 328 327 327 326 330 328 327 324 324 325 327 328 327 326 324 322 321 321 321 321 323 322 323 324 324 323 322 323 324 321 319 318
322 322 321 321 320 322 323 323 326 329 328 328 326 324 324 326 326 324 321 321 322 323 322 323 322 320 320 319 319 319 319 321 322 322 323 324 323 322 321 323 323 320 319
321 321 320 320 321 321 323 324 325 325 325 325 325 323 323 325 324 323 321 321 320 318 318 319 319 320 318 317 316 317 317 318 321 320 320 322 323 323 322 321 322 322 321
321 322 320 321 320 321 323 322 323 322 323 324 324 323 325 324 324 322 321 322 320 318 319 319 317 318 317 315 311 312 316 316 316 316 318 320 321 323 323 324 322 321 319
319 320 321 321 320 320 320 318 319 319 321 321 322 324 324 323 323 324 321 322 321 320 321 321 319 317 314 315 310 312 313 315 316 316 317 316 316 321 323 323 322 318 318
318 318 319 322 321 322 321 320 320 320 320 320 321 323 325 324 324 325 324 322 323 321 322 320 318 317 318 316 315 317 313 314 314 315 317 316 317 316 316 321 321 320 316
318 319 318 319 320 322 323 320 318 318 318 318 319 320 323 325 325 325 325 324 324 324 322 322 322 322 319 320 320 318 315 312 319 318 316 316 316 315 315 315 319 317 318
320 321 322 319 319 321 321 320 318 317 317 318 318 320 322 325 326 324 325 325 325 324 323 324 324 324 323 321 320 318 321 320 315 313 317 315 316 312 311 311 314 317 317
319 321 322 320 319 319 321 320 317 316 321 320 319 318 319 322 322 323 325 325 325 325 325 326 325 325 324 323 322 321 319 319 320 316 313 315 315 314 312 313 312 313 314
319 320 322 321 319 319 320 319 317 315 317 317 317 317 318 318 320 322 324 326 326 325 325 326 327 327 325 325 324 323 321 318 317 316 314 316 316 318 315 311 314 314 312

GFSSE_sfc_thetae_093.txt.gz
Theta_e
344 351 350 351 352 352 350 350 349 350 350 351 349 350 350 350 350 349 349 348 348 348 345 346 346 346 345 344 344 345 344 344 343 344 344 344 344 344 343 343 343 341 344
346 350 347 350 351 352 351 350 350 350 351 351 350 349 349 349 349 349 348 349 348 347 344 343 343 343 342 341 342 342 342 341 341 341 342 341 341 341 341 341 341 339 340
342 348 348 348 350 352 351 349 350 351 351 350 349 349 349 350 349 348 348 347 347 346 342 341 341 341 340 339 341 340 340 340 339 340 342 336 336 339 339 337 338 337 337
340 348 349 347 348 350 348 349 350 351 351 350 349 350 350 349 349 348 347 345 345 345 342 342 341 340 338 339 338 338 339 339 340 340 332 331 333 336 337 335 335 335 335
339 344 349 345 346 348 347 347 348 349 348 348 348 349 350 349 348 347 345 343 343 344 342 341 340 338 336 337 336 336 335 334 336 335 331 331 331 332 334 333 332 332 334
337 340 344 338 344 346 346 348 348 347 344 346 347 348 349 348 347 345 342 341 342 342 341 339 338 336 335 335 335 334 333 335 335 332 331 331 330 333 332 330 329 329 330
340 340 348 335 337 341 343 340 341 344 343 345 346 347 347 346 344 342 341 340 340 340 339 336 336 334 334 333 333 332 332 330 329 328 328 328 329 330 330 329 328 328 328
340 343 345 341 337 341 340 330 329 335 341 343 345 345 345 343 342 341 340 340 339 338 336 335 334 333 332 332 330 329 328 329 328 327 327 327 330 329 329 327 326 326 326
340 341 342 344 343 339 335 333 331 333 332 338 342 342 341 340 339 340 340 340 337 335 335 334 333 332 331 330 329 327 326 330 327 327 326 326 329 328 327 326 325 325 325
339 340 341 340 344 344 341 329 331 331 330 336 339 340 338 338 338 339 338 337 335 335 333 332 331 330 329 328 327 326 326 328 326 325 325 326 328 328 327 326 325 324 324
336 336 338 338 342 340 338 332 332 330 329 333 339 337 336 341 341 339 337 335 334 333 332 331 330 329 327 327 326 326 327 325 325 325 325 328 327 327 326 325 324 323 323
335 334 334 336 339 338 333 334 332 328 327 329 343 340 342 342 340 338 336 334 333 332 331 330 328 327 324 323 324 324 326 326 325 324 324 328 327 327 326 324 323 323 322
332 334 333 334 336 336 334 334 332 329 331 335 343 340 341 341 339 339 337 334 331 329 326 326 324 323 323 321 323 325 326 326 325 324 325 328 327 326 326 324 323 322 321
329 333 334 333 333 335 335 335 333 332 327 335 337 339 339 339 338 337 336 333 330 327 326 324 324 327 325 323 324 324 325 324 325 324 325 326 327 326 325 324 322 321 320
327 329 332 332 332 332 333 332 333 331 331 330 332 335 338 336 336 334 335 333 330 329 327 326 326 326 324 324 324 324 323 324 326 324 324 326 326 326 324 324 322 321 319
326 328 329 329 329 329 332 331 328 333 331 330 329 331 332 332 332 332 334 333 330 330 329 327 327 326 323 322 322 323 323 323 324 325 324 324 325 325 325 323 322 321 320
326 327 326 325 325 325 328 328 331 332 330 329 329 332 331 329 331 332 333 332 331 332 334 329 328 325 322 321 321 322 322 323 324 325 324 324 323 323 324 325 322 321 319
325 325 324 324 323 324 326 328 329 329 331 329 329 329 329 329 331 332 330 330 332 332 329 327 325 321 321 320 320 320 321 322 323 324 324 324 323 321 321 323 324 323 320
325 325 323 322 324 325 326 327 327 328 329 328 327 326 325 326 328 329 327 328 330 327 327 326 323 323 321 319 319 320 320 321 322 321 322 324 325 323 322 321 323 322 322
324 323 322 323 324 324 323 323 323 326 326 325 324 323 322 323 325 328 324 323 323 320 321 322 322 324 320 319 316 316 318 319 320 321 321 321 322 324 324 324 321 319 321
323 323 323 320 322 322 322 320 319 319 321 321 321 322 321 321 322 325 323 321 321 321 320 321 322 321 320 319 314 314 316 318 318 317 317 319 320 321 323 323 324 322 321
321 321 322 323 322 323 323 323 320 319 320 320 321 321 321 321 322 322 321 321 322 322 321 322 322 319 319 318 314 315 312 313 316 317 319 318 321 318 320 323 324 324 322
320 321 322 322 323 323 322 323 323 321 320 318 319 319 320 322 322 323 323 323 323 322 323 325 324 322 318 318 321 319 314 312 316 318 319 319 322 320 320 320 320 320 322
322 323 322 322 321 323 326 323 319 318 316 319 319 320 321 323 322 322 324 324 324 326 326 322 324 323 325 320 321 320 324 320 315 314 319 320 321 319 320 319 318 320 319
322 323 324 321 320 323 323 323 321 319 317 319 319 319 321 318 320 320 324 327 325 326 327 326 326 327 326 324 323 322 320 320 321 316 312 317 319 320 319 319 318 317 319
323 322 324 321 320 321 323 323 322 318 317 317 317 316 318 319 317 320 325 326 328 327 326 328 328 328 326 326 326 324 322 318 317 318 316 317 317 319 318 315 316 316 316

GFSSE_sfc_thetae_096.txt.gz
Theta_e
345 347 350 353 352 350 349 349 349 350 350 350 350 351 351 350 349 348 348 348 347 348 346 347 348 347 347 346 345 346 346 345 345 346 346 345 345 344 343 344 343 340 345
346 349 349 351 353 351 349 349 350 350 350 350 350 350 350 350 349 348 348 348 348 348 347 347 345 345 345 344 344 343 343 342 342 343 344 343 343 343 342 343 342 340 342
343 348 348 349 351 351 351 350 350 351 351 350 350 350 350 349 349 348 348 348 348 347 345 345 344 343 342 342 342 342 341 341 341 342 340 335 336 340 340 339 340 339 339
339 348 349 347 350 351 350 349 350 351 351 350 350 349 349 349 349 348 348 346 346 346 343 343 343 341 340 340 341 341 341 341 340 339 331 331 334 338 338 338 337 337 336
339 343 349 345 347 350 349 349 349 349 349 348 349 349 349 349 349 348 346 344 344 345 342 342 341 339 339 338 338 338 339 340 338 332 327 328 329 334 335 335 333 333 333
340 343 343 344 345 347 349 348 346 346 344 346 347 348 349 349 348 347 344 343 344 344 343 340 338 337 337 336 335 335 335 335 334 327 326 330 329 335 334 332 331 331 332
342 344 345 341 340 340 346 346 341 336 336 342 345 344 346 346 346 344 342 342 342 342 342 338 336 335 335 334 334 332 330 331 329 324 324 325 327 331 331 330 330 329 329
345 346 343 340 338 338 342 337 336 336 330 335 339 342 345 344 343 341 341 340 340 340 339 338 336 335 334 333 330 328 328 330 327 323 323 323 329 330 329 328 327 327 327
344 343 345 346 342 338 338 334 333 334 332 332 329 334 342 340 340 340 340 339 338 337 336 335 334 333 333 331 328 327 327 329 323 323 324 323 330 328 328 327 327 326 326
340 342 341 341 343 342 336 332 330 332 331 329 330 331 337 336 338 338 337 337 337 335 334 333 332 332 330 328 326 327 326 330 322 322 322 324 328 328 328 327 326 326 325
336 338 338 338 341 342 340 333 331 333 329 326 330 327 335 337 337 337 335 335 335 333 332 332 331 329 327 326 327 326 326 321 322 322 322 328 328 328 327 326 325 325 324
335 335 333 336 337 338 337 334 330 330 330 328 328 326 337 336 337 336 333 333 333 332 331 330 328 326 324 319 320 323 320 322 321 321 322 328 328 327 326 325 324 324 323
334 333 333 334 336 336 333 333 329 328 328 327 326 323 336 337 335 334 330 330 328 329 326 325 322 319 317 317 319 320 322 322 321 321 324 327 328 327 326 325 324 323 322
332 333 334 335 334 334 334 331 329 327 324 328 328 330 335 334 334 332 329 327 323 323 320 318 318 319 317 318 320 321 320 322 321 321 323 326 327 326 326 325 324 322 321
330 331 333 332 333 332 331 332 331 328 327 329 330 333 335 333 333 332 328 323 321 321 319 318 320 319 319 318 320 319 319 321 320 321 320 325 326 326 325 324 323 322 321
328 329 331 330 331 330 330 330 331 329 327 330 332 334 334 333 332 330 327 323 323 322 321 320 322 320 318 319 319 319 319 320 320 320 320 321 324 325 326 324 323 322 321
327 327 327 327 326 327 329 329 329 330 329 328 328 329 332 332 330 329 328 324 326 324 322 323 322 321 317 318 318 319 319 319 320 320 319 319 320 323 324 325 324 322 321
326 324 325 325 324 325 329 327 327 330 328 327 327 328 328 328 329 329 328 326 326 326 324 325 321 318 316 316 315 316 316 317 319 320 319 319 319 319 322 324 324 324 321
326 324 324 324 323 324 326 328 327 328 329 327 327 328 327 326 327 328 328 327 327 327 326 323 320 317 315 315 316 316 317 316 317 318 319 318 318 318 318 321 322 323 323
324 323 323 322 324 324 324 324 327 327 328 328 326 327 326 325 326 326 324 325 325 324 321 320 318 318 316 315 315 315 314 316 317 316 316 319 319 318 317 317 318 318 321
322 322 322 322 322 322 320 319 322 322 325 324 326 326 325 323 322 321 320 321 319 318 318 320 317 314 314 314 312 312 310 314 314 315 316 316 317 319 318 319 317 316 317
321 321 322 321 322 322 321 320 320 321 321 321 321 321 322 320 321 319 318 318 319 318 317 317 316 315 314 314 309 308 306 309 311 313 312 312 313 316 318 319 318 317 316
319 320 321 322 322 322 322 320 319 320 319 318 318 318 319 320 320 320 319 318 319 319 318 318 318 316 313 314 313 313 309 307 308 311 312 313 311 313 313 316 318 318 318
319 321 321 323 323 321 322 320 318 316 314 316 317 317 318 319 320 320 322 321 320 321 319 319 320 318 318 312 313 315 316 316 309 307 311 313 314 315 313 313 312 315 316
321 322 321 322 322 322 322 321 319 317 317 316 315 314 317 318 319 320 321 321 321 321 321 321 320 319 319 319 317 316 314 315 315 311 307 311 313 314 315 315 314 312 313
322 321 322 321 321 322 323 321 319 318 316 314 314 313 315 317 318 319 320 321 321 321 321 321 321 321 321 320 319 319 316 314 313 311 310 310 310 313 315 314 314 314 312

GFSSE_sfc_thetae_099.txt.gz
Theta_e
342 348 350 350 350 349 349 349 349 349 350 352 352 351 350 350 349 349 348 347 348 349 348 349 350 347 348 348 348 348 347 346 346 346 346 345 346 346 345 345 344 341 346
344 348 348 349 349 349 349 349 350 350 350 352 351 350 349 349 348 348 347 347 348 349 348 348 347 346 347 346 346 345 344 343 343 344 345 345 344 344 343 343 342 341 344
344 347 349 349 349 349 350 350 350 351 351 351 351 350 349 349 348 348 347 347 349 349 346 345 345 345 345 345 344 344 343 341 340 341 341 337 336 342 342 342 341 340 340
345 345 346 348 349 349 349 349 350 351 351 351 350 350 349 349 348 348 348 347 348 347 344 345 345 344 343 343 342 342 342 340 339 338 333 334 336 341 340 339 338 338 338
339 345 346 346 348 349 349 348 349 350 348 349 349 350 350 349 349 348 346 345 346 346 343 343 343 342 341 340 340 340 340 337 335 330 327 330 331 337 338 336 334 334 334
336 345 342 343 346 349 349 348 349 349 347 347 348 349 349 348 349 347 345 344 344 344 344 340 340 340 338 337 337 337 337 334 330 325 327 332 331 335 335 333 334 332 331
337 341 342 341 344 347 349 349 346 345 346 344 343 344 344 344 346 345 343 343 342 342 341 340 339 338 336 335 335 333 330 330 324 324 324 327 329 333 332 331 330 329 329
335 341 340 341 341 342 344 346 341 339 340 340 340 340 340 342 343 343 343 342 341 341 339 338 337 336 335 334 332 329 327 329 325 322 321 324 330 331 331 329 328 328 328
334 335 337 337 339 339 339 338 336 336 338 338 338 332 333 338 339 341 341 341 340 339 338 337 335 334 334 331 329 326 328 327 322 322 323 323 330 329 329 328 327 327 327
333 334 334 335 336 334 334 334 335 333 334 335 334 333 331 328 336 338 338 339 338 338 336 335 333 332 331 328 326 327 328 327 322 321 321 323 328 329 328 328 327 326 326
330 331 331 333 335 335 330 330 332 334 332 332 332 331 328 326 335 335 336 336 336 335 335 333 332 330 328 326 326 326 324 321 321 321 321 328 328 329 328 327 326 325 325
328 329 329 331 333 335 334 330 326 328 327 325 328 326 324 328 333 333 334 334 334 333 332 331 330 328 323 317 318 322 320 320 320 320 322 328 328 328 327 326 325 325 324
330 328 327 329 332 331 330 328 327 328 328 325 325 325 324 331 334 331 330 329 328 330 326 325 324 317 316 316 315 316 318 319 320 320 324 328 328 327 327 325 325 324 323
328 327 327 327 329 329 328 327 326 325 328 326 326 325 326 331 331 329 327 325 325 323 320 317 314 314 314 316 317 318 318 319 319 320 323 326 327 327 327 325 324 323 322
327 327 326 326 326 327 327 328 327 325 324 326 324 324 324 332 329 327 324 322 320 319 316 313 314 314 312 314 316 317 318 318 319 320 320 325 326 327 326 326 324 323 321
326 325 325 325 325 325 325 326 327 326 324 325 327 327 326 332 329 324 321 318 318 317 314 313 314 314 312 315 314 317 318 318 318 319 319 321 324 326 326 325 324 324 323
323 323 322 323 325 323 327 325 328 327 327 328 329 327 332 332 329 323 318 318 317 316 315 316 316 315 313 315 315 315 318 317 318 318 318 318 320 322 324 325 324 323 322
320 321 321 325 322 323 326 324 326 326 326 328 330 329 332 331 328 322 318 320 319 319 317 320 317 313 312 313 311 313 314 317 317 317 318 318 317 319 322 324 325 324 322
320 320 320 322 321 323 324 323 323 327 325 327 329 328 329 328 328 324 320 322 320 321 319 320 315 314 311 311 312 311 312 314 317 318 317 317 317 316 316 322 323 323 324
318 320 322 320 320 323 322 322 321 323 325 324 327 327 326 325 327 325 323 323 322 320 320 318 314 313 312 312 315 312 311 314 314 315 317 317 316 316 316 316 318 318 321
318 321 319 320 321 320 320 320 320 322 324 324 325 326 325 324 322 323 323 322 320 321 320 318 313 313 311 311 309 308 309 312 313 313 313 315 316 315 315 316 316 316 317
318 320 320 321 320 321 320 320 321 323 325 324 325 325 324 322 319 320 320 318 319 317 317 314 313 311 310 309 308 308 304 306 310 310 311 313 313 316 316 315 315 315 315
318 319 320 320 319 321 320 320 320 321 321 321 323 322 321 321 319 318 319 319 318 317 315 314 314 312 310 310 310 307 306 304 305 309 309 308 309 311 313 316 316 315 315
318 320 321 321 320 321 318 319 318 317 316 318 320 322 319 320 319 318 319 319 318 317 317 315 315 313 312 309 310 312 313 314 308 305 308 308 309 309 310 310 315 316 316
317 318 320 321 320 321 320 318 318 317 317 318 317 317 318 318 320 320 320 319 318 318 318 318 317 317 316 312 312 311 310 310 311 308 305 308 308 310 312 311 312 311 315
317 318 320 320 319 320 320 319 318 315 315 313 315 315 315 317 318 318 319 319 319 319 319 320 319 318 317 317 316 315 314 310 309 309 307 308 308 310 311 312 313 313 313

GFSSE_sfc_thetae_102.txt.gz
Theta_e
342 347 349 350 350 349 348 349 349 349 350 351 351 351 351 351 351 351 350 350 351 352 350 350 352 352 351 349 349 349 348 347 346 347 346 346 346 346 345 345 344 341 346
343 348 347 349 349 349 349 349 349 350 351 351 351 350 349 349 349 349 349 349 350 351 349 350 350 348 347 347 347 346 346 345 344 345 346 345 344 344 344 344 343 342 344
344 348 347 347 349 349 350 350 350 351 351 351 350 349 349 348 348 348 348 348 349 350 347 347 348 347 346 346 345 344 343 342 342 342 343 338 338 343 343 342 342 343 342
343 347 347 346 347 349 349 350 350 351 351 351 350 349 349 348 348 348 348 347 348 349 344 346 347 346 345 344 343 342 341 340 339 339 335 336 338 342 342 340 340 339 338
342 344 347 345 346 348 348 349 349 349 350 349 349 349 349 348 348 348 347 346 345 345 343 346 345 345 343 342 340 340 339 337 335 331 327 330 334 338 339 337 336 335 335
341 343 343 344 345 347 348 349 349 349 348 348 348 348 348 348 348 347 346 345 345 346 345 345 345 343 341 339 338 336 334 332 330 326 330 334 333 337 335 334 334 334 333
339 341 341 341 345 347 348 348 348 348 346 347 346 344 344 343 343 344 344 344 344 343 343 343 342 339 338 337 336 334 332 331 325 324 326 329 331 335 334 331 331 331 330
337 339 339 343 344 346 347 346 345 344 344 343 342 338 336 338 337 340 343 342 341 340 339 340 338 337 336 334 332 331 330 329 325 321 326 328 333 333 332 331 330 329 329
337 335 336 337 340 340 340 343 340 340 341 339 339 336 335 336 335 338 339 340 340 339 339 338 336 335 334 332 330 330 328 327 321 321 324 327 332 331 330 329 327 327 327
332 334 333 334 335 335 335 337 335 335 337 335 336 335 332 333 334 336 337 339 339 338 338 336 335 333 331 329 329 328 327 327 320 319 320 325 329 329 329 328 327 326 327
330 330 331 333 332 333 331 335 334 336 336 335 335 332 329 328 333 333 335 337 338 336 336 334 333 331 329 328 328 327 325 321 320 320 319 326 329 329 328 327 326 326 326
325 327 328 329 330 332 333 330 331 332 333 332 331 330 328 328 327 328 333 335 336 335 334 333 331 329 324 320 323 324 320 320 320 320 321 328 329 329 328 327 326 326 325
327 327 326 328 330 332 330 328 327 329 327 325 325 324 326 326 329 329 332 332 331 332 328 327 326 320 317 316 317 318 319 319 319 320 324 328 329 328 328 327 326 325 324
326 325 325 326 329 328 328 327 326 327 326 322 324 322 322 325 325 330 331 328 327 325 321 319 317 315 315 315 317 317 317 318 317 320 324 326 328 328 327 327 325 324 323
325 325 323 324 325 326 326 325 325 325 327 327 325 324 324 328 326 330 327 326 323 320 318 314 312 313 313 315 317 317 317 317 318 319 320 325 326 327 327 327 326 324 323
326 324 323 323 324 324 324 328 327 325 325 327 326 325 325 327 329 327 324 322 318 317 315 313 311 311 311 315 315 317 317 317 318 317 319 321 324 326 327 326 325 324 323
325 323 321 322 322 322 323 326 328 326 325 324 325 324 326 328 327 324 321 318 316 313 312 312 310 311 311 314 315 316 316 316 317 317 317 317 320 323 325 326 325 324 323
323 321 321 323 321 322 322 323 327 326 326 326 326 326 326 329 325 320 317 315 314 311 313 314 313 311 312 313 313 315 315 316 316 316 316 316 316 318 322 324 325 325 324
320 319 317 318 319 321 325 321 326 324 326 327 328 326 329 327 322 318 316 314 315 312 314 316 313 313 311 311 312 312 312 313 314 317 316 315 315 315 315 322 323 323 324
318 318 317 317 319 322 323 321 322 325 324 327 328 326 330 325 321 317 317 315 315 313 316 316 312 311 311 311 313 312 313 313 314 314 316 317 315 315 315 315 317 318 321
316 316 317 316 320 321 319 319 318 321 322 324 327 328 328 325 321 317 319 316 317 315 317 315 312 311 309 310 308 306 308 313 314 314 316 315 314 314 313 315 316 315 316
316 315 316 317 321 320 319 318 318 321 324 323 325 326 326 325 323 319 321 318 320 318 316 314 312 309 308 309 307 305 304 306 309 311 313 315 313 315 314 315 314 315 315
314 315 317 317 319 319 320 320 320 321 324 321 322 321 322 322 323 322 322 320 320 319 317 315 313 311 311 308 311 306 302 301 304 307 308 311 311 311 313 314 314 314 314
314 316 317 317 316 318 320 320 319 319 319 321 322 321 318 319 320 321 319 320 319 318 316 315 314 311 310 309 309 311 312 311 304 305 308 307 308 310 312 312 314 315 314
316 316 316 317 317 318 319 319 319 318 320 321 322 319 317 317 319 321 320 318 318 317 316 315 313 312 311 310 309 308 307 309 310 307 303 306 307 308 308 309 311 313 315
315 316 317 316 317 318 318 319 318 316 316 317 318 318 316 317 318 319 320 320 318 317 317 318 317 315 314 312 312 312 310 308 308 308 305 306 306 309 310 311 311 311 312

GFSSE_sfc_thetae_105.txt.gz
Theta_e
341 344 348 349 350 349 349 349 349 349 350 352 352 352 352 352 351 351 351 351 351 352 351 352 351 351 351 349 348 348 347 346 346 346 347 346 346 346 345 345 345 340 345
342 345 346 349 349 349 349 349 349 350 351 351 352 351 351 351 351 351 351 351 351 351 349 350 352 349 348 348 347 347 346 344 344 345 346 345 345 344 344 344 343 341 344
343 346 345 347 349 349 349 349 350 350 351 351 350 350 350 350 350 350 350 350 350 350 348 349 350 349 347 346 346 345 345 344 343 343 343 339 339 343 343 342 342 342 342
344 346 345 346 347 348 349 349 350 351 351 350 350 349 350 349 349 349 349 348 348 345 349 348 348 346 346 345 343 343 342 341 340 341 338 337 338 342 342 340 341 341 341
342 346 345 344 345 347 348 348 349 350 349 349 348 349 349 348 348 348 348 347 346 344 345 348 347 345 343 341 341 340 339 338 337 334 334 332 334 339 340 339 337 337 337
340 344 344 343 344 347 348 348 349 349 348 347 347 347 348 347 348 348 346 345 345 345 347 346 344 343 340 339 338 337 335 334 332 329 333 335 333 338 337 335 335 335 335
338 340 342 341 343 347 349 348 348 348 347 346 344 341 342 344 344 343 343 344 344 344 345 344 342 341 339 337 336 334 333 332 326 326 328 331 332 336 335 334 333 332 331
337 338 339 343 344 345 346 347 345 345 345 344 341 340 340 339 339 340 340 341 342 340 341 340 339 339 336 334 333 332 330 330 326 326 327 329 335 334 333 332 330 330 329
336 335 336 338 342 343 342 342 341 342 341 340 338 338 337 337 336 337 336 339 339 339 339 338 337 336 333 332 331 330 328 327 322 325 328 328 334 332 332 330 329 328 328
333 332 333 334 335 335 338 340 339 339 337 336 335 334 334 335 334 332 335 336 337 338 338 337 335 333 331 331 330 328 327 326 320 319 323 328 332 331 330 329 327 327 326
328 330 330 331 332 331 332 334 337 337 336 336 334 333 332 333 334 334 333 335 336 337 336 336 334 330 329 330 329 328 325 321 319 318 319 330 329 329 328 327 327 327 326
325 326 329 329 329 329 333 332 331 333 334 334 333 332 330 330 331 331 332 334 335 335 335 334 331 328 327 325 325 324 321 320 319 317 318 328 329 329 328 327 326 326 326
326 325 326 326 328 331 329 329 331 332 332 332 331 329 328 329 330 327 329 332 332 333 329 329 325 317 319 322 317 319 319 318 317 318 322 328 329 328 328 327 326 326 326
324 325 325 325 329 332 329 327 327 329 327 327 329 328 326 325 326 326 330 332 329 327 324 323 317 315 315 316 318 318 318 317 316 317 322 327 329 328 328 327 327 326 325
323 324 323 324 326 328 328 326 324 326 326 325 326 325 325 324 325 327 330 329 327 323 322 319 314 313 314 316 317 317 316 316 317 318 318 325 326 328 327 327 326 325 324
325 323 321 323 324 324 324 326 326 326 327 325 325 324 324 325 325 326 328 327 323 323 320 317 314 314 313 315 315 316 316 316 316 316 318 321 324 326 327 326 326 325 324
325 323 321 321 321 322 322 327 326 325 325 326 325 324 323 327 326 328 327 324 322 319 315 312 310 310 311 315 314 316 316 316 316 316 316 317 320 323 325 327 325 324 323
323 322 320 323 320 320 320 327 327 326 325 325 326 326 324 326 328 326 325 321 318 314 314 313 311 309 313 314 313 313 314 315 315 315 315 316 316 318 322 324 326 325 323
323 321 320 318 318 319 320 321 326 326 324 325 326 324 325 325 328 326 322 317 314 313 313 312 308 310 311 312 312 311 313 314 315 317 315 315 315 316 317 322 323 324 324
321 320 318 316 317 319 321 321 324 324 325 327 326 326 324 327 324 323 318 314 312 312 312 310 310 309 310 312 314 312 311 311 313 313 314 316 316 316 315 315 317 317 321
316 316 316 315 316 318 320 319 319 321 322 324 327 325 326 323 322 319 314 312 310 311 313 311 310 309 308 310 310 307 308 310 311 312 314 314 314 315 314 314 313 314 315
315 315 315 315 317 318 319 317 319 321 323 322 325 326 324 322 318 317 313 311 310 313 313 312 310 307 307 310 307 306 302 305 309 311 313 313 312 314 314 314 313 314 314
314 314 315 317 317 318 320 319 319 319 322 321 322 325 322 320 318 317 314 313 312 316 314 312 312 308 309 306 310 306 301 301 303 306 309 311 311 312 313 314 314 314 314
314 314 315 318 315 316 318 318 318 317 318 321 321 323 324 321 320 320 316 316 315 318 316 314 314 311 310 308 306 312 311 308 303 301 306 308 312 312 312 312 314 313 314
313 315 316 316 314 315 318 318 317 319 321 321 319 318 321 322 321 321 320 319 318 318 317 315 313 311 312 310 310 307 308 309 309 306 302 306 307 309 311 312 313 313 313
314 313 315 316 316 315 316 319 319 318 319 320 318 316 318 320 319 320 320 319 317 317 315 315 313 312 312 311 311 310 309 308 307 308 306 307 306 308 309 309 309 311 312

GFSSE_sfc_thetae_108.txt.gz
Theta_e
338 341 347 349 350 348 349 349 349 350 352 352 352 352 352 352 352 351 351 351 351 352 353 353 352 353 351 350 350 349 348 347 347 347 348 348 347 346 346 345 345 341 345
339 342 346 348 349 349 349 349 350 351 353 353 352 352 352 351 351 351 351 351 352 353 352 352 353 352 351 349 348 347 346 345 345 345 346 347 346 345 345 344 344 342 345
339 343 345 345 349 349 349 350 350 352 353 353 352 352 351 351 351 351 351 350 351 351 350 350 352 350 348 347 345 344 345 344 344 343 344 340 340 344 343 344 344 344 343
342 343 343 346 348 349 348 349 350 352 352 352 350 351 351 351 351 351 350 349 349 349 349 349 349 348 347 346 345 344 343 343 342 341 338 338 339 343 342 341 342 342 342
342 343 343 345 346 348 348 349 349 350 350 350 350 350 350 350 350 350 348 347 347 348 348 348 347 346 344 343 342 341 340 339 338 336 333 335 337 340 341 340 340 339 340
340 342 341 342 345 347 348 349 349 349 348 347 346 347 348 350 348 346 345 344 345 347 346 346 346 343 341 339 339 339 337 337 336 333 334 336 335 340 338 337 338 337 337
337 340 341 341 343 347 349 348 348 348 346 346 344 343 343 344 343 343 343 342 343 344 344 344 343 341 339 337 337 336 334 333 330 328 330 331 335 338 338 336 334 335 334
335 337 339 342 343 345 347 346 345 345 345 342 341 341 340 341 340 339 339 342 341 342 341 341 340 339 337 336 335 333 332 332 328 328 329 331 336 337 336 333 332 332 330
335 335 336 339 342 342 342 342 341 340 340 340 339 338 338 337 337 338 338 339 340 340 339 339 338 336 335 335 333 331 329 329 325 328 329 330 336 334 333 331 329 329 328
333 333 333 335 338 340 342 339 339 338 337 337 337 335 333 334 335 336 336 338 339 338 338 337 335 334 333 332 330 328 328 328 323 325 326 330 334 332 331 330 329 328 327
328 330 330 332 333 336 339 338 340 334 337 335 336 335 332 333 333 334 334 336 337 337 336 336 333 331 331 330 329 327 325 320 320 322 325 332 331 332 330 328 327 327 326
325 326 328 330 330 330 333 331 335 336 336 335 332 332 332 332 331 331 331 334 336 336 335 334 331 330 328 324 325 324 320 319 319 319 323 330 330 329 328 327 327 326 326
324 325 327 329 328 327 331 333 333 335 334 334 331 330 330 332 331 331 330 333 333 334 331 329 325 322 322 322 318 318 318 318 319 319 324 328 331 328 328 328 326 326 325
323 325 326 326 328 331 330 330 332 331 333 333 331 330 328 330 328 327 328 330 331 329 327 323 318 316 318 317 318 318 317 318 317 318 323 327 328 329 328 327 326 326 325
321 323 324 323 329 329 328 328 328 330 329 331 330 329 328 328 327 326 328 330 328 327 325 319 315 316 315 316 317 317 316 316 317 319 319 325 326 326 328 327 326 325 324
323 323 323 323 326 328 328 327 326 328 327 327 328 327 327 326 326 326 328 329 325 325 323 319 315 314 315 316 316 316 316 317 318 318 319 322 324 327 328 327 326 325 324
323 323 322 322 323 326 327 327 326 326 326 325 326 326 326 326 326 326 328 327 325 323 320 316 312 314 314 316 315 315 316 316 316 317 318 319 322 323 325 327 326 325 324
321 321 322 324 321 321 323 327 326 326 326 326 325 326 325 326 326 327 327 326 325 321 317 316 312 312 313 314 313 313 314 315 315 316 317 317 318 320 323 325 326 326 324
322 321 321 321 320 319 319 326 327 326 325 325 326 325 325 325 326 327 326 324 320 319 317 316 311 312 312 312 313 311 313 313 314 316 315 316 316 317 318 323 323 323 325
321 321 321 320 318 317 319 323 326 325 325 325 325 325 326 324 327 327 326 321 320 317 314 314 310 310 312 312 314 311 311 312 313 313 314 316 315 316 317 318 320 320 322
318 319 319 318 316 320 321 320 322 322 323 324 325 326 324 324 325 326 322 317 317 316 313 312 310 310 308 312 309 308 309 310 311 312 314 314 315 316 316 316 316 316 318
319 318 317 318 317 320 321 320 321 320 323 323 325 325 324 325 324 322 317 316 315 314 311 311 311 307 307 312 308 307 304 307 310 312 312 314 314 316 315 315 315 315 316
317 316 317 316 318 318 316 319 318 320 322 321 322 323 324 323 321 318 317 314 312 313 310 311 311 310 309 307 313 307 301 303 305 308 310 311 313 312 314 315 315 315 316
317 316 314 317 317 316 316 316 315 317 318 320 321 324 323 321 318 315 314 311 312 313 311 311 312 309 312 307 308 311 309 306 303 302 306 309 312 312 313 314 315 315 315
315 314 316 318 316 314 314 317 316 316 319 321 318 321 318 318 318 315 313 312 313 314 313 312 311 310 312 309 310 307 309 309 309 305 302 305 307 311 314 313 314 314 315
314 315 316 315 315 313 314 318 316 315 319 319 317 317 317 317 318 315 316 315 317 316 314 313 313 312 312 312 310 310 310 309 309 308 306 307 306 309 310 312 313 314 315

GFSSE_sfc_thetae_111.txt.gz
Theta_e
344 347 347 349 347 350 350 350 351 352 352 352 353 353 353 353 353 353 353 352 352 353 353 353 353 353 353 351 351 350 349 348 347 347 348 349 348 348 347 347 346 344 347
345 348 346 348 347 347 350 350 351 352 352 353 353 352 352 352 352 352 352 352 352 353 351 352 353 353 352 351 349 348 347 346 345 346 346 346 346 346 345 346 345 345 346
345 348 348 346 346 348 350 350 352 353 353 353 353 352 352 352 351 352 352 352 352 352 351 351 353 351 349 349 347 346 346 345 344 344 345 344 343 345 345 345 344 345 346
345 348 348 345 347 349 349 350 351 354 354 353 352 352 351 351 351 352 351 350 350 351 351 350 350 349 348 346 345 345 344 344 342 343 341 341 341 343 344 343 345 345 344
345 346 347 344 346 348 349 350 351 352 351 350 350 352 351 350 351 350 349 348 349 350 351 349 348 347 345 343 343 343 342 341 340 340 342 342 341 342 343 342 342 343 341
345 346 344 343 345 347 348 349 350 349 349 348 349 350 349 349 348 347 347 347 346 349 349 348 347 345 342 340 340 340 339 338 339 340 341 341 340 341 340 339 340 341 340
345 346 347 341 344 347 348 349 348 348 347 345 345 346 345 344 343 342 343 343 344 346 345 345 345 342 340 339 338 337 336 336 340 340 339 339 340 339 338 336 338 337 337
345 347 347 343 344 345 346 344 345 345 342 342 344 344 342 340 342 343 343 342 343 343 341 341 341 340 338 338 336 334 334 335 338 339 339 338 339 338 336 334 334 334 334
345 346 347 348 346 343 342 341 342 342 342 341 340 340 340 340 340 341 341 341 342 341 341 341 338 337 337 335 334 331 331 334 338 337 336 336 338 336 334 332 331 330 330
343 345 346 347 348 349 349 340 339 339 338 338 338 336 336 336 337 338 338 339 340 340 340 338 336 335 333 333 331 330 330 332 337 336 335 335 336 334 332 330 330 329 329
339 342 344 345 346 345 345 347 341 338 337 337 337 335 333 338 337 334 335 337 338 338 338 336 335 333 332 330 330 329 330 334 334 334 334 333 334 333 331 330 328 329 328
336 338 342 344 343 340 340 343 346 343 341 340 340 338 338 337 337 336 336 335 337 337 336 335 333 331 332 334 331 327 331 331 332 331 331 332 333 331 331 328 328 327 327
335 338 339 341 344 340 338 338 340 338 338 338 338 339 337 336 336 337 334 337 338 337 336 334 332 331 333 332 330 329 329 330 329 329 329 330 332 331 329 328 327 327 326
331 335 338 340 340 339 338 336 336 336 336 334 334 335 336 335 335 334 331 333 334 337 335 332 327 329 331 330 329 328 328 327 327 327 327 328 329 330 330 329 327 328 326
330 333 336 338 339 336 334 334 334 333 336 334 331 332 333 335 333 334 332 333 334 333 332 327 327 326 328 328 328 327 326 326 327 326 326 326 327 330 328 328 328 327 326
330 332 335 336 336 333 333 331 332 333 334 337 332 330 331 332 331 332 331 333 330 333 330 327 326 324 326 327 326 327 326 325 326 326 326 326 325 327 329 328 327 326 326
329 331 332 334 334 332 332 331 330 331 331 331 332 331 330 330 330 331 332 330 331 332 328 326 325 325 325 325 325 325 325 325 325 326 326 326 325 324 326 328 328 326 325
328 330 332 331 332 330 331 332 330 329 329 328 328 328 329 330 330 329 330 329 331 329 327 324 324 323 323 323 324 323 323 324 325 326 326 326 327 326 324 325 326 327 325
327 329 330 331 332 328 329 330 328 330 328 328 327 327 327 328 329 328 331 329 330 327 326 322 323 323 321 321 322 322 323 323 324 324 325 326 327 326 326 324 324 324 325
327 329 330 331 331 328 328 329 329 330 328 330 328 327 326 326 327 327 328 328 326 323 322 322 321 323 322 322 319 320 322 323 324 324 324 324 325 326 326 326 326 324 322
326 327 328 329 328 326 325 324 324 322 325 326 327 327 327 326 326 326 326 323 323 321 321 323 320 320 319 322 318 318 319 321 322 323 324 323 323 324 325 325 325 325 324
323 326 325 327 325 326 325 325 328 327 326 327 328 328 328 326 326 326 325 322 320 318 318 320 321 319 318 321 318 317 312 315 319 320 322 322 323 323 323 324 324 324 324
322 321 322 324 324 326 327 325 323 325 325 324 326 327 326 325 325 325 324 322 320 317 315 316 321 320 316 319 321 318 311 311 314 318 320 321 321 321 322 322 323 323 323
321 320 322 323 323 323 323 322 320 321 320 323 324 326 324 324 324 322 320 321 320 318 315 316 321 322 320 316 319 317 321 318 313 311 316 319 320 320 321 322 322 322 323
322 318 321 324 323 320 321 321 320 322 323 324 324 323 324 323 321 319 318 318 318 317 317 315 318 321 321 319 318 317 316 317 317 314 311 314 317 320 321 322 322 322 321
322 317 322 323 319 319 323 322 322 320 321 321 321 321 320 319 317 317 315 314 316 316 316 317 318 321 321 320 320 319 317 315 315 317 316 314 314 316 319 321 321 321 322

GFSSE_sfc_thetae_117.txt.gz
Theta_e
335 348 349 351 351 351 351 352 352 354 353 354 353 354 354 354 355 355 355 355 355 356 355 353 353 352 351 350 351 352 351 350 349 350 351 351 349 348 348 348 347 346 348
337 347 347 350 351 350 350 351 352 353 354 354 353 353 353 354 354 355 355 355 355 355 353 352 352 352 351 351 350 349 349 347 347 348 349 349 349 347 348 348 347 346 347
339 349 350 348 350 350 350 351 352 354 355 354 354 353 352 352 352 354 354 354 353 353 352 351 351 351 351 349 348 348 348 347 346 347 347 343 346 347 347 346 346 347 347
340 348 351 347 348 350 350 351 352 354 354 354 353 353 352 352 351 350 351 350 351 353 353 351 351 350 349 348 347 346 346 346 345 345 343 343 343 346 346 346 346 347 346
339 345 352 346 346 349 350 351 353 353 352 352 352 352 350 350 347 343 343 345 349 353 353 351 350 349 348 345 345 344 344 344 342 341 340 341 341 344 345 345 345 344 344
339 342 345 344 346 348 350 351 352 352 350 351 351 351 349 346 343 340 339 342 345 348 351 350 350 347 344 343 343 342 342 342 341 339 340 342 341 343 344 343 343 343 342
340 347 351 342 345 348 350 351 351 350 349 350 350 349 346 342 340 340 341 341 340 343 349 349 347 345 342 341 341 340 340 340 340 339 341 342 342 343 343 342 342 342 341
344 350 351 345 345 347 348 348 348 348 348 348 347 346 341 337 337 338 341 341 340 343 345 345 343 342 341 340 339 338 337 335 339 338 339 341 341 341 340 339 339 339 338
349 351 352 350 348 344 343 344 343 344 345 345 345 343 339 337 338 337 339 341 340 343 345 343 341 340 339 338 337 336 335 336 340 338 339 337 339 338 337 336 335 334 335
349 350 351 351 351 351 350 341 341 341 341 341 342 340 336 336 338 338 340 341 342 343 343 341 339 338 337 336 335 334 334 334 338 339 339 338 338 336 335 334 333 332 332
347 348 349 350 351 352 351 347 342 341 340 339 341 337 334 342 338 341 340 340 342 341 340 338 337 335 333 333 334 333 334 340 338 339 338 336 338 336 334 332 331 331 331
342 346 347 349 350 351 347 350 348 348 348 347 348 346 347 345 343 341 339 339 340 338 337 336 335 332 334 339 336 332 338 338 336 338 335 335 337 334 333 331 330 330 330
340 344 346 349 351 351 348 348 347 347 347 347 347 347 347 343 348 342 343 340 344 339 340 338 333 339 339 338 338 339 337 337 334 333 333 333 335 333 331 330 330 328 328
335 343 346 348 349 351 348 347 347 347 346 346 347 349 345 343 343 342 336 335 339 343 340 335 338 340 338 338 338 337 334 334 330 333 331 331 333 333 331 331 330 328 328
328 337 345 347 349 349 348 345 346 347 346 347 346 348 345 343 340 339 338 339 339 342 341 335 338 339 338 336 335 333 332 330 330 332 330 328 330 332 331 331 329 328 328
327 335 342 346 348 350 344 345 346 346 345 346 345 346 345 343 344 339 341 339 336 341 338 333 333 335 336 334 333 331 330 329 328 329 329 327 327 330 331 331 330 328 327
327 332 338 344 348 349 344 343 344 344 344 344 343 346 344 344 343 341 340 338 338 340 334 331 330 330 336 332 330 330 329 329 327 327 327 327 326 326 328 330 330 328 327
324 329 334 338 346 349 346 346 343 342 342 343 341 343 344 342 341 342 339 340 339 338 333 329 330 329 327 329 329 328 327 328 326 326 326 326 326 326 326 328 329 329 328
324 325 329 340 343 348 347 344 344 343 341 341 341 340 341 341 340 339 339 339 338 337 335 330 328 326 324 326 327 328 329 326 326 324 326 325 326 326 325 325 326 326 327
325 326 328 336 342 348 345 344 342 340 337 339 338 338 340 340 339 338 339 338 338 335 332 327 326 326 325 325 324 325 325 326 326 323 324 325 326 328 326 326 325 324 324
326 328 329 332 340 343 340 338 335 333 333 334 336 336 338 338 336 337 336 335 331 329 328 328 327 325 323 329 324 323 324 326 328 323 324 323 325 326 327 327 324 324 324
323 329 330 333 337 340 337 335 337 337 336 337 335 335 335 334 335 334 334 331 329 328 327 325 326 322 322 328 322 320 315 318 322 322 323 323 327 323 324 326 325 325 326
324 329 330 333 335 339 333 335 337 336 334 331 330 332 334 333 331 330 330 330 328 327 325 324 325 322 319 324 327 321 315 312 317 321 322 322 326 323 324 324 325 325 326
324 330 332 333 334 337 335 335 336 331 328 331 331 332 332 334 331 329 328 327 327 327 326 324 326 326 323 321 325 325 325 322 315 313 320 321 322 322 325 324 324 325 325
324 330 333 333 334 336 336 336 335 334 332 332 331 332 331 332 333 330 327 326 325 325 325 323 324 325 324 325 324 323 323 323 323 318 313 316 319 321 322 323 324 325 325
330 332 333 332 333 335 335 336 335 334 332 329 329 329 330 331 333 330 329 326 324 324 323 323 323 324 324 325 326 326 323 320 319 320 317 318 317 319 321 324 325 326 327

GFSSE_sfc_thetae_120.txt.gz
Theta_e
337 346 350 352 352 352 352 353 354 353 353 353 354 353 354 355 355 356 356 355 355 356 356 353 354 354 352 352 352 350 351 350 350 350 351 351 349 349 350 349 347 344 349
342 347 349 351 352 351 352 352 353 354 354 354 353 353 354 354 355 355 355 355 355 356 354 353 352 350 351 351 350 349 349 348 348 348 349 350 350 349 349 348 346 346 348
343 347 348 349 351 351 351 351 352 354 355 354 353 353 353 353 352 352 354 354 353 354 354 352 351 352 351 350 348 348 348 347 346 346 347 342 344 348 347 347 347 347 348
345 347 347 347 349 350 351 351 353 354 355 354 353 353 352 351 348 348 348 347 348 352 353 352 352 351 349 348 347 347 346 346 345 345 342 341 342 347 347 347 347 347 347
344 346 347 346 347 350 351 352 353 354 353 352 352 353 351 345 341 342 340 341 342 345 352 351 352 349 347 345 345 345 345 344 344 342 338 340 340 345 346 345 346 346 344
340 351 343 344 346 349 351 352 352 352 349 350 351 351 348 341 339 340 336 340 339 336 345 350 349 347 344 343 343 342 342 342 340 338 338 341 339 345 344 344 343 343 343
345 349 346 342 346 348 350 351 351 350 348 349 350 349 345 341 339 339 339 339 332 331 341 346 346 344 343 341 341 340 340 340 337 337 337 338 339 344 345 343 343 342 341
351 351 347 344 345 347 348 348 348 348 347 348 348 345 345 342 340 339 339 338 334 332 339 343 344 343 341 340 340 337 335 335 338 338 337 337 341 342 343 341 341 339 339
353 351 347 346 346 345 344 344 344 345 345 347 345 341 339 340 339 341 341 339 336 339 342 343 340 340 340 339 338 336 333 336 336 337 337 336 340 341 341 339 337 337 337
349 351 348 348 347 347 346 341 341 342 342 342 342 339 336 335 336 339 340 341 340 341 343 340 339 339 338 337 336 334 333 336 335 336 336 335 339 339 338 336 335 334 334
347 349 349 348 348 349 348 345 341 342 341 340 341 338 334 336 337 336 336 338 340 340 341 339 337 335 333 334 333 332 333 334 334 335 333 336 338 337 336 334 333 333 333
343 346 348 349 348 350 347 346 345 345 345 345 344 338 340 340 337 337 338 338 339 338 338 337 335 333 334 333 333 332 334 335 334 334 333 336 337 335 334 333 332 332 332
342 345 346 348 350 349 345 347 344 345 344 344 345 343 343 342 341 339 339 339 337 338 336 335 333 333 335 335 333 332 333 333 333 332 332 334 336 336 333 332 331 331 331
337 343 345 347 349 350 346 345 345 342 344 344 343 345 343 341 339 338 338 337 336 336 335 334 332 333 333 333 334 333 332 332 331 330 331 332 334 334 332 332 330 329 330
333 341 344 347 348 349 346 344 345 343 344 344 344 344 342 340 338 338 336 335 334 337 335 333 332 332 331 333 334 332 331 331 331 329 328 329 331 332 331 331 330 329 329
326 339 344 344 348 349 346 345 343 346 344 346 345 344 343 340 338 336 334 335 336 336 336 334 331 332 331 332 331 330 329 326 329 327 327 326 328 330 331 331 329 328 328
324 332 343 344 347 348 345 344 344 345 344 343 343 345 342 341 338 336 335 334 335 336 334 331 330 329 331 331 329 329 326 326 324 326 325 325 324 326 328 330 330 329 326
321 327 338 343 345 347 345 342 342 342 342 342 340 342 342 340 339 336 334 333 334 334 332 329 328 326 327 327 325 324 324 324 323 323 323 323 323 325 326 328 329 329 328
321 324 332 338 342 345 345 343 342 341 341 341 340 339 341 340 338 336 335 333 334 333 330 328 327 327 325 325 325 324 324 322 320 322 322 322 322 322 323 326 326 326 327
322 324 331 336 341 344 346 343 342 341 339 341 340 338 339 339 338 336 334 333 333 331 329 327 326 326 325 324 326 323 324 322 320 319 321 322 321 322 323 322 321 321 324
323 328 328 334 339 342 341 339 338 336 336 336 336 337 336 337 336 335 333 332 332 330 329 327 326 323 322 323 321 320 321 321 322 317 322 321 320 322 322 322 320 320 321
323 326 328 328 337 339 341 340 338 337 333 333 334 334 334 335 335 333 332 331 331 330 328 327 325 323 322 323 320 317 312 316 319 319 317 319 319 321 323 322 321 320 320
323 328 327 328 331 337 340 338 335 333 333 332 333 332 332 333 334 332 332 331 330 329 326 326 325 323 319 321 322 316 310 308 313 318 316 316 319 317 322 322 321 321 321
322 328 329 329 330 335 338 334 332 330 329 330 330 330 331 331 331 331 330 330 329 329 326 326 326 323 321 318 321 322 319 316 310 308 313 315 318 318 318 318 319 320 322
321 327 329 330 331 336 334 333 332 331 331 330 330 328 329 330 330 329 329 329 328 328 326 325 325 323 322 319 319 319 318 318 316 312 308 311 315 316 318 319 318 318 321
331 330 332 331 330 334 333 334 332 332 330 329 329 328 328 329 329 328 327 326 327 326 326 325 325 324 322 321 321 320 318 316 314 314 311 311 311 314 316 317 318 318 319

GFSSE_sfc_thetae_123.txt.gz
Theta_e
340 347 349 351 351 351 352 352 351 351 352 353 354 354 354 355 355 355 355 355 355 356 356 354 354 353 352 352 352 352 349 348 347 350 351 352 352 351 350 349 348 346 349
342 347 348 350 351 351 351 351 352 351 353 354 353 353 353 354 354 355 355 355 355 356 354 352 354 353 352 351 350 350 349 348 345 347 350 352 351 351 348 348 347 346 348
342 346 348 348 350 350 351 352 352 354 354 353 353 352 353 352 351 350 351 349 351 351 353 351 352 351 351 350 349 349 348 346 345 346 347 343 345 349 348 348 347 348 348
341 345 346 347 349 350 350 351 352 354 354 353 353 353 351 349 349 346 344 343 343 343 349 352 352 351 349 348 347 347 346 345 344 344 341 341 343 348 347 346 347 347 347
340 343 346 345 347 349 349 350 352 352 352 352 352 352 349 347 345 344 343 342 341 338 342 349 351 349 347 345 344 344 344 344 342 341 338 338 341 346 347 346 346 346 345
341 344 342 343 346 348 349 351 352 351 349 350 350 350 346 346 346 344 341 340 337 339 339 345 348 347 344 343 342 343 342 340 339 336 338 342 340 346 345 345 344 344 343
342 341 342 341 345 348 350 351 350 347 346 348 349 347 345 346 345 341 341 339 336 338 339 342 347 345 342 342 342 340 338 337 336 336 337 338 340 345 345 343 343 342 342
341 341 341 344 344 346 348 347 347 346 345 347 346 343 343 343 341 340 341 340 339 340 338 341 342 342 341 341 339 337 335 335 337 336 336 336 342 343 343 342 341 340 340
343 340 340 341 344 344 343 343 343 343 343 345 343 342 342 340 339 339 340 338 338 339 340 340 340 337 338 337 336 334 333 336 335 336 336 336 342 342 341 340 339 338 338
342 340 339 339 340 339 339 341 341 341 341 343 341 339 337 337 338 338 339 338 337 337 339 343 339 337 337 334 333 332 333 335 334 334 334 336 340 341 340 339 338 336 335
342 339 339 339 340 339 338 341 341 341 341 340 339 337 334 334 334 338 338 338 339 339 340 340 338 337 334 333 332 331 334 334 333 331 333 337 339 339 338 337 336 335 334
338 339 340 339 340 341 343 338 338 340 338 339 338 335 332 332 333 335 335 337 339 338 339 338 336 335 334 333 331 331 332 333 333 331 332 335 338 337 336 335 334 334 333
338 341 340 341 341 341 340 338 339 339 339 339 337 334 333 335 333 331 333 334 334 337 336 335 334 333 333 333 331 330 331 332 331 332 333 334 337 337 335 334 334 333 332
338 339 341 342 342 342 339 338 339 339 338 338 339 336 336 336 330 332 334 332 334 333 332 333 332 330 332 333 332 332 331 331 329 330 331 332 335 336 335 333 332 332 331
336 339 340 342 343 343 339 339 338 337 339 339 339 339 339 336 334 333 333 331 332 332 330 329 329 329 329 332 333 332 328 330 328 329 330 329 331 333 333 331 330 331 331
332 338 340 341 343 343 339 338 338 337 337 339 339 340 338 336 334 333 332 332 332 333 331 329 328 328 329 330 331 330 328 329 327 327 327 328 328 330 332 330 330 330 329
323 337 338 340 343 342 340 338 338 338 338 337 339 339 337 335 334 333 331 331 332 333 332 329 328 329 329 330 329 329 327 328 326 326 325 325 326 326 328 330 330 330 328
312 335 338 341 342 342 341 339 338 338 336 336 338 339 337 335 334 332 331 331 333 332 331 328 327 327 327 327 326 326 322 326 325 324 324 324 323 324 325 327 328 329 328
311 328 337 338 340 342 340 339 336 335 335 335 334 336 337 336 334 332 330 329 331 331 328 327 323 326 325 325 325 325 322 323 323 323 322 321 321 322 322 325 326 325 326
310 317 337 338 339 342 340 337 336 334 333 336 335 334 334 336 334 332 330 329 331 330 325 325 323 322 324 325 327 326 321 321 322 320 320 321 321 321 321 322 322 320 323
308 314 333 336 338 340 337 335 334 333 333 331 335 336 333 336 334 332 331 329 330 329 327 324 323 322 322 324 321 320 320 318 317 319 319 319 320 320 321 321 319 319 321
312 317 325 333 337 339 340 338 336 335 333 332 336 336 336 335 334 331 330 328 329 329 325 324 323 322 319 324 319 318 313 315 318 317 319 319 318 319 320 320 319 318 319
312 316 323 330 336 338 338 336 331 329 328 327 331 331 332 333 333 330 329 328 328 329 326 324 323 322 319 321 322 317 311 309 313 316 315 318 316 316 319 319 318 318 318
312 318 320 324 333 336 337 335 332 330 326 327 329 331 331 332 332 331 329 328 327 328 328 326 325 323 322 318 321 323 318 315 311 309 313 313 318 318 318 319 318 318 319
311 319 321 321 328 333 335 334 330 329 329 329 330 329 330 329 329 329 329 329 328 328 328 326 325 323 323 320 320 320 318 316 315 312 308 309 313 317 319 320 318 317 319
315 318 319 320 324 332 332 331 331 329 326 327 327 326 326 327 327 327 327 328 328 327 326 326 326 324 322 321 321 321 318 315 312 312 309 310 311 311 314 316 315 315 318

GFSSE_sfc_thetae_126.txt.gz
Theta_e
340 346 349 351 352 351 350 350 350 351 352 353 353 353 354 355 354 354 354 354 355 356 355 354 354 354 354 353 352 349 349 348 347 348 350 351 351 351 350 350 349 347 350
342 347 347 349 350 351 351 350 350 351 353 353 353 353 353 354 354 354 354 353 354 354 352 353 352 353 353 352 349 348 348 347 347 347 349 351 351 350 348 348 348 346 348
343 347 347 348 349 350 351 352 352 353 353 352 353 353 352 353 353 352 351 350 349 352 351 351 351 351 351 349 347 347 347 347 347 347 348 344 344 347 348 348 347 348 347
344 346 346 346 348 349 350 350 352 354 353 353 352 352 351 351 350 348 346 345 344 346 351 350 350 350 348 347 346 346 346 345 344 344 342 343 344 347 347 347 346 347 347
341 344 345 345 346 348 349 350 351 353 352 351 351 352 350 349 348 347 344 344 344 346 346 349 350 349 346 345 344 344 344 343 342 340 338 341 341 345 347 346 345 346 344
339 343 342 343 345 348 349 350 351 351 349 349 350 349 349 349 348 345 343 342 343 345 345 346 349 347 343 342 342 343 342 341 339 337 339 342 340 346 346 345 344 344 343
338 341 342 341 345 348 350 350 349 348 348 348 348 347 347 348 346 343 340 341 342 342 342 342 346 343 342 340 341 339 338 338 336 335 335 336 340 345 345 344 343 342 341
336 339 341 343 345 346 348 348 345 344 345 346 346 345 346 344 342 342 340 340 341 340 342 342 342 342 341 340 339 336 336 337 337 336 336 336 342 343 343 342 342 340 340
337 337 339 341 344 344 343 343 342 342 342 344 343 342 342 341 339 341 340 338 340 339 341 339 341 339 338 337 335 334 334 335 334 335 337 336 342 343 342 341 340 339 338
337 337 337 339 341 341 342 340 340 339 340 341 340 339 338 337 337 339 337 338 339 339 340 340 339 338 338 335 333 332 332 334 333 333 334 337 341 343 342 340 339 337 336
336 335 336 337 338 337 339 342 340 340 340 339 339 337 334 334 334 336 335 336 338 338 338 340 337 337 335 334 333 332 333 332 332 331 334 338 341 342 341 339 336 335 335
333 333 335 336 337 337 341 340 338 341 341 341 337 335 332 330 332 335 336 335 336 336 338 339 338 334 334 334 331 332 332 332 330 330 334 336 340 341 339 337 334 335 334
336 336 335 336 337 337 338 339 340 339 340 340 336 332 328 330 330 332 333 335 332 336 335 335 335 332 331 332 331 330 331 331 330 331 333 335 338 338 337 335 334 334 333
336 337 336 337 338 338 338 336 338 338 338 338 337 332 330 329 327 328 330 329 331 333 334 333 332 329 330 331 331 331 332 330 329 330 332 332 336 337 337 335 335 334 333
335 337 337 338 338 340 338 336 336 337 337 338 335 334 332 331 329 329 331 330 332 332 332 330 329 328 329 330 330 331 331 330 329 330 330 330 332 336 336 336 335 334 332
335 336 339 339 340 340 338 337 336 337 337 336 337 336 335 334 331 330 330 330 330 331 330 328 326 326 326 329 329 330 330 329 329 329 328 329 329 331 334 334 333 332 332
335 337 337 338 340 340 338 338 337 337 337 336 337 337 337 335 332 331 330 329 330 330 328 325 323 325 326 329 329 329 330 328 328 327 327 327 327 327 329 331 328 331 330
329 334 338 340 340 340 339 339 338 337 337 337 337 338 336 335 334 331 330 329 330 330 329 326 324 324 325 327 326 325 327 327 327 326 325 325 323 325 325 327 329 330 329
313 330 336 338 339 340 339 338 338 338 335 336 338 337 336 335 334 332 330 330 330 329 328 326 322 324 323 325 325 324 323 325 325 325 323 323 321 321 321 324 324 326 327
306 328 335 337 339 340 340 337 336 336 335 336 336 337 335 334 333 331 329 329 330 328 327 325 323 320 322 324 326 324 322 322 324 323 322 323 320 320 320 321 321 321 323
307 316 332 334 337 339 337 334 333 332 333 334 334 335 335 335 333 330 328 327 329 327 325 324 321 321 318 323 321 320 320 320 320 321 321 321 320 320 320 320 318 317 320
308 306 327 334 336 339 338 337 336 335 332 334 334 333 334 334 334 333 331 329 328 327 324 324 322 318 319 324 318 319 314 315 316 319 320 319 318 320 320 320 319 317 317
309 306 319 332 336 339 338 336 330 328 327 329 332 333 334 335 335 334 332 329 329 329 326 324 322 321 318 321 321 318 311 310 312 316 317 317 317 317 319 319 319 318 317
308 311 317 331 335 339 338 335 332 331 329 331 332 333 332 334 333 333 331 330 330 329 327 325 324 323 322 319 318 321 317 316 310 307 315 317 317 316 317 317 317 317 317
309 315 324 331 335 337 337 335 333 331 331 329 330 328 331 331 332 331 330 329 327 329 328 326 324 323 323 320 319 320 317 316 317 311 308 311 315 317 318 317 317 316 317
310 314 318 329 333 335 336 335 333 330 327 326 327 327 328 329 329 330 329 329 328 328 328 327 325 324 323 322 322 321 319 316 313 312 309 311 311 314 318 318 317 316 317

GFSSE_sfc_thetae_129.txt.gz
Theta_e
338 345 349 351 351 350 350 350 350 350 351 352 353 354 354 354 354 354 354 354 354 355 353 353 354 354 352 353 352 350 349 350 348 348 351 351 350 350 350 350 349 346 350
341 346 348 350 350 350 350 350 350 351 352 353 353 353 353 353 353 353 353 353 353 354 351 351 351 354 353 352 349 348 349 347 346 346 347 349 351 350 349 349 348 346 348
342 345 347 348 350 350 350 351 351 352 352 352 352 352 353 353 353 352 352 352 353 354 352 351 352 351 350 350 348 347 348 347 346 346 347 344 344 348 348 347 347 347 347
343 344 345 347 348 350 350 350 352 353 352 352 352 352 353 352 352 351 349 348 351 353 353 351 351 351 349 347 347 347 347 346 345 345 342 341 342 347 347 346 346 346 345
342 344 344 345 346 348 349 350 351 351 350 351 351 351 352 351 350 347 346 346 349 352 352 350 350 349 346 345 344 345 344 343 341 341 338 339 341 345 346 345 345 345 344
340 342 342 343 345 347 348 350 350 350 349 349 349 350 350 350 348 345 343 345 348 350 351 352 349 347 344 342 343 342 341 341 339 336 338 341 340 346 346 344 344 344 343
338 340 341 341 344 346 349 349 349 348 348 347 348 348 348 349 347 343 342 344 346 347 348 349 347 344 342 341 341 340 339 338 336 334 335 336 340 345 345 343 343 342 342
336 339 341 343 344 345 347 347 346 346 346 346 345 346 347 346 344 343 341 342 343 344 344 345 343 342 341 340 338 337 336 337 336 334 334 336 343 343 343 342 341 341 340
336 338 339 341 343 343 342 343 342 343 343 344 343 343 342 342 341 341 340 340 341 342 342 343 341 340 340 338 336 335 334 335 333 333 336 336 343 343 343 341 340 339 338
334 336 338 339 341 341 341 339 339 339 340 341 341 339 339 338 339 339 337 338 339 340 340 341 340 338 338 335 334 332 333 333 331 332 333 336 342 343 342 341 339 338 337
331 332 337 339 339 339 339 340 339 339 340 339 339 338 334 333 334 336 334 337 338 339 339 340 338 336 335 333 333 333 333 331 331 330 332 338 340 343 342 340 338 337 336
329 330 334 337 337 337 341 340 336 338 339 338 337 335 333 329 330 334 333 335 337 337 338 338 336 334 334 331 332 333 331 330 330 330 331 336 340 342 341 339 337 335 334
331 331 333 335 336 336 339 340 338 339 341 340 333 332 329 328 329 330 329 330 329 334 334 335 334 332 331 330 331 331 331 331 330 330 333 335 339 340 340 338 336 335 334
331 332 332 334 335 335 338 338 338 339 339 340 335 330 328 327 326 326 328 328 327 329 331 333 332 328 329 330 331 331 330 329 329 331 332 332 336 339 339 337 336 334 333
331 333 332 334 334 335 336 336 336 337 338 338 337 330 328 327 326 326 327 327 328 333 333 331 329 327 327 328 329 331 331 330 328 329 330 330 332 336 337 337 336 335 333
330 333 335 333 334 336 333 334 335 336 337 337 337 334 329 328 327 327 327 326 328 331 331 329 327 326 326 328 327 329 331 330 330 329 328 329 329 332 335 336 335 335 334
327 334 336 335 335 336 334 333 334 335 336 335 335 336 332 331 328 327 328 328 327 330 329 325 323 323 324 326 326 328 330 329 329 329 327 328 328 327 330 333 335 334 333
320 332 336 339 337 336 336 335 334 335 335 335 335 335 336 333 330 328 328 328 327 327 326 322 321 321 322 324 324 325 328 328 328 328 327 326 325 326 327 329 331 332 332
319 330 334 337 337 337 336 337 336 335 334 335 336 335 335 334 332 329 329 327 328 327 325 323 319 321 320 321 322 323 325 326 326 328 326 324 323 322 322 325 325 327 329
308 325 333 336 338 338 337 336 336 334 334 336 336 336 335 335 333 330 328 327 328 327 325 322 320 319 320 321 324 322 321 323 325 325 324 325 322 321 321 320 322 323 324
303 309 326 333 336 337 337 334 333 333 333 334 336 336 335 334 332 330 328 327 328 327 326 324 318 319 317 321 322 319 319 320 321 323 323 322 320 321 319 319 317 320 323
305 305 315 329 335 337 337 336 335 335 334 334 336 336 335 333 332 331 328 327 329 326 323 322 319 316 319 324 318 319 313 315 318 321 321 320 319 321 320 320 318 316 317
302 303 312 325 332 337 338 337 332 329 330 332 332 334 335 333 332 332 329 329 328 327 325 323 323 321 318 322 322 318 312 310 313 316 318 319 318 318 319 320 319 317 316
301 305 307 321 331 336 337 335 332 331 329 332 333 334 334 335 333 333 331 330 329 329 327 325 325 324 323 319 321 321 318 314 309 308 315 317 318 317 317 318 318 317 317
303 306 306 316 329 334 337 335 333 332 332 331 334 333 332 334 334 334 332 330 329 329 328 326 324 323 323 322 321 320 315 316 315 311 309 312 316 317 317 317 318 317 316
309 309 317 317 329 334 336 335 333 332 330 329 331 331 331 331 332 331 331 330 330 329 328 326 326 324 322 323 322 321 320 316 312 309 308 312 312 315 317 317 317 317 317